<?xml version="1.0" encoding="utf-8"?>
<gpx xmlns:xsi="http://www.w3.org/2001/XMLSchema-instance" xmlns:xsd="http://www.w3.org/2001/XMLSchema" version="1.1" creator="Shapelink.com" xmlns="http://www.topografix.com/GPX/1/1" xmlns:gpxtpx="http://www.garmin.com/xmlschemas/TrackPointExtension/v1">
  <metadata>
    <name>Løping 5.10 km, 2014-06-02</name>
    <desc></desc>
    <author><name>Mikael Blom</name></author> 
    <time>2014-06-02T18:06:33Z</time>
  </metadata>
  <trk>
    <name>Løping 5.10 km, 2014-06-02</name>
    <trkseg>
      <trkpt lat="59.9539987" lon="17.7148724">
        <ele>59.2584</ele>
        <time>2014-06-02T18:06:33Z</time>
      </trkpt>
      <trkpt lat="59.9539842" lon="17.714884">
        <ele>58.2971</ele>
        <time>2014-06-02T18:06:34Z</time>
      </trkpt>
      <trkpt lat="59.9539577" lon="17.7148882">
        <ele>56.8551</ele>
        <time>2014-06-02T18:06:35Z</time>
      </trkpt>
      <trkpt lat="59.9539351" lon="17.7149048">
        <ele>56.3745</ele>
        <time>2014-06-02T18:06:36Z</time>
      </trkpt>
      <trkpt lat="59.9539172" lon="17.7149146">
        <ele>55.8938</ele>
        <time>2014-06-02T18:06:37Z</time>
      </trkpt>
      <trkpt lat="59.9538925" lon="17.7149123">
        <ele>55.8938</ele>
        <time>2014-06-02T18:06:38Z</time>
      </trkpt>
      <trkpt lat="59.9538602" lon="17.7149092">
        <ele>55.4131</ele>
        <time>2014-06-02T18:06:39Z</time>
      </trkpt>
      <trkpt lat="59.9538329" lon="17.7149097">
        <ele>55.4131</ele>
        <time>2014-06-02T18:06:40Z</time>
      </trkpt>
      <trkpt lat="59.9538042" lon="17.7149213">
        <ele>54.9324</ele>
        <time>2014-06-02T18:06:41Z</time>
      </trkpt>
      <trkpt lat="59.9537753" lon="17.7149339">
        <ele>54.9324</ele>
        <time>2014-06-02T18:06:42Z</time>
      </trkpt>
      <trkpt lat="59.9537477" lon="17.7149472">
        <ele>54.9324</ele>
        <time>2014-06-02T18:06:43Z</time>
      </trkpt>
      <trkpt lat="59.9537193" lon="17.7149566">
        <ele>53.9712</ele>
        <time>2014-06-02T18:06:44Z</time>
      </trkpt>
      <trkpt lat="59.9536934" lon="17.7149701">
        <ele>53.4905</ele>
        <time>2014-06-02T18:06:45Z</time>
      </trkpt>
      <trkpt lat="59.9536722" lon="17.7150038">
        <ele>55.8938</ele>
        <time>2014-06-02T18:06:46Z</time>
      </trkpt>
      <trkpt lat="59.953649" lon="17.7150302">
        <ele>57.3358</ele>
        <time>2014-06-02T18:06:47Z</time>
      </trkpt>
      <trkpt lat="59.9536221" lon="17.7150512">
        <ele>56.8551</ele>
        <time>2014-06-02T18:06:48Z</time>
      </trkpt>
      <trkpt lat="59.9535959" lon="17.7150659">
        <ele>56.3745</ele>
        <time>2014-06-02T18:06:49Z</time>
      </trkpt>
      <trkpt lat="59.9535702" lon="17.715099">
        <ele>55.8938</ele>
        <time>2014-06-02T18:06:50Z</time>
      </trkpt>
      <trkpt lat="59.9535447" lon="17.7151327">
        <ele>54.9324</ele>
        <time>2014-06-02T18:06:51Z</time>
      </trkpt>
      <trkpt lat="59.9535218" lon="17.7151775">
        <ele>54.4518</ele>
        <time>2014-06-02T18:06:52Z</time>
      </trkpt>
      <trkpt lat="59.953498" lon="17.7152154">
        <ele>53.4905</ele>
        <time>2014-06-02T18:06:53Z</time>
      </trkpt>
      <trkpt lat="59.9534732" lon="17.7152502">
        <ele>53.0098</ele>
        <time>2014-06-02T18:06:54Z</time>
      </trkpt>
      <trkpt lat="59.9534456" lon="17.7152927">
        <ele>53.0098</ele>
        <time>2014-06-02T18:06:55Z</time>
      </trkpt>
      <trkpt lat="59.9534179" lon="17.715339">
        <ele>51.5679</ele>
        <time>2014-06-02T18:06:56Z</time>
      </trkpt>
      <trkpt lat="59.9533898" lon="17.7153892">
        <ele>51.0872</ele>
        <time>2014-06-02T18:06:57Z</time>
      </trkpt>
      <trkpt lat="59.9533634" lon="17.7154419">
        <ele>51.0872</ele>
        <time>2014-06-02T18:06:58Z</time>
      </trkpt>
      <trkpt lat="59.9533417" lon="17.7154855">
        <ele>50.6066</ele>
        <time>2014-06-02T18:06:59Z</time>
      </trkpt>
      <trkpt lat="59.9533293" lon="17.715517">
        <ele>50.6066</ele>
        <time>2014-06-02T18:07:00Z</time>
      </trkpt>
      <trkpt lat="59.9533135" lon="17.71556">
        <ele>49.6453</ele>
        <time>2014-06-02T18:07:01Z</time>
      </trkpt>
      <trkpt lat="59.953294" lon="17.7156042">
        <ele>49.1646</ele>
        <time>2014-06-02T18:07:02Z</time>
      </trkpt>
      <trkpt lat="59.9532713" lon="17.7156247">
        <ele>48.2034</ele>
        <time>2014-06-02T18:07:03Z</time>
      </trkpt>
      <trkpt lat="59.9532467" lon="17.7156424">
        <ele>47.2418</ele>
        <time>2014-06-02T18:07:04Z</time>
      </trkpt>
      <trkpt lat="59.9532201" lon="17.7156694">
        <ele>47.7225</ele>
        <time>2014-06-02T18:07:05Z</time>
      </trkpt>
      <trkpt lat="59.9531926" lon="17.7156818">
        <ele>46.7612</ele>
        <time>2014-06-02T18:07:06Z</time>
      </trkpt>
      <trkpt lat="59.9531676" lon="17.7157024">
        <ele>46.7612</ele>
        <time>2014-06-02T18:07:07Z</time>
      </trkpt>
      <trkpt lat="59.9531428" lon="17.7157138">
        <ele>45.7999</ele>
        <time>2014-06-02T18:07:08Z</time>
      </trkpt>
      <trkpt lat="59.9531236" lon="17.7157424">
        <ele>45.3192</ele>
        <time>2014-06-02T18:07:09Z</time>
      </trkpt>
      <trkpt lat="59.9530994" lon="17.7157671">
        <ele>44.8386</ele>
        <time>2014-06-02T18:07:10Z</time>
      </trkpt>
      <trkpt lat="59.9530756" lon="17.7157929">
        <ele>43.8773</ele>
        <time>2014-06-02T18:07:11Z</time>
      </trkpt>
      <trkpt lat="59.9530531" lon="17.7158285">
        <ele>43.3966</ele>
        <time>2014-06-02T18:07:12Z</time>
      </trkpt>
      <trkpt lat="59.9530378" lon="17.7158858">
        <ele>44.8386</ele>
        <time>2014-06-02T18:07:13Z</time>
      </trkpt>
      <trkpt lat="59.953021" lon="17.7159323">
        <ele>44.8386</ele>
        <time>2014-06-02T18:07:14Z</time>
      </trkpt>
      <trkpt lat="59.9530001" lon="17.715972">
        <ele>44.358</ele>
        <time>2014-06-02T18:07:15Z</time>
      </trkpt>
      <trkpt lat="59.9529808" lon="17.7160233">
        <ele>43.8773</ele>
        <time>2014-06-02T18:07:16Z</time>
      </trkpt>
      <trkpt lat="59.9529618" lon="17.7160843">
        <ele>43.3966</ele>
        <time>2014-06-02T18:07:17Z</time>
      </trkpt>
      <trkpt lat="59.9529484" lon="17.7161654">
        <ele>43.8773</ele>
        <time>2014-06-02T18:07:18Z</time>
      </trkpt>
      <trkpt lat="59.9529361" lon="17.7162235">
        <ele>43.3966</ele>
        <time>2014-06-02T18:07:19Z</time>
      </trkpt>
      <trkpt lat="59.9529318" lon="17.7162713">
        <ele>42.916</ele>
        <time>2014-06-02T18:07:20Z</time>
      </trkpt>
      <trkpt lat="59.9529243" lon="17.716319">
        <ele>41.9547</ele>
        <time>2014-06-02T18:07:21Z</time>
      </trkpt>
      <trkpt lat="59.9529149" lon="17.7163671">
        <ele>40.9934</ele>
        <time>2014-06-02T18:07:22Z</time>
      </trkpt>
      <trkpt lat="59.9529093" lon="17.7164262">
        <ele>40.9934</ele>
        <time>2014-06-02T18:07:23Z</time>
      </trkpt>
      <trkpt lat="59.9529" lon="17.7164912">
        <ele>40.5128</ele>
        <time>2014-06-02T18:07:24Z</time>
      </trkpt>
      <trkpt lat="59.952896" lon="17.7165515">
        <ele>40.0321</ele>
        <time>2014-06-02T18:07:25Z</time>
      </trkpt>
      <trkpt lat="59.9528946" lon="17.7166064">
        <ele>39.0707</ele>
        <time>2014-06-02T18:07:26Z</time>
      </trkpt>
      <trkpt lat="59.952895" lon="17.7166653">
        <ele>38.5901</ele>
        <time>2014-06-02T18:07:27Z</time>
      </trkpt>
      <trkpt lat="59.9528951" lon="17.7167323">
        <ele>39.0707</ele>
        <time>2014-06-02T18:07:28Z</time>
      </trkpt>
      <trkpt lat="59.9528935" lon="17.7167857">
        <ele>38.5901</ele>
        <time>2014-06-02T18:07:29Z</time>
      </trkpt>
      <trkpt lat="59.9528946" lon="17.7168493">
        <ele>38.5901</ele>
        <time>2014-06-02T18:07:30Z</time>
      </trkpt>
      <trkpt lat="59.9528885" lon="17.716917">
        <ele>39.0707</ele>
        <time>2014-06-02T18:07:31Z</time>
      </trkpt>
      <trkpt lat="59.952881" lon="17.7169702">
        <ele>38.5901</ele>
        <time>2014-06-02T18:07:32Z</time>
      </trkpt>
      <trkpt lat="59.9528765" lon="17.7170166">
        <ele>39.0707</ele>
        <time>2014-06-02T18:07:33Z</time>
      </trkpt>
      <trkpt lat="59.9528698" lon="17.717059">
        <ele>39.0707</ele>
        <time>2014-06-02T18:07:34Z</time>
      </trkpt>
      <trkpt lat="59.9528619" lon="17.717111">
        <ele>39.5513</ele>
        <time>2014-06-02T18:07:35Z</time>
      </trkpt>
      <trkpt lat="59.9528525" lon="17.7171805">
        <ele>40.0321</ele>
        <time>2014-06-02T18:07:36Z</time>
      </trkpt>
      <trkpt lat="59.9528401" lon="17.7172612">
        <ele>40.9934</ele>
        <time>2014-06-02T18:07:37Z</time>
      </trkpt>
      <trkpt lat="59.9528315" lon="17.7173345">
        <ele>42.4354</ele>
        <time>2014-06-02T18:07:38Z</time>
      </trkpt>
      <trkpt lat="59.9528206" lon="17.7173797">
        <ele>42.4354</ele>
        <time>2014-06-02T18:07:39Z</time>
      </trkpt>
      <trkpt lat="59.9528087" lon="17.7174446">
        <ele>43.3966</ele>
        <time>2014-06-02T18:07:40Z</time>
      </trkpt>
      <trkpt lat="59.9527964" lon="17.7174901">
        <ele>44.358</ele>
        <time>2014-06-02T18:07:41Z</time>
      </trkpt>
      <trkpt lat="59.9527821" lon="17.7175413">
        <ele>44.358</ele>
        <time>2014-06-02T18:07:42Z</time>
      </trkpt>
      <trkpt lat="59.9527703" lon="17.7176071">
        <ele>45.3192</ele>
        <time>2014-06-02T18:07:43Z</time>
      </trkpt>
      <trkpt lat="59.9527517" lon="17.7176596">
        <ele>45.3192</ele>
        <time>2014-06-02T18:07:44Z</time>
      </trkpt>
      <trkpt lat="59.9527349" lon="17.71772">
        <ele>46.2806</ele>
        <time>2014-06-02T18:07:45Z</time>
      </trkpt>
      <trkpt lat="59.9527215" lon="17.7177783">
        <ele>47.2418</ele>
        <time>2014-06-02T18:07:46Z</time>
      </trkpt>
      <trkpt lat="59.9527064" lon="17.7178429">
        <ele>47.7225</ele>
        <time>2014-06-02T18:07:47Z</time>
      </trkpt>
      <trkpt lat="59.9526883" lon="17.7179271">
        <ele>49.1646</ele>
        <time>2014-06-02T18:07:48Z</time>
      </trkpt>
      <trkpt lat="59.9526714" lon="17.7179874">
        <ele>48.684</ele>
        <time>2014-06-02T18:07:49Z</time>
      </trkpt>
      <trkpt lat="59.9526554" lon="17.718053">
        <ele>49.6453</ele>
        <time>2014-06-02T18:07:50Z</time>
      </trkpt>
      <trkpt lat="59.9526372" lon="17.7180905">
        <ele>49.6453</ele>
        <time>2014-06-02T18:07:51Z</time>
      </trkpt>
      <trkpt lat="59.9526217" lon="17.7181112">
        <ele>49.1646</ele>
        <time>2014-06-02T18:07:52Z</time>
      </trkpt>
      <trkpt lat="59.9526082" lon="17.718136">
        <ele>48.684</ele>
        <time>2014-06-02T18:07:53Z</time>
      </trkpt>
      <trkpt lat="59.9525973" lon="17.7181662">
        <ele>48.2034</ele>
        <time>2014-06-02T18:07:54Z</time>
      </trkpt>
      <trkpt lat="59.9525861" lon="17.7182063">
        <ele>48.684</ele>
        <time>2014-06-02T18:07:55Z</time>
      </trkpt>
      <trkpt lat="59.952573" lon="17.7182595">
        <ele>48.684</ele>
        <time>2014-06-02T18:07:56Z</time>
      </trkpt>
      <trkpt lat="59.9525574" lon="17.7183038">
        <ele>48.2034</ele>
        <time>2014-06-02T18:07:57Z</time>
      </trkpt>
      <trkpt lat="59.9525476" lon="17.7183542">
        <ele>48.2034</ele>
        <time>2014-06-02T18:07:58Z</time>
      </trkpt>
      <trkpt lat="59.9525372" lon="17.7183941">
        <ele>47.7225</ele>
        <time>2014-06-02T18:07:59Z</time>
      </trkpt>
      <trkpt lat="59.9525315" lon="17.7184286">
        <ele>47.2418</ele>
        <time>2014-06-02T18:08:00Z</time>
      </trkpt>
      <trkpt lat="59.9525234" lon="17.7184656">
        <ele>46.2806</ele>
        <time>2014-06-02T18:08:01Z</time>
      </trkpt>
      <trkpt lat="59.9525145" lon="17.7185185">
        <ele>47.2418</ele>
        <time>2014-06-02T18:08:02Z</time>
      </trkpt>
      <trkpt lat="59.9525072" lon="17.7185705">
        <ele>48.684</ele>
        <time>2014-06-02T18:08:03Z</time>
      </trkpt>
      <trkpt lat="59.9524968" lon="17.7186101">
        <ele>49.6453</ele>
        <time>2014-06-02T18:08:04Z</time>
      </trkpt>
      <trkpt lat="59.9524858" lon="17.7186469">
        <ele>50.126</ele>
        <time>2014-06-02T18:08:05Z</time>
      </trkpt>
      <trkpt lat="59.9524746" lon="17.7186852">
        <ele>50.126</ele>
        <time>2014-06-02T18:08:06Z</time>
      </trkpt>
      <trkpt lat="59.9524597" lon="17.7187347">
        <ele>51.0872</ele>
        <time>2014-06-02T18:08:07Z</time>
      </trkpt>
      <trkpt lat="59.9524448" lon="17.718767">
        <ele>51.0872</ele>
        <time>2014-06-02T18:08:08Z</time>
      </trkpt>
      <trkpt lat="59.9524306" lon="17.7188034">
        <ele>51.5679</ele>
        <time>2014-06-02T18:08:09Z</time>
      </trkpt>
      <trkpt lat="59.9524221" lon="17.7188578">
        <ele>52.5292</ele>
        <time>2014-06-02T18:08:10Z</time>
      </trkpt>
      <trkpt lat="59.9524166" lon="17.7189129">
        <ele>53.4905</ele>
        <time>2014-06-02T18:08:11Z</time>
      </trkpt>
      <trkpt lat="59.9524109" lon="17.7189676">
        <ele>53.4905</ele>
        <time>2014-06-02T18:08:12Z</time>
      </trkpt>
      <trkpt lat="59.9524001" lon="17.7190243">
        <ele>53.9712</ele>
        <time>2014-06-02T18:08:13Z</time>
      </trkpt>
      <trkpt lat="59.9523922" lon="17.719081">
        <ele>54.4518</ele>
        <time>2014-06-02T18:08:14Z</time>
      </trkpt>
      <trkpt lat="59.9523894" lon="17.7191296">
        <ele>53.4905</ele>
        <time>2014-06-02T18:08:15Z</time>
      </trkpt>
      <trkpt lat="59.9523844" lon="17.7191882">
        <ele>53.0098</ele>
        <time>2014-06-02T18:08:16Z</time>
      </trkpt>
      <trkpt lat="59.9523765" lon="17.7192493">
        <ele>52.5292</ele>
        <time>2014-06-02T18:08:17Z</time>
      </trkpt>
      <trkpt lat="59.9523749" lon="17.7193125">
        <ele>52.5292</ele>
        <time>2014-06-02T18:08:18Z</time>
      </trkpt>
      <trkpt lat="59.9523733" lon="17.7193767">
        <ele>52.5292</ele>
        <time>2014-06-02T18:08:19Z</time>
      </trkpt>
      <trkpt lat="59.9523723" lon="17.7194366">
        <ele>51.5679</ele>
        <time>2014-06-02T18:08:20Z</time>
      </trkpt>
      <trkpt lat="59.9523772" lon="17.719498">
        <ele>52.0486</ele>
        <time>2014-06-02T18:08:21Z</time>
      </trkpt>
      <trkpt lat="59.9523859" lon="17.719558">
        <ele>52.0486</ele>
        <time>2014-06-02T18:08:22Z</time>
      </trkpt>
      <trkpt lat="59.9523995" lon="17.7196202">
        <ele>52.0486</ele>
        <time>2014-06-02T18:08:23Z</time>
      </trkpt>
      <trkpt lat="59.9524181" lon="17.7196702">
        <ele>52.5292</ele>
        <time>2014-06-02T18:08:24Z</time>
      </trkpt>
      <trkpt lat="59.9524428" lon="17.7197109">
        <ele>53.0098</ele>
        <time>2014-06-02T18:08:25Z</time>
      </trkpt>
      <trkpt lat="59.9524638" lon="17.7197511">
        <ele>53.4905</ele>
        <time>2014-06-02T18:08:26Z</time>
      </trkpt>
      <trkpt lat="59.9524766" lon="17.7197963">
        <ele>53.0098</ele>
        <time>2014-06-02T18:08:27Z</time>
      </trkpt>
      <trkpt lat="59.9524911" lon="17.7198415">
        <ele>52.5292</ele>
        <time>2014-06-02T18:08:28Z</time>
      </trkpt>
      <trkpt lat="59.9524998" lon="17.719892">
        <ele>52.0486</ele>
        <time>2014-06-02T18:08:29Z</time>
      </trkpt>
      <trkpt lat="59.9525027" lon="17.7199453">
        <ele>51.5679</ele>
        <time>2014-06-02T18:08:30Z</time>
      </trkpt>
      <trkpt lat="59.9525123" lon="17.7199941">
        <ele>51.5679</ele>
        <time>2014-06-02T18:08:31Z</time>
      </trkpt>
      <trkpt lat="59.9525228" lon="17.7200445">
        <ele>51.5679</ele>
        <time>2014-06-02T18:08:32Z</time>
      </trkpt>
      <trkpt lat="59.9525298" lon="17.7201025">
        <ele>51.0872</ele>
        <time>2014-06-02T18:08:33Z</time>
      </trkpt>
      <trkpt lat="59.9525274" lon="17.7201682">
        <ele>50.126</ele>
        <time>2014-06-02T18:08:34Z</time>
      </trkpt>
      <trkpt lat="59.952526" lon="17.7202323">
        <ele>50.126</ele>
        <time>2014-06-02T18:08:35Z</time>
      </trkpt>
      <trkpt lat="59.9525243" lon="17.7202922">
        <ele>49.6453</ele>
        <time>2014-06-02T18:08:36Z</time>
      </trkpt>
      <trkpt lat="59.9525207" lon="17.7203521">
        <ele>49.6453</ele>
        <time>2014-06-02T18:08:37Z</time>
      </trkpt>
      <trkpt lat="59.9525158" lon="17.720406">
        <ele>49.1646</ele>
        <time>2014-06-02T18:08:38Z</time>
      </trkpt>
      <trkpt lat="59.9525129" lon="17.7204506">
        <ele>48.2034</ele>
        <time>2014-06-02T18:08:39Z</time>
      </trkpt>
      <trkpt lat="59.952513" lon="17.7204915">
        <ele>48.2034</ele>
        <time>2014-06-02T18:08:40Z</time>
      </trkpt>
      <trkpt lat="59.9525149" lon="17.7205374">
        <ele>48.2034</ele>
        <time>2014-06-02T18:08:41Z</time>
      </trkpt>
      <trkpt lat="59.9525186" lon="17.7205955">
        <ele>48.684</ele>
        <time>2014-06-02T18:08:42Z</time>
      </trkpt>
      <trkpt lat="59.9525189" lon="17.7206531">
        <ele>48.684</ele>
        <time>2014-06-02T18:08:43Z</time>
      </trkpt>
      <trkpt lat="59.9525208" lon="17.7207125">
        <ele>49.1646</ele>
        <time>2014-06-02T18:08:44Z</time>
      </trkpt>
      <trkpt lat="59.9525229" lon="17.7207686">
        <ele>48.2034</ele>
        <time>2014-06-02T18:08:45Z</time>
      </trkpt>
      <trkpt lat="59.9525294" lon="17.7208235">
        <ele>48.2034</ele>
        <time>2014-06-02T18:08:46Z</time>
      </trkpt>
      <trkpt lat="59.9525324" lon="17.7208727">
        <ele>48.684</ele>
        <time>2014-06-02T18:08:47Z</time>
      </trkpt>
      <trkpt lat="59.9525326" lon="17.72092">
        <ele>47.7225</ele>
        <time>2014-06-02T18:08:48Z</time>
      </trkpt>
      <trkpt lat="59.9525326" lon="17.7209725">
        <ele>47.7225</ele>
        <time>2014-06-02T18:08:49Z</time>
      </trkpt>
      <trkpt lat="59.9525309" lon="17.7210282">
        <ele>46.7612</ele>
        <time>2014-06-02T18:08:50Z</time>
      </trkpt>
      <trkpt lat="59.9525269" lon="17.7210894">
        <ele>46.2806</ele>
        <time>2014-06-02T18:08:51Z</time>
      </trkpt>
      <trkpt lat="59.9525248" lon="17.7211452">
        <ele>46.2806</ele>
        <time>2014-06-02T18:08:52Z</time>
      </trkpt>
      <trkpt lat="59.9525264" lon="17.7211999">
        <ele>45.7999</ele>
        <time>2014-06-02T18:08:53Z</time>
      </trkpt>
      <trkpt lat="59.9525269" lon="17.7212576">
        <ele>46.2806</ele>
        <time>2014-06-02T18:08:54Z</time>
      </trkpt>
      <trkpt lat="59.9525243" lon="17.7213188">
        <ele>46.2806</ele>
        <time>2014-06-02T18:08:55Z</time>
      </trkpt>
      <trkpt lat="59.9525264" lon="17.7213839">
        <ele>46.2806</ele>
        <time>2014-06-02T18:08:56Z</time>
      </trkpt>
      <trkpt lat="59.9525348" lon="17.7214361">
        <ele>46.2806</ele>
        <time>2014-06-02T18:08:57Z</time>
      </trkpt>
      <trkpt lat="59.9525429" lon="17.7214846">
        <ele>46.2806</ele>
        <time>2014-06-02T18:08:58Z</time>
      </trkpt>
      <trkpt lat="59.9525476" lon="17.7215378">
        <ele>46.2806</ele>
        <time>2014-06-02T18:08:59Z</time>
      </trkpt>
      <trkpt lat="59.9525497" lon="17.721598">
        <ele>46.7612</ele>
        <time>2014-06-02T18:09:00Z</time>
      </trkpt>
      <trkpt lat="59.9525572" lon="17.7216581">
        <ele>47.7225</ele>
        <time>2014-06-02T18:09:01Z</time>
      </trkpt>
      <trkpt lat="59.952561" lon="17.7217014">
        <ele>46.7612</ele>
        <time>2014-06-02T18:09:02Z</time>
      </trkpt>
      <trkpt lat="59.9525663" lon="17.7217548">
        <ele>47.2418</ele>
        <time>2014-06-02T18:09:03Z</time>
      </trkpt>
      <trkpt lat="59.9525743" lon="17.7218088">
        <ele>46.7612</ele>
        <time>2014-06-02T18:09:04Z</time>
      </trkpt>
      <trkpt lat="59.9525801" lon="17.7218583">
        <ele>46.2806</ele>
        <time>2014-06-02T18:09:05Z</time>
      </trkpt>
      <trkpt lat="59.9525849" lon="17.7219169">
        <ele>46.2806</ele>
        <time>2014-06-02T18:09:06Z</time>
      </trkpt>
      <trkpt lat="59.9525808" lon="17.7219744">
        <ele>45.7999</ele>
        <time>2014-06-02T18:09:07Z</time>
      </trkpt>
      <trkpt lat="59.9525721" lon="17.7220366">
        <ele>45.7999</ele>
        <time>2014-06-02T18:09:08Z</time>
      </trkpt>
      <trkpt lat="59.952559" lon="17.7221015">
        <ele>44.8386</ele>
        <time>2014-06-02T18:09:09Z</time>
      </trkpt>
      <trkpt lat="59.9525477" lon="17.7221621">
        <ele>44.358</ele>
        <time>2014-06-02T18:09:10Z</time>
      </trkpt>
      <trkpt lat="59.952535" lon="17.7222249">
        <ele>44.358</ele>
        <time>2014-06-02T18:09:11Z</time>
      </trkpt>
      <trkpt lat="59.9525191" lon="17.7222792">
        <ele>43.8773</ele>
        <time>2014-06-02T18:09:12Z</time>
      </trkpt>
      <trkpt lat="59.9525058" lon="17.72233">
        <ele>42.916</ele>
        <time>2014-06-02T18:09:13Z</time>
      </trkpt>
      <trkpt lat="59.9524869" lon="17.7223746">
        <ele>43.3966</ele>
        <time>2014-06-02T18:09:14Z</time>
      </trkpt>
      <trkpt lat="59.9524725" lon="17.7224201">
        <ele>43.3966</ele>
        <time>2014-06-02T18:09:15Z</time>
      </trkpt>
      <trkpt lat="59.95246" lon="17.7224779">
        <ele>43.3966</ele>
        <time>2014-06-02T18:09:16Z</time>
      </trkpt>
      <trkpt lat="59.9524495" lon="17.7225252">
        <ele>42.916</ele>
        <time>2014-06-02T18:09:17Z</time>
      </trkpt>
      <trkpt lat="59.9524469" lon="17.7225828">
        <ele>42.916</ele>
        <time>2014-06-02T18:09:18Z</time>
      </trkpt>
      <trkpt lat="59.9524392" lon="17.7226452">
        <ele>42.916</ele>
        <time>2014-06-02T18:09:19Z</time>
      </trkpt>
      <trkpt lat="59.9524352" lon="17.7227018">
        <ele>42.916</ele>
        <time>2014-06-02T18:09:20Z</time>
      </trkpt>
      <trkpt lat="59.9524316" lon="17.7227615">
        <ele>42.916</ele>
        <time>2014-06-02T18:09:21Z</time>
      </trkpt>
      <trkpt lat="59.9524284" lon="17.7228236">
        <ele>42.916</ele>
        <time>2014-06-02T18:09:22Z</time>
      </trkpt>
      <trkpt lat="59.9524283" lon="17.7228786">
        <ele>42.916</ele>
        <time>2014-06-02T18:09:23Z</time>
      </trkpt>
      <trkpt lat="59.9524378" lon="17.7229318">
        <ele>42.916</ele>
        <time>2014-06-02T18:09:24Z</time>
      </trkpt>
      <trkpt lat="59.9524497" lon="17.7229877">
        <ele>43.8773</ele>
        <time>2014-06-02T18:09:25Z</time>
      </trkpt>
      <trkpt lat="59.9524617" lon="17.723038">
        <ele>43.8773</ele>
        <time>2014-06-02T18:09:26Z</time>
      </trkpt>
      <trkpt lat="59.9524766" lon="17.7230909">
        <ele>43.8773</ele>
        <time>2014-06-02T18:09:27Z</time>
      </trkpt>
      <trkpt lat="59.9524915" lon="17.7231452">
        <ele>44.358</ele>
        <time>2014-06-02T18:09:28Z</time>
      </trkpt>
      <trkpt lat="59.9525024" lon="17.723198">
        <ele>44.358</ele>
        <time>2014-06-02T18:09:29Z</time>
      </trkpt>
      <trkpt lat="59.9525132" lon="17.7232437">
        <ele>43.8773</ele>
        <time>2014-06-02T18:09:30Z</time>
      </trkpt>
      <trkpt lat="59.9525222" lon="17.7233001">
        <ele>44.358</ele>
        <time>2014-06-02T18:09:31Z</time>
      </trkpt>
      <trkpt lat="59.9525288" lon="17.7233678">
        <ele>44.8386</ele>
        <time>2014-06-02T18:09:32Z</time>
      </trkpt>
      <trkpt lat="59.9525373" lon="17.723444">
        <ele>45.7999</ele>
        <time>2014-06-02T18:09:33Z</time>
      </trkpt>
      <trkpt lat="59.9525482" lon="17.7235002">
        <ele>45.7999</ele>
        <time>2014-06-02T18:09:34Z</time>
      </trkpt>
      <trkpt lat="59.9525611" lon="17.7235421">
        <ele>45.7999</ele>
        <time>2014-06-02T18:09:35Z</time>
      </trkpt>
      <trkpt lat="59.952577" lon="17.72359">
        <ele>46.2806</ele>
        <time>2014-06-02T18:09:36Z</time>
      </trkpt>
      <trkpt lat="59.9525959" lon="17.7236368">
        <ele>46.7612</ele>
        <time>2014-06-02T18:09:37Z</time>
      </trkpt>
      <trkpt lat="59.9526153" lon="17.72368">
        <ele>47.2418</ele>
        <time>2014-06-02T18:09:38Z</time>
      </trkpt>
      <trkpt lat="59.9526299" lon="17.7237332">
        <ele>47.2418</ele>
        <time>2014-06-02T18:09:39Z</time>
      </trkpt>
      <trkpt lat="59.9526496" lon="17.7237858">
        <ele>46.7612</ele>
        <time>2014-06-02T18:09:40Z</time>
      </trkpt>
      <trkpt lat="59.9526684" lon="17.7238392">
        <ele>47.2418</ele>
        <time>2014-06-02T18:09:41Z</time>
      </trkpt>
      <trkpt lat="59.9526795" lon="17.7238891">
        <ele>46.7612</ele>
        <time>2014-06-02T18:09:42Z</time>
      </trkpt>
      <trkpt lat="59.9526879" lon="17.7239383">
        <ele>47.2418</ele>
        <time>2014-06-02T18:09:43Z</time>
      </trkpt>
      <trkpt lat="59.9526838" lon="17.723992">
        <ele>46.2806</ele>
        <time>2014-06-02T18:09:44Z</time>
      </trkpt>
      <trkpt lat="59.9526724" lon="17.7240552">
        <ele>46.2806</ele>
        <time>2014-06-02T18:09:45Z</time>
      </trkpt>
      <trkpt lat="59.9526624" lon="17.7241129">
        <ele>46.2806</ele>
        <time>2014-06-02T18:09:46Z</time>
      </trkpt>
      <trkpt lat="59.9526513" lon="17.7241606">
        <ele>45.7999</ele>
        <time>2014-06-02T18:09:47Z</time>
      </trkpt>
      <trkpt lat="59.9526367" lon="17.7241979">
        <ele>46.2806</ele>
        <time>2014-06-02T18:09:48Z</time>
      </trkpt>
      <trkpt lat="59.9526181" lon="17.7242371">
        <ele>45.7999</ele>
        <time>2014-06-02T18:09:49Z</time>
      </trkpt>
      <trkpt lat="59.9525992" lon="17.7242897">
        <ele>46.7612</ele>
        <time>2014-06-02T18:09:50Z</time>
      </trkpt>
      <trkpt lat="59.9525823" lon="17.7243261">
        <ele>46.2806</ele>
        <time>2014-06-02T18:09:51Z</time>
      </trkpt>
      <trkpt lat="59.952566" lon="17.7243864">
        <ele>45.7999</ele>
        <time>2014-06-02T18:09:52Z</time>
      </trkpt>
      <trkpt lat="59.952548" lon="17.7244639">
        <ele>45.3192</ele>
        <time>2014-06-02T18:09:53Z</time>
      </trkpt>
      <trkpt lat="59.9525306" lon="17.724533">
        <ele>45.3192</ele>
        <time>2014-06-02T18:09:54Z</time>
      </trkpt>
      <trkpt lat="59.9525104" lon="17.7245719">
        <ele>44.8386</ele>
        <time>2014-06-02T18:09:55Z</time>
      </trkpt>
      <trkpt lat="59.9524861" lon="17.7246024">
        <ele>43.8773</ele>
        <time>2014-06-02T18:09:56Z</time>
      </trkpt>
      <trkpt lat="59.9524612" lon="17.7246392">
        <ele>43.8773</ele>
        <time>2014-06-02T18:09:57Z</time>
      </trkpt>
      <trkpt lat="59.9524343" lon="17.7246671">
        <ele>42.916</ele>
        <time>2014-06-02T18:09:58Z</time>
      </trkpt>
      <trkpt lat="59.9524084" lon="17.7247003">
        <ele>42.4354</ele>
        <time>2014-06-02T18:09:59Z</time>
      </trkpt>
      <trkpt lat="59.9523884" lon="17.7247309">
        <ele>42.4354</ele>
        <time>2014-06-02T18:10:00Z</time>
      </trkpt>
      <trkpt lat="59.9523694" lon="17.7247444">
        <ele>41.9547</ele>
        <time>2014-06-02T18:10:01Z</time>
      </trkpt>
      <trkpt lat="59.9523451" lon="17.7247929">
        <ele>42.4354</ele>
        <time>2014-06-02T18:10:02Z</time>
      </trkpt>
      <trkpt lat="59.9523207" lon="17.7248283">
        <ele>41.9547</ele>
        <time>2014-06-02T18:10:03Z</time>
      </trkpt>
      <trkpt lat="59.9522953" lon="17.72487">
        <ele>41.9547</ele>
        <time>2014-06-02T18:10:04Z</time>
      </trkpt>
      <trkpt lat="59.9522711" lon="17.7249121">
        <ele>41.9547</ele>
        <time>2014-06-02T18:10:05Z</time>
      </trkpt>
      <trkpt lat="59.9522511" lon="17.7249583">
        <ele>42.4354</ele>
        <time>2014-06-02T18:10:06Z</time>
      </trkpt>
      <trkpt lat="59.9522304" lon="17.724993">
        <ele>41.9547</ele>
        <time>2014-06-02T18:10:07Z</time>
      </trkpt>
      <trkpt lat="59.9522107" lon="17.7250219">
        <ele>41.9547</ele>
        <time>2014-06-02T18:10:08Z</time>
      </trkpt>
      <trkpt lat="59.9521918" lon="17.725047">
        <ele>41.474</ele>
        <time>2014-06-02T18:10:09Z</time>
      </trkpt>
      <trkpt lat="59.9521705" lon="17.725075">
        <ele>41.474</ele>
        <time>2014-06-02T18:10:10Z</time>
      </trkpt>
      <trkpt lat="59.9521513" lon="17.7251141">
        <ele>41.9547</ele>
        <time>2014-06-02T18:10:11Z</time>
      </trkpt>
      <trkpt lat="59.9521335" lon="17.7251505">
        <ele>42.4354</ele>
        <time>2014-06-02T18:10:12Z</time>
      </trkpt>
      <trkpt lat="59.9521152" lon="17.7252007">
        <ele>42.916</ele>
        <time>2014-06-02T18:10:13Z</time>
      </trkpt>
      <trkpt lat="59.9520939" lon="17.7252572">
        <ele>43.3966</ele>
        <time>2014-06-02T18:10:14Z</time>
      </trkpt>
      <trkpt lat="59.95207" lon="17.7253084">
        <ele>43.3966</ele>
        <time>2014-06-02T18:10:15Z</time>
      </trkpt>
      <trkpt lat="59.9520483" lon="17.7253568">
        <ele>44.358</ele>
        <time>2014-06-02T18:10:16Z</time>
      </trkpt>
      <trkpt lat="59.9520264" lon="17.7253899">
        <ele>44.8386</ele>
        <time>2014-06-02T18:10:17Z</time>
      </trkpt>
      <trkpt lat="59.9520014" lon="17.7254209">
        <ele>44.8386</ele>
        <time>2014-06-02T18:10:18Z</time>
      </trkpt>
      <trkpt lat="59.9519751" lon="17.7254658">
        <ele>44.8386</ele>
        <time>2014-06-02T18:10:19Z</time>
      </trkpt>
      <trkpt lat="59.9519528" lon="17.7255266">
        <ele>45.7999</ele>
        <time>2014-06-02T18:10:20Z</time>
      </trkpt>
      <trkpt lat="59.951931" lon="17.7255721">
        <ele>45.7999</ele>
        <time>2014-06-02T18:10:21Z</time>
      </trkpt>
      <trkpt lat="59.951911" lon="17.7256136">
        <ele>45.7999</ele>
        <time>2014-06-02T18:10:22Z</time>
      </trkpt>
      <trkpt lat="59.9518892" lon="17.7256554">
        <ele>46.2806</ele>
        <time>2014-06-02T18:10:23Z</time>
      </trkpt>
      <trkpt lat="59.9518664" lon="17.7256945">
        <ele>46.2806</ele>
        <time>2014-06-02T18:10:24Z</time>
      </trkpt>
      <trkpt lat="59.9518436" lon="17.725725">
        <ele>46.2806</ele>
        <time>2014-06-02T18:10:25Z</time>
      </trkpt>
      <trkpt lat="59.951826" lon="17.7257683">
        <ele>46.2806</ele>
        <time>2014-06-02T18:10:26Z</time>
      </trkpt>
      <trkpt lat="59.9518059" lon="17.7258069">
        <ele>46.2806</ele>
        <time>2014-06-02T18:10:27Z</time>
      </trkpt>
      <trkpt lat="59.9517805" lon="17.7258368">
        <ele>46.2806</ele>
        <time>2014-06-02T18:10:28Z</time>
      </trkpt>
      <trkpt lat="59.9517566" lon="17.7258569">
        <ele>46.2806</ele>
        <time>2014-06-02T18:10:29Z</time>
      </trkpt>
      <trkpt lat="59.9517317" lon="17.7258779">
        <ele>46.2806</ele>
        <time>2014-06-02T18:10:30Z</time>
      </trkpt>
      <trkpt lat="59.9517051" lon="17.7259057">
        <ele>46.2806</ele>
        <time>2014-06-02T18:10:31Z</time>
      </trkpt>
      <trkpt lat="59.951682" lon="17.7259387">
        <ele>46.2806</ele>
        <time>2014-06-02T18:10:32Z</time>
      </trkpt>
      <trkpt lat="59.9516597" lon="17.7259784">
        <ele>46.2806</ele>
        <time>2014-06-02T18:10:33Z</time>
      </trkpt>
      <trkpt lat="59.9516369" lon="17.7260182">
        <ele>46.2806</ele>
        <time>2014-06-02T18:10:34Z</time>
      </trkpt>
      <trkpt lat="59.9516142" lon="17.7260625">
        <ele>46.2806</ele>
        <time>2014-06-02T18:10:35Z</time>
      </trkpt>
      <trkpt lat="59.9515934" lon="17.7260922">
        <ele>46.2806</ele>
        <time>2014-06-02T18:10:36Z</time>
      </trkpt>
      <trkpt lat="59.9515764" lon="17.7261238">
        <ele>46.2806</ele>
        <time>2014-06-02T18:10:37Z</time>
      </trkpt>
      <trkpt lat="59.9515603" lon="17.726164">
        <ele>46.2806</ele>
        <time>2014-06-02T18:10:38Z</time>
      </trkpt>
      <trkpt lat="59.9515453" lon="17.7261973">
        <ele>46.7612</ele>
        <time>2014-06-02T18:10:39Z</time>
      </trkpt>
      <trkpt lat="59.9515344" lon="17.7261844">
        <ele>46.7612</ele>
        <time>2014-06-02T18:10:40Z</time>
      </trkpt>
      <trkpt lat="59.9515275" lon="17.7261979">
        <ele>47.7225</ele>
        <time>2014-06-02T18:10:41Z</time>
      </trkpt>
      <trkpt lat="59.9515126" lon="17.726251">
        <ele>48.2034</ele>
        <time>2014-06-02T18:10:42Z</time>
      </trkpt>
      <trkpt lat="59.9514977" lon="17.7263071">
        <ele>48.684</ele>
        <time>2014-06-02T18:10:43Z</time>
      </trkpt>
      <trkpt lat="59.9514881" lon="17.7263702">
        <ele>49.1646</ele>
        <time>2014-06-02T18:10:44Z</time>
      </trkpt>
      <trkpt lat="59.9514764" lon="17.7264319">
        <ele>49.6453</ele>
        <time>2014-06-02T18:10:45Z</time>
      </trkpt>
      <trkpt lat="59.9514615" lon="17.7264772">
        <ele>49.6453</ele>
        <time>2014-06-02T18:10:46Z</time>
      </trkpt>
      <trkpt lat="59.9514437" lon="17.726532">
        <ele>50.6066</ele>
        <time>2014-06-02T18:10:47Z</time>
      </trkpt>
      <trkpt lat="59.9514312" lon="17.7265797">
        <ele>50.6066</ele>
        <time>2014-06-02T18:10:48Z</time>
      </trkpt>
      <trkpt lat="59.9514213" lon="17.7266412">
        <ele>51.0872</ele>
        <time>2014-06-02T18:10:49Z</time>
      </trkpt>
      <trkpt lat="59.9514163" lon="17.7266862">
        <ele>51.0872</ele>
        <time>2014-06-02T18:10:50Z</time>
      </trkpt>
      <trkpt lat="59.9514137" lon="17.7267418">
        <ele>50.6066</ele>
        <time>2014-06-02T18:10:51Z</time>
      </trkpt>
      <trkpt lat="59.9514128" lon="17.7268025">
        <ele>51.0872</ele>
        <time>2014-06-02T18:10:52Z</time>
      </trkpt>
      <trkpt lat="59.9514173" lon="17.7268535">
        <ele>50.6066</ele>
        <time>2014-06-02T18:10:53Z</time>
      </trkpt>
      <trkpt lat="59.9514271" lon="17.7269105">
        <ele>50.6066</ele>
        <time>2014-06-02T18:10:54Z</time>
      </trkpt>
      <trkpt lat="59.951436" lon="17.7269656">
        <ele>50.6066</ele>
        <time>2014-06-02T18:10:55Z</time>
      </trkpt>
      <trkpt lat="59.9514464" lon="17.7270177">
        <ele>51.0872</ele>
        <time>2014-06-02T18:10:56Z</time>
      </trkpt>
      <trkpt lat="59.9514608" lon="17.7270623">
        <ele>51.0872</ele>
        <time>2014-06-02T18:10:57Z</time>
      </trkpt>
      <trkpt lat="59.9514682" lon="17.7271086">
        <ele>51.0872</ele>
        <time>2014-06-02T18:10:58Z</time>
      </trkpt>
      <trkpt lat="59.9514717" lon="17.7271591">
        <ele>50.6066</ele>
        <time>2014-06-02T18:10:59Z</time>
      </trkpt>
      <trkpt lat="59.9514783" lon="17.7272116">
        <ele>50.6066</ele>
        <time>2014-06-02T18:11:00Z</time>
      </trkpt>
      <trkpt lat="59.9514801" lon="17.7272718">
        <ele>50.126</ele>
        <time>2014-06-02T18:11:01Z</time>
      </trkpt>
      <trkpt lat="59.951486" lon="17.7273385">
        <ele>50.126</ele>
        <time>2014-06-02T18:11:02Z</time>
      </trkpt>
      <trkpt lat="59.9514945" lon="17.7274011">
        <ele>50.6066</ele>
        <time>2014-06-02T18:11:03Z</time>
      </trkpt>
      <trkpt lat="59.9515013" lon="17.7274554">
        <ele>49.6453</ele>
        <time>2014-06-02T18:11:04Z</time>
      </trkpt>
      <trkpt lat="59.951508" lon="17.7275094">
        <ele>49.6453</ele>
        <time>2014-06-02T18:11:05Z</time>
      </trkpt>
      <trkpt lat="59.9515107" lon="17.7275653">
        <ele>48.684</ele>
        <time>2014-06-02T18:11:06Z</time>
      </trkpt>
      <trkpt lat="59.9515194" lon="17.727625">
        <ele>48.2034</ele>
        <time>2014-06-02T18:11:07Z</time>
      </trkpt>
      <trkpt lat="59.951534" lon="17.7276688">
        <ele>47.2418</ele>
        <time>2014-06-02T18:11:08Z</time>
      </trkpt>
      <trkpt lat="59.9515537" lon="17.7277119">
        <ele>46.7612</ele>
        <time>2014-06-02T18:11:09Z</time>
      </trkpt>
      <trkpt lat="59.9515753" lon="17.727756">
        <ele>46.2806</ele>
        <time>2014-06-02T18:11:10Z</time>
      </trkpt>
      <trkpt lat="59.951595" lon="17.7277902">
        <ele>46.2806</ele>
        <time>2014-06-02T18:11:11Z</time>
      </trkpt>
      <trkpt lat="59.9516205" lon="17.7278219">
        <ele>46.7612</ele>
        <time>2014-06-02T18:11:12Z</time>
      </trkpt>
      <trkpt lat="59.9516473" lon="17.7278489">
        <ele>46.7612</ele>
        <time>2014-06-02T18:11:13Z</time>
      </trkpt>
      <trkpt lat="59.9516711" lon="17.7278698">
        <ele>46.2806</ele>
        <time>2014-06-02T18:11:14Z</time>
      </trkpt>
      <trkpt lat="59.9516984" lon="17.7278875">
        <ele>46.2806</ele>
        <time>2014-06-02T18:11:15Z</time>
      </trkpt>
      <trkpt lat="59.9517193" lon="17.7278959">
        <ele>45.3192</ele>
        <time>2014-06-02T18:11:16Z</time>
      </trkpt>
      <trkpt lat="59.9517389" lon="17.7278964">
        <ele>44.8386</ele>
        <time>2014-06-02T18:11:17Z</time>
      </trkpt>
      <trkpt lat="59.9517505" lon="17.7278969">
        <ele>44.358</ele>
        <time>2014-06-02T18:11:18Z</time>
      </trkpt>
      <trkpt lat="59.9517655" lon="17.7278949">
        <ele>43.3966</ele>
        <time>2014-06-02T18:11:19Z</time>
      </trkpt>
      <trkpt lat="59.9517882" lon="17.7278813">
        <ele>42.916</ele>
        <time>2014-06-02T18:11:20Z</time>
      </trkpt>
      <trkpt lat="59.951811" lon="17.7278683">
        <ele>41.9547</ele>
        <time>2014-06-02T18:11:21Z</time>
      </trkpt>
      <trkpt lat="59.9518338" lon="17.7278429">
        <ele>41.474</ele>
        <time>2014-06-02T18:11:22Z</time>
      </trkpt>
      <trkpt lat="59.9518556" lon="17.7278075">
        <ele>40.5128</ele>
        <time>2014-06-02T18:11:23Z</time>
      </trkpt>
      <trkpt lat="59.951871" lon="17.7277712">
        <ele>39.5513</ele>
        <time>2014-06-02T18:11:24Z</time>
      </trkpt>
      <trkpt lat="59.9518851" lon="17.7277214">
        <ele>39.0707</ele>
        <time>2014-06-02T18:11:25Z</time>
      </trkpt>
      <trkpt lat="59.9519089" lon="17.7276669">
        <ele>40.5128</ele>
        <time>2014-06-02T18:11:26Z</time>
      </trkpt>
      <trkpt lat="59.9519208" lon="17.7276204">
        <ele>40.5128</ele>
        <time>2014-06-02T18:11:27Z</time>
      </trkpt>
      <trkpt lat="59.9519332" lon="17.7275645">
        <ele>40.5128</ele>
        <time>2014-06-02T18:11:28Z</time>
      </trkpt>
      <trkpt lat="59.9519536" lon="17.7275104">
        <ele>40.0321</ele>
        <time>2014-06-02T18:11:29Z</time>
      </trkpt>
      <trkpt lat="59.9519711" lon="17.7274567">
        <ele>39.0707</ele>
        <time>2014-06-02T18:11:30Z</time>
      </trkpt>
      <trkpt lat="59.951981" lon="17.727396">
        <ele>39.0707</ele>
        <time>2014-06-02T18:11:31Z</time>
      </trkpt>
      <trkpt lat="59.9519939" lon="17.7273422">
        <ele>39.5513</ele>
        <time>2014-06-02T18:11:32Z</time>
      </trkpt>
      <trkpt lat="59.9520104" lon="17.7272894">
        <ele>40.0321</ele>
        <time>2014-06-02T18:11:33Z</time>
      </trkpt>
      <trkpt lat="59.952026" lon="17.7272395">
        <ele>39.5513</ele>
        <time>2014-06-02T18:11:34Z</time>
      </trkpt>
      <trkpt lat="59.9520399" lon="17.7271905">
        <ele>40.0321</ele>
        <time>2014-06-02T18:11:35Z</time>
      </trkpt>
      <trkpt lat="59.9520491" lon="17.7271397">
        <ele>40.0321</ele>
        <time>2014-06-02T18:11:36Z</time>
      </trkpt>
      <trkpt lat="59.9520566" lon="17.7270892">
        <ele>40.5128</ele>
        <time>2014-06-02T18:11:37Z</time>
      </trkpt>
      <trkpt lat="59.95207" lon="17.7270317">
        <ele>41.474</ele>
        <time>2014-06-02T18:11:38Z</time>
      </trkpt>
      <trkpt lat="59.9520774" lon="17.7269713">
        <ele>41.474</ele>
        <time>2014-06-02T18:11:39Z</time>
      </trkpt>
      <trkpt lat="59.9520817" lon="17.7269282">
        <ele>41.474</ele>
        <time>2014-06-02T18:11:40Z</time>
      </trkpt>
      <trkpt lat="59.9520922" lon="17.7268755">
        <ele>42.4354</ele>
        <time>2014-06-02T18:11:41Z</time>
      </trkpt>
      <trkpt lat="59.9520996" lon="17.7268212">
        <ele>43.3966</ele>
        <time>2014-06-02T18:11:42Z</time>
      </trkpt>
      <trkpt lat="59.952099" lon="17.7267628">
        <ele>42.916</ele>
        <time>2014-06-02T18:11:43Z</time>
      </trkpt>
      <trkpt lat="59.9521043" lon="17.7267024">
        <ele>42.4354</ele>
        <time>2014-06-02T18:11:44Z</time>
      </trkpt>
      <trkpt lat="59.9521177" lon="17.7266486">
        <ele>42.916</ele>
        <time>2014-06-02T18:11:45Z</time>
      </trkpt>
      <trkpt lat="59.9521335" lon="17.7266045">
        <ele>42.916</ele>
        <time>2014-06-02T18:11:46Z</time>
      </trkpt>
      <trkpt lat="59.9521425" lon="17.726557">
        <ele>41.9547</ele>
        <time>2014-06-02T18:11:47Z</time>
      </trkpt>
      <trkpt lat="59.9521508" lon="17.7265067">
        <ele>41.9547</ele>
        <time>2014-06-02T18:11:48Z</time>
      </trkpt>
      <trkpt lat="59.9521612" lon="17.7264562">
        <ele>41.474</ele>
        <time>2014-06-02T18:11:49Z</time>
      </trkpt>
      <trkpt lat="59.9521752" lon="17.7264077">
        <ele>40.5128</ele>
        <time>2014-06-02T18:11:50Z</time>
      </trkpt>
      <trkpt lat="59.9521892" lon="17.7263642">
        <ele>40.5128</ele>
        <time>2014-06-02T18:11:51Z</time>
      </trkpt>
      <trkpt lat="59.9522001" lon="17.7263201">
        <ele>39.5513</ele>
        <time>2014-06-02T18:11:52Z</time>
      </trkpt>
      <trkpt lat="59.9522144" lon="17.7262766">
        <ele>39.5513</ele>
        <time>2014-06-02T18:11:53Z</time>
      </trkpt>
      <trkpt lat="59.9522319" lon="17.7262365">
        <ele>40.0321</ele>
        <time>2014-06-02T18:11:54Z</time>
      </trkpt>
      <trkpt lat="59.9522462" lon="17.7261938">
        <ele>39.5513</ele>
        <time>2014-06-02T18:11:55Z</time>
      </trkpt>
      <trkpt lat="59.9522613" lon="17.7261449">
        <ele>39.5513</ele>
        <time>2014-06-02T18:11:56Z</time>
      </trkpt>
      <trkpt lat="59.9522776" lon="17.7260979">
        <ele>39.5513</ele>
        <time>2014-06-02T18:11:57Z</time>
      </trkpt>
      <trkpt lat="59.9522907" lon="17.7260512">
        <ele>39.0707</ele>
        <time>2014-06-02T18:11:58Z</time>
      </trkpt>
      <trkpt lat="59.9523073" lon="17.7260027">
        <ele>38.5901</ele>
        <time>2014-06-02T18:11:59Z</time>
      </trkpt>
      <trkpt lat="59.9523234" lon="17.7259682">
        <ele>37.6287</ele>
        <time>2014-06-02T18:12:00Z</time>
      </trkpt>
      <trkpt lat="59.9523373" lon="17.7259322">
        <ele>36.6675</ele>
        <time>2014-06-02T18:12:01Z</time>
      </trkpt>
      <trkpt lat="59.9523574" lon="17.7258907">
        <ele>36.1868</ele>
        <time>2014-06-02T18:12:02Z</time>
      </trkpt>
      <trkpt lat="59.9523698" lon="17.7258483">
        <ele>34.7449</ele>
        <time>2014-06-02T18:12:03Z</time>
      </trkpt>
      <trkpt lat="59.9524019" lon="17.7258027">
        <ele>36.6675</ele>
        <time>2014-06-02T18:12:04Z</time>
      </trkpt>
      <trkpt lat="59.9524321" lon="17.7257643">
        <ele>38.1094</ele>
        <time>2014-06-02T18:12:05Z</time>
      </trkpt>
      <trkpt lat="59.9524648" lon="17.7257255">
        <ele>40.0321</ele>
        <time>2014-06-02T18:12:06Z</time>
      </trkpt>
      <trkpt lat="59.9524935" lon="17.7256835">
        <ele>41.474</ele>
        <time>2014-06-02T18:12:07Z</time>
      </trkpt>
      <trkpt lat="59.9525267" lon="17.7256379">
        <ele>42.4354</ele>
        <time>2014-06-02T18:12:08Z</time>
      </trkpt>
      <trkpt lat="59.9525507" lon="17.7255996">
        <ele>43.8773</ele>
        <time>2014-06-02T18:12:09Z</time>
      </trkpt>
      <trkpt lat="59.9525607" lon="17.7255807">
        <ele>42.916</ele>
        <time>2014-06-02T18:12:10Z</time>
      </trkpt>
      <trkpt lat="59.9525769" lon="17.7255497">
        <ele>42.916</ele>
        <time>2014-06-02T18:12:11Z</time>
      </trkpt>
      <trkpt lat="59.9525984" lon="17.7255162">
        <ele>43.3966</ele>
        <time>2014-06-02T18:12:12Z</time>
      </trkpt>
      <trkpt lat="59.9526267" lon="17.7254757">
        <ele>45.3192</ele>
        <time>2014-06-02T18:12:13Z</time>
      </trkpt>
      <trkpt lat="59.9526497" lon="17.7254379">
        <ele>45.7999</ele>
        <time>2014-06-02T18:12:14Z</time>
      </trkpt>
      <trkpt lat="59.9526766" lon="17.7254095">
        <ele>46.2806</ele>
        <time>2014-06-02T18:12:15Z</time>
      </trkpt>
      <trkpt lat="59.9527008" lon="17.7253767">
        <ele>47.2418</ele>
        <time>2014-06-02T18:12:16Z</time>
      </trkpt>
      <trkpt lat="59.9527194" lon="17.7253384">
        <ele>47.7225</ele>
        <time>2014-06-02T18:12:17Z</time>
      </trkpt>
      <trkpt lat="59.9527288" lon="17.7252998">
        <ele>47.2418</ele>
        <time>2014-06-02T18:12:18Z</time>
      </trkpt>
      <trkpt lat="59.9527427" lon="17.7252708">
        <ele>46.7612</ele>
        <time>2014-06-02T18:12:19Z</time>
      </trkpt>
      <trkpt lat="59.9527619" lon="17.7252487">
        <ele>46.7612</ele>
        <time>2014-06-02T18:12:20Z</time>
      </trkpt>
      <trkpt lat="59.9527769" lon="17.7252215">
        <ele>46.7612</ele>
        <time>2014-06-02T18:12:21Z</time>
      </trkpt>
      <trkpt lat="59.9527929" lon="17.7251785">
        <ele>46.7612</ele>
        <time>2014-06-02T18:12:22Z</time>
      </trkpt>
      <trkpt lat="59.9528124" lon="17.7251453">
        <ele>46.7612</ele>
        <time>2014-06-02T18:12:23Z</time>
      </trkpt>
      <trkpt lat="59.9528331" lon="17.7251154">
        <ele>47.7225</ele>
        <time>2014-06-02T18:12:24Z</time>
      </trkpt>
      <trkpt lat="59.9528495" lon="17.7250941">
        <ele>48.2034</ele>
        <time>2014-06-02T18:12:25Z</time>
      </trkpt>
      <trkpt lat="59.9528766" lon="17.7250619">
        <ele>49.6453</ele>
        <time>2014-06-02T18:12:26Z</time>
      </trkpt>
      <trkpt lat="59.95291" lon="17.725027">
        <ele>51.5679</ele>
        <time>2014-06-02T18:12:27Z</time>
      </trkpt>
      <trkpt lat="59.9529418" lon="17.7249845">
        <ele>52.5292</ele>
        <time>2014-06-02T18:12:28Z</time>
      </trkpt>
      <trkpt lat="59.9529694" lon="17.7249382">
        <ele>53.4905</ele>
        <time>2014-06-02T18:12:29Z</time>
      </trkpt>
      <trkpt lat="59.9529911" lon="17.7249012">
        <ele>53.4905</ele>
        <time>2014-06-02T18:12:30Z</time>
      </trkpt>
      <trkpt lat="59.9530136" lon="17.7248603">
        <ele>53.4905</ele>
        <time>2014-06-02T18:12:31Z</time>
      </trkpt>
      <trkpt lat="59.9530426" lon="17.724826">
        <ele>53.9712</ele>
        <time>2014-06-02T18:12:32Z</time>
      </trkpt>
      <trkpt lat="59.9530657" lon="17.7247951">
        <ele>54.4518</ele>
        <time>2014-06-02T18:12:33Z</time>
      </trkpt>
      <trkpt lat="59.9530806" lon="17.7247537">
        <ele>54.9324</ele>
        <time>2014-06-02T18:12:34Z</time>
      </trkpt>
      <trkpt lat="59.9530916" lon="17.7247096">
        <ele>54.9324</ele>
        <time>2014-06-02T18:12:35Z</time>
      </trkpt>
      <trkpt lat="59.9531131" lon="17.7246754">
        <ele>54.9324</ele>
        <time>2014-06-02T18:12:36Z</time>
      </trkpt>
      <trkpt lat="59.9531423" lon="17.7246387">
        <ele>56.3745</ele>
        <time>2014-06-02T18:12:37Z</time>
      </trkpt>
      <trkpt lat="59.9531714" lon="17.7245974">
        <ele>58.2971</ele>
        <time>2014-06-02T18:12:38Z</time>
      </trkpt>
      <trkpt lat="59.9532049" lon="17.7245506">
        <ele>60.7003</ele>
        <time>2014-06-02T18:12:39Z</time>
      </trkpt>
      <trkpt lat="59.9532287" lon="17.7245015">
        <ele>61.181</ele>
        <time>2014-06-02T18:12:40Z</time>
      </trkpt>
      <trkpt lat="59.9532503" lon="17.7244543">
        <ele>61.6617</ele>
        <time>2014-06-02T18:12:41Z</time>
      </trkpt>
      <trkpt lat="59.9532736" lon="17.7244034">
        <ele>62.1423</ele>
        <time>2014-06-02T18:12:42Z</time>
      </trkpt>
      <trkpt lat="59.9532897" lon="17.7243548">
        <ele>62.6229</ele>
        <time>2014-06-02T18:12:43Z</time>
      </trkpt>
      <trkpt lat="59.9533018" lon="17.7243117">
        <ele>62.1423</ele>
        <time>2014-06-02T18:12:44Z</time>
      </trkpt>
      <trkpt lat="59.9533203" lon="17.7242741">
        <ele>62.1423</ele>
        <time>2014-06-02T18:12:45Z</time>
      </trkpt>
      <trkpt lat="59.9533369" lon="17.7242465">
        <ele>62.1423</ele>
        <time>2014-06-02T18:12:46Z</time>
      </trkpt>
      <trkpt lat="59.9533573" lon="17.7242129">
        <ele>63.1036</ele>
        <time>2014-06-02T18:12:47Z</time>
      </trkpt>
      <trkpt lat="59.9533749" lon="17.724172">
        <ele>63.5844</ele>
        <time>2014-06-02T18:12:48Z</time>
      </trkpt>
      <trkpt lat="59.9533919" lon="17.724134">
        <ele>63.1036</ele>
        <time>2014-06-02T18:12:49Z</time>
      </trkpt>
      <trkpt lat="59.9534075" lon="17.7240953">
        <ele>62.6229</ele>
        <time>2014-06-02T18:12:50Z</time>
      </trkpt>
      <trkpt lat="59.9534257" lon="17.7240632">
        <ele>62.6229</ele>
        <time>2014-06-02T18:12:51Z</time>
      </trkpt>
      <trkpt lat="59.9534339" lon="17.7240227">
        <ele>62.6229</ele>
        <time>2014-06-02T18:12:52Z</time>
      </trkpt>
      <trkpt lat="59.9534479" lon="17.7239745">
        <ele>63.1036</ele>
        <time>2014-06-02T18:12:53Z</time>
      </trkpt>
      <trkpt lat="59.9534707" lon="17.7239348">
        <ele>63.5844</ele>
        <time>2014-06-02T18:12:54Z</time>
      </trkpt>
      <trkpt lat="59.9534915" lon="17.7238941">
        <ele>64.0651</ele>
        <time>2014-06-02T18:12:55Z</time>
      </trkpt>
      <trkpt lat="59.9535146" lon="17.7238519">
        <ele>65.0264</ele>
        <time>2014-06-02T18:12:56Z</time>
      </trkpt>
      <trkpt lat="59.9535306" lon="17.7238183">
        <ele>66.4683</ele>
        <time>2014-06-02T18:12:57Z</time>
      </trkpt>
      <trkpt lat="59.9535431" lon="17.7237765">
        <ele>65.9877</ele>
        <time>2014-06-02T18:12:58Z</time>
      </trkpt>
      <trkpt lat="59.9535681" lon="17.7237519">
        <ele>66.4683</ele>
        <time>2014-06-02T18:12:59Z</time>
      </trkpt>
      <trkpt lat="59.9535891" lon="17.7237113">
        <ele>66.4683</ele>
        <time>2014-06-02T18:13:00Z</time>
      </trkpt>
      <trkpt lat="59.9536043" lon="17.7236574">
        <ele>65.9877</ele>
        <time>2014-06-02T18:13:01Z</time>
      </trkpt>
      <trkpt lat="59.9536262" lon="17.7236181">
        <ele>65.5071</ele>
        <time>2014-06-02T18:13:02Z</time>
      </trkpt>
      <trkpt lat="59.9536459" lon="17.7235981">
        <ele>65.9877</ele>
        <time>2014-06-02T18:13:03Z</time>
      </trkpt>
      <trkpt lat="59.9536603" lon="17.7235731">
        <ele>65.5071</ele>
        <time>2014-06-02T18:13:04Z</time>
      </trkpt>
      <trkpt lat="59.9536862" lon="17.723552">
        <ele>65.0264</ele>
        <time>2014-06-02T18:13:05Z</time>
      </trkpt>
      <trkpt lat="59.9537136" lon="17.7235193">
        <ele>65.0264</ele>
        <time>2014-06-02T18:13:06Z</time>
      </trkpt>
      <trkpt lat="59.953734" lon="17.723484">
        <ele>64.0651</ele>
        <time>2014-06-02T18:13:07Z</time>
      </trkpt>
      <trkpt lat="59.9537629" lon="17.7234584">
        <ele>64.0651</ele>
        <time>2014-06-02T18:13:08Z</time>
      </trkpt>
      <trkpt lat="59.9537934" lon="17.7234385">
        <ele>65.0264</ele>
        <time>2014-06-02T18:13:09Z</time>
      </trkpt>
      <trkpt lat="59.953822" lon="17.7234163">
        <ele>65.9877</ele>
        <time>2014-06-02T18:13:10Z</time>
      </trkpt>
      <trkpt lat="59.9538517" lon="17.7233927">
        <ele>66.949</ele>
        <time>2014-06-02T18:13:11Z</time>
      </trkpt>
      <trkpt lat="59.9538861" lon="17.723354">
        <ele>68.3909</ele>
        <time>2014-06-02T18:13:12Z</time>
      </trkpt>
      <trkpt lat="59.9539056" lon="17.7233183">
        <ele>68.3909</ele>
        <time>2014-06-02T18:13:13Z</time>
      </trkpt>
      <trkpt lat="59.9539238" lon="17.7232992">
        <ele>68.3909</ele>
        <time>2014-06-02T18:13:14Z</time>
      </trkpt>
      <trkpt lat="59.9539535" lon="17.7232946">
        <ele>70.3135</ele>
        <time>2014-06-02T18:13:15Z</time>
      </trkpt>
      <trkpt lat="59.9539758" lon="17.7232816">
        <ele>70.7942</ele>
        <time>2014-06-02T18:13:16Z</time>
      </trkpt>
      <trkpt lat="59.9540033" lon="17.7232541">
        <ele>71.2749</ele>
        <time>2014-06-02T18:13:17Z</time>
      </trkpt>
      <trkpt lat="59.9540336" lon="17.723241">
        <ele>72.2362</ele>
        <time>2014-06-02T18:13:18Z</time>
      </trkpt>
      <trkpt lat="59.9540633" lon="17.7232219">
        <ele>73.1976</ele>
        <time>2014-06-02T18:13:19Z</time>
      </trkpt>
      <trkpt lat="59.9540857" lon="17.7232096">
        <ele>73.1976</ele>
        <time>2014-06-02T18:13:20Z</time>
      </trkpt>
      <trkpt lat="59.9541157" lon="17.7231996">
        <ele>73.6782</ele>
        <time>2014-06-02T18:13:21Z</time>
      </trkpt>
      <trkpt lat="59.9541491" lon="17.7231865">
        <ele>74.1588</ele>
        <time>2014-06-02T18:13:22Z</time>
      </trkpt>
      <trkpt lat="59.9541726" lon="17.7231753">
        <ele>74.6395</ele>
        <time>2014-06-02T18:13:23Z</time>
      </trkpt>
      <trkpt lat="59.9541928" lon="17.7231701">
        <ele>74.6395</ele>
        <time>2014-06-02T18:13:24Z</time>
      </trkpt>
      <trkpt lat="59.9542149" lon="17.7231733">
        <ele>74.6395</ele>
        <time>2014-06-02T18:13:25Z</time>
      </trkpt>
      <trkpt lat="59.954243" lon="17.7231792">
        <ele>74.6395</ele>
        <time>2014-06-02T18:13:26Z</time>
      </trkpt>
      <trkpt lat="59.9542654" lon="17.7231851">
        <ele>73.6782</ele>
        <time>2014-06-02T18:13:27Z</time>
      </trkpt>
      <trkpt lat="59.9542998" lon="17.7231963">
        <ele>74.1588</ele>
        <time>2014-06-02T18:13:28Z</time>
      </trkpt>
      <trkpt lat="59.954329" lon="17.7232158">
        <ele>74.1588</ele>
        <time>2014-06-02T18:13:29Z</time>
      </trkpt>
      <trkpt lat="59.9543623" lon="17.7232265">
        <ele>74.6395</ele>
        <time>2014-06-02T18:13:30Z</time>
      </trkpt>
      <trkpt lat="59.9544078" lon="17.7232406">
        <ele>78.004</ele>
        <time>2014-06-02T18:13:31Z</time>
      </trkpt>
      <trkpt lat="59.9544678" lon="17.7232477">
        <ele>83.2914</ele>
        <time>2014-06-02T18:13:32Z</time>
      </trkpt>
      <trkpt lat="59.954513" lon="17.7232516">
        <ele>85.214</ele>
        <time>2014-06-02T18:13:33Z</time>
      </trkpt>
      <trkpt lat="59.9545543" lon="17.7232648">
        <ele>87.6172</ele>
        <time>2014-06-02T18:13:34Z</time>
      </trkpt>
      <trkpt lat="59.9545806" lon="17.7232849">
        <ele>88.098</ele>
        <time>2014-06-02T18:13:35Z</time>
      </trkpt>
      <trkpt lat="59.9546062" lon="17.7233068">
        <ele>87.6172</ele>
        <time>2014-06-02T18:13:36Z</time>
      </trkpt>
      <trkpt lat="59.9546233" lon="17.7233303">
        <ele>87.1366</ele>
        <time>2014-06-02T18:13:37Z</time>
      </trkpt>
      <trkpt lat="59.9546518" lon="17.7233466">
        <ele>88.098</ele>
        <time>2014-06-02T18:13:38Z</time>
      </trkpt>
      <trkpt lat="59.9546776" lon="17.723365">
        <ele>88.098</ele>
        <time>2014-06-02T18:13:39Z</time>
      </trkpt>
      <trkpt lat="59.9547026" lon="17.7233835">
        <ele>88.5787</ele>
        <time>2014-06-02T18:13:40Z</time>
      </trkpt>
      <trkpt lat="59.9547284" lon="17.7234011">
        <ele>88.5787</ele>
        <time>2014-06-02T18:13:41Z</time>
      </trkpt>
      <trkpt lat="59.954759" lon="17.7234206">
        <ele>88.5787</ele>
        <time>2014-06-02T18:13:42Z</time>
      </trkpt>
      <trkpt lat="59.9547942" lon="17.723427">
        <ele>88.5787</ele>
        <time>2014-06-02T18:13:43Z</time>
      </trkpt>
      <trkpt lat="59.9548257" lon="17.7234429">
        <ele>88.5787</ele>
        <time>2014-06-02T18:13:44Z</time>
      </trkpt>
      <trkpt lat="59.9548564" lon="17.7234478">
        <ele>88.5787</ele>
        <time>2014-06-02T18:13:45Z</time>
      </trkpt>
      <trkpt lat="59.9548852" lon="17.7234556">
        <ele>88.5787</ele>
        <time>2014-06-02T18:13:46Z</time>
      </trkpt>
      <trkpt lat="59.9549118" lon="17.7234645">
        <ele>87.6172</ele>
        <time>2014-06-02T18:13:47Z</time>
      </trkpt>
      <trkpt lat="59.9549427" lon="17.7234763">
        <ele>87.1366</ele>
        <time>2014-06-02T18:13:48Z</time>
      </trkpt>
      <trkpt lat="59.9549603" lon="17.7235032">
        <ele>85.6946</ele>
        <time>2014-06-02T18:13:49Z</time>
      </trkpt>
      <trkpt lat="59.9549846" lon="17.7235348">
        <ele>84.2527</ele>
        <time>2014-06-02T18:13:50Z</time>
      </trkpt>
      <trkpt lat="59.9550014" lon="17.7235674">
        <ele>82.8108</ele>
        <time>2014-06-02T18:13:51Z</time>
      </trkpt>
      <trkpt lat="59.9550226" lon="17.723581">
        <ele>81.8494</ele>
        <time>2014-06-02T18:13:52Z</time>
      </trkpt>
      <trkpt lat="59.9550423" lon="17.7236009">
        <ele>81.3688</ele>
        <time>2014-06-02T18:13:53Z</time>
      </trkpt>
      <trkpt lat="59.9550563" lon="17.7236156">
        <ele>79.446</ele>
        <time>2014-06-02T18:13:54Z</time>
      </trkpt>
      <trkpt lat="59.9550746" lon="17.7236238">
        <ele>78.004</ele>
        <time>2014-06-02T18:13:55Z</time>
      </trkpt>
      <trkpt lat="59.9550868" lon="17.7236114">
        <ele>76.5621</ele>
        <time>2014-06-02T18:13:56Z</time>
      </trkpt>
      <trkpt lat="59.9551034" lon="17.7235895">
        <ele>75.1202</ele>
        <time>2014-06-02T18:13:57Z</time>
      </trkpt>
      <trkpt lat="59.9551221" lon="17.7235662">
        <ele>73.6782</ele>
        <time>2014-06-02T18:13:58Z</time>
      </trkpt>
      <trkpt lat="59.9551392" lon="17.7235379">
        <ele>72.2362</ele>
        <time>2014-06-02T18:13:59Z</time>
      </trkpt>
      <trkpt lat="59.9551557" lon="17.7235058">
        <ele>70.7942</ele>
        <time>2014-06-02T18:14:00Z</time>
      </trkpt>
      <trkpt lat="59.9551663" lon="17.72348">
        <ele>69.3523</ele>
        <time>2014-06-02T18:14:01Z</time>
      </trkpt>
      <trkpt lat="59.9551849" lon="17.7234628">
        <ele>68.3909</ele>
        <time>2014-06-02T18:14:02Z</time>
      </trkpt>
      <trkpt lat="59.955202" lon="17.7234416">
        <ele>68.3909</ele>
        <time>2014-06-02T18:14:03Z</time>
      </trkpt>
      <trkpt lat="59.955217" lon="17.7234323">
        <ele>67.4297</ele>
        <time>2014-06-02T18:14:04Z</time>
      </trkpt>
      <trkpt lat="59.9552367" lon="17.7234246">
        <ele>66.949</ele>
        <time>2014-06-02T18:14:05Z</time>
      </trkpt>
      <trkpt lat="59.9552568" lon="17.7234123">
        <ele>67.4297</ele>
        <time>2014-06-02T18:14:06Z</time>
      </trkpt>
      <trkpt lat="59.9552754" lon="17.7233992">
        <ele>66.949</ele>
        <time>2014-06-02T18:14:07Z</time>
      </trkpt>
      <trkpt lat="59.9553087" lon="17.723378">
        <ele>67.4297</ele>
        <time>2014-06-02T18:14:08Z</time>
      </trkpt>
      <trkpt lat="59.9553412" lon="17.7233645">
        <ele>67.9103</ele>
        <time>2014-06-02T18:14:09Z</time>
      </trkpt>
      <trkpt lat="59.9553754" lon="17.7233567">
        <ele>67.9103</ele>
        <time>2014-06-02T18:14:10Z</time>
      </trkpt>
      <trkpt lat="59.9554065" lon="17.7233509">
        <ele>67.9103</ele>
        <time>2014-06-02T18:14:11Z</time>
      </trkpt>
      <trkpt lat="59.9554309" lon="17.7233494">
        <ele>66.949</ele>
        <time>2014-06-02T18:14:12Z</time>
      </trkpt>
      <trkpt lat="59.9554552" lon="17.723354">
        <ele>65.9877</ele>
        <time>2014-06-02T18:14:13Z</time>
      </trkpt>
      <trkpt lat="59.955479" lon="17.7233582">
        <ele>65.0264</ele>
        <time>2014-06-02T18:14:14Z</time>
      </trkpt>
      <trkpt lat="59.9555037" lon="17.7233669">
        <ele>65.0264</ele>
        <time>2014-06-02T18:14:15Z</time>
      </trkpt>
      <trkpt lat="59.9555251" lon="17.7233887">
        <ele>64.0651</ele>
        <time>2014-06-02T18:14:16Z</time>
      </trkpt>
      <trkpt lat="59.955552" lon="17.7234075">
        <ele>64.5457</ele>
        <time>2014-06-02T18:14:17Z</time>
      </trkpt>
      <trkpt lat="59.9555765" lon="17.7234327">
        <ele>64.5457</ele>
        <time>2014-06-02T18:14:18Z</time>
      </trkpt>
      <trkpt lat="59.9556064" lon="17.7234509">
        <ele>64.0651</ele>
        <time>2014-06-02T18:14:19Z</time>
      </trkpt>
      <trkpt lat="59.9556239" lon="17.7234613">
        <ele>63.5844</ele>
        <time>2014-06-02T18:14:20Z</time>
      </trkpt>
      <trkpt lat="59.9556511" lon="17.7234712">
        <ele>63.5844</ele>
        <time>2014-06-02T18:14:21Z</time>
      </trkpt>
      <trkpt lat="59.9556884" lon="17.7234807">
        <ele>64.5457</ele>
        <time>2014-06-02T18:14:22Z</time>
      </trkpt>
      <trkpt lat="59.955723" lon="17.7234943">
        <ele>65.0264</ele>
        <time>2014-06-02T18:14:23Z</time>
      </trkpt>
      <trkpt lat="59.9557556" lon="17.7235223">
        <ele>65.5071</ele>
        <time>2014-06-02T18:14:24Z</time>
      </trkpt>
      <trkpt lat="59.9557826" lon="17.7235543">
        <ele>64.5457</ele>
        <time>2014-06-02T18:14:25Z</time>
      </trkpt>
      <trkpt lat="59.9558075" lon="17.7235839">
        <ele>64.0651</ele>
        <time>2014-06-02T18:14:26Z</time>
      </trkpt>
      <trkpt lat="59.9558323" lon="17.723619">
        <ele>64.0651</ele>
        <time>2014-06-02T18:14:27Z</time>
      </trkpt>
      <trkpt lat="59.9558598" lon="17.7236541">
        <ele>64.5457</ele>
        <time>2014-06-02T18:14:28Z</time>
      </trkpt>
      <trkpt lat="59.9558933" lon="17.7236798">
        <ele>65.0264</ele>
        <time>2014-06-02T18:14:29Z</time>
      </trkpt>
      <trkpt lat="59.9559259" lon="17.7236969">
        <ele>65.5071</ele>
        <time>2014-06-02T18:14:30Z</time>
      </trkpt>
      <trkpt lat="59.9559428" lon="17.7236978">
        <ele>64.0651</ele>
        <time>2014-06-02T18:14:31Z</time>
      </trkpt>
      <trkpt lat="59.9559453" lon="17.7236605">
        <ele>61.181</ele>
        <time>2014-06-02T18:14:32Z</time>
      </trkpt>
      <trkpt lat="59.9559484" lon="17.7236085">
        <ele>59.2584</ele>
        <time>2014-06-02T18:14:33Z</time>
      </trkpt>
      <trkpt lat="59.9559519" lon="17.7235523">
        <ele>56.8551</ele>
        <time>2014-06-02T18:14:34Z</time>
      </trkpt>
      <trkpt lat="59.955972" lon="17.7235077">
        <ele>57.8165</ele>
        <time>2014-06-02T18:14:35Z</time>
      </trkpt>
      <trkpt lat="59.9559878" lon="17.723472">
        <ele>58.2971</ele>
        <time>2014-06-02T18:14:36Z</time>
      </trkpt>
      <trkpt lat="59.9560058" lon="17.7234307">
        <ele>58.2971</ele>
        <time>2014-06-02T18:14:37Z</time>
      </trkpt>
      <trkpt lat="59.956014" lon="17.7233737">
        <ele>57.3358</ele>
        <time>2014-06-02T18:14:38Z</time>
      </trkpt>
      <trkpt lat="59.9560292" lon="17.7233244">
        <ele>57.8165</ele>
        <time>2014-06-02T18:14:39Z</time>
      </trkpt>
      <trkpt lat="59.9560364" lon="17.72327">
        <ele>58.7777</ele>
        <time>2014-06-02T18:14:40Z</time>
      </trkpt>
      <trkpt lat="59.956025" lon="17.7231986">
        <ele>57.3358</ele>
        <time>2014-06-02T18:14:41Z</time>
      </trkpt>
      <trkpt lat="59.9560146" lon="17.7231344">
        <ele>55.4131</ele>
        <time>2014-06-02T18:14:42Z</time>
      </trkpt>
      <trkpt lat="59.9560049" lon="17.7230757">
        <ele>53.4905</ele>
        <time>2014-06-02T18:14:43Z</time>
      </trkpt>
      <trkpt lat="59.9559997" lon="17.7230158">
        <ele>52.5292</ele>
        <time>2014-06-02T18:14:44Z</time>
      </trkpt>
      <trkpt lat="59.955996" lon="17.7229573">
        <ele>52.0486</ele>
        <time>2014-06-02T18:14:45Z</time>
      </trkpt>
      <trkpt lat="59.955988" lon="17.7228962">
        <ele>51.5679</ele>
        <time>2014-06-02T18:14:46Z</time>
      </trkpt>
      <trkpt lat="59.9559768" lon="17.7228377">
        <ele>51.0872</ele>
        <time>2014-06-02T18:14:47Z</time>
      </trkpt>
      <trkpt lat="59.9559674" lon="17.7227836">
        <ele>51.5679</ele>
        <time>2014-06-02T18:14:48Z</time>
      </trkpt>
      <trkpt lat="59.9559645" lon="17.7227402">
        <ele>51.5679</ele>
        <time>2014-06-02T18:14:49Z</time>
      </trkpt>
      <trkpt lat="59.955963" lon="17.7226946">
        <ele>52.0486</ele>
        <time>2014-06-02T18:14:50Z</time>
      </trkpt>
      <trkpt lat="59.955957" lon="17.7226465">
        <ele>52.0486</ele>
        <time>2014-06-02T18:14:51Z</time>
      </trkpt>
      <trkpt lat="59.9559471" lon="17.7225997">
        <ele>52.5292</ele>
        <time>2014-06-02T18:14:52Z</time>
      </trkpt>
      <trkpt lat="59.9559415" lon="17.7225579">
        <ele>52.5292</ele>
        <time>2014-06-02T18:14:53Z</time>
      </trkpt>
      <trkpt lat="59.9559391" lon="17.7225168">
        <ele>53.0098</ele>
        <time>2014-06-02T18:14:54Z</time>
      </trkpt>
      <trkpt lat="59.9559344" lon="17.7224734">
        <ele>52.0486</ele>
        <time>2014-06-02T18:14:55Z</time>
      </trkpt>
      <trkpt lat="59.9559313" lon="17.7224289">
        <ele>51.0872</ele>
        <time>2014-06-02T18:14:56Z</time>
      </trkpt>
      <trkpt lat="59.9559312" lon="17.722389">
        <ele>51.0872</ele>
        <time>2014-06-02T18:14:57Z</time>
      </trkpt>
      <trkpt lat="59.9559301" lon="17.722338">
        <ele>51.0872</ele>
        <time>2014-06-02T18:14:58Z</time>
      </trkpt>
      <trkpt lat="59.9559256" lon="17.7222885">
        <ele>51.0872</ele>
        <time>2014-06-02T18:14:59Z</time>
      </trkpt>
      <trkpt lat="59.9559169" lon="17.7222289">
        <ele>50.6066</ele>
        <time>2014-06-02T18:15:00Z</time>
      </trkpt>
      <trkpt lat="59.9559079" lon="17.7221714">
        <ele>50.6066</ele>
        <time>2014-06-02T18:15:01Z</time>
      </trkpt>
      <trkpt lat="59.9558976" lon="17.7221186">
        <ele>50.6066</ele>
        <time>2014-06-02T18:15:02Z</time>
      </trkpt>
      <trkpt lat="59.9558886" lon="17.7220614">
        <ele>50.6066</ele>
        <time>2014-06-02T18:15:03Z</time>
      </trkpt>
      <trkpt lat="59.9558839" lon="17.7220092">
        <ele>50.126</ele>
        <time>2014-06-02T18:15:04Z</time>
      </trkpt>
      <trkpt lat="59.9558754" lon="17.7219508">
        <ele>49.6453</ele>
        <time>2014-06-02T18:15:05Z</time>
      </trkpt>
      <trkpt lat="59.9558757" lon="17.7218918">
        <ele>50.126</ele>
        <time>2014-06-02T18:15:06Z</time>
      </trkpt>
      <trkpt lat="59.9558741" lon="17.7218451">
        <ele>49.6453</ele>
        <time>2014-06-02T18:15:07Z</time>
      </trkpt>
      <trkpt lat="59.9558697" lon="17.7217891">
        <ele>49.6453</ele>
        <time>2014-06-02T18:15:08Z</time>
      </trkpt>
      <trkpt lat="59.9558599" lon="17.7217285">
        <ele>49.1646</ele>
        <time>2014-06-02T18:15:09Z</time>
      </trkpt>
      <trkpt lat="59.9558565" lon="17.7216716">
        <ele>49.1646</ele>
        <time>2014-06-02T18:15:10Z</time>
      </trkpt>
      <trkpt lat="59.9558515" lon="17.7216124">
        <ele>49.1646</ele>
        <time>2014-06-02T18:15:11Z</time>
      </trkpt>
      <trkpt lat="59.9558505" lon="17.7215542">
        <ele>48.684</ele>
        <time>2014-06-02T18:15:12Z</time>
      </trkpt>
      <trkpt lat="59.955866" lon="17.7215006">
        <ele>50.126</ele>
        <time>2014-06-02T18:15:13Z</time>
      </trkpt>
      <trkpt lat="59.9558837" lon="17.7214396">
        <ele>52.0486</ele>
        <time>2014-06-02T18:15:14Z</time>
      </trkpt>
      <trkpt lat="59.9558996" lon="17.7213817">
        <ele>52.0486</ele>
        <time>2014-06-02T18:15:15Z</time>
      </trkpt>
      <trkpt lat="59.955909" lon="17.7213251">
        <ele>52.0486</ele>
        <time>2014-06-02T18:15:16Z</time>
      </trkpt>
      <trkpt lat="59.9559116" lon="17.7212694">
        <ele>51.5679</ele>
        <time>2014-06-02T18:15:17Z</time>
      </trkpt>
      <trkpt lat="59.9559142" lon="17.7212333">
        <ele>52.0486</ele>
        <time>2014-06-02T18:15:18Z</time>
      </trkpt>
      <trkpt lat="59.9559136" lon="17.7212244">
        <ele>52.0486</ele>
        <time>2014-06-02T18:15:19Z</time>
      </trkpt>
      <trkpt lat="59.9559117" lon="17.7212235">
        <ele>52.5292</ele>
        <time>2014-06-02T18:15:20Z</time>
      </trkpt>
      <trkpt lat="59.9559074" lon="17.7212348">
        <ele>52.0486</ele>
        <time>2014-06-02T18:15:21Z</time>
      </trkpt>
      <trkpt lat="59.9558937" lon="17.7212508">
        <ele>52.5292</ele>
        <time>2014-06-02T18:15:22Z</time>
      </trkpt>
      <trkpt lat="59.9558681" lon="17.7212587">
        <ele>52.0486</ele>
        <time>2014-06-02T18:15:23Z</time>
      </trkpt>
      <trkpt lat="59.9558406" lon="17.7212732">
        <ele>52.0486</ele>
        <time>2014-06-02T18:15:24Z</time>
      </trkpt>
      <trkpt lat="59.9558098" lon="17.7212776">
        <ele>52.0486</ele>
        <time>2014-06-02T18:15:25Z</time>
      </trkpt>
      <trkpt lat="59.9557862" lon="17.7212833">
        <ele>51.5679</ele>
        <time>2014-06-02T18:15:26Z</time>
      </trkpt>
      <trkpt lat="59.9557648" lon="17.7212876">
        <ele>51.0872</ele>
        <time>2014-06-02T18:15:27Z</time>
      </trkpt>
      <trkpt lat="59.9557442" lon="17.7212984">
        <ele>50.126</ele>
        <time>2014-06-02T18:15:28Z</time>
      </trkpt>
      <trkpt lat="59.9557235" lon="17.721312">
        <ele>50.6066</ele>
        <time>2014-06-02T18:15:29Z</time>
      </trkpt>
      <trkpt lat="59.9556962" lon="17.7213127">
        <ele>50.126</ele>
        <time>2014-06-02T18:15:30Z</time>
      </trkpt>
      <trkpt lat="59.955677" lon="17.7213337">
        <ele>50.6066</ele>
        <time>2014-06-02T18:15:31Z</time>
      </trkpt>
      <trkpt lat="59.9556531" lon="17.7213505">
        <ele>51.5679</ele>
        <time>2014-06-02T18:15:32Z</time>
      </trkpt>
      <trkpt lat="59.9556241" lon="17.7213673">
        <ele>52.0486</ele>
        <time>2014-06-02T18:15:33Z</time>
      </trkpt>
      <trkpt lat="59.9555949" lon="17.7213732">
        <ele>52.0486</ele>
        <time>2014-06-02T18:15:34Z</time>
      </trkpt>
      <trkpt lat="59.9555685" lon="17.7213856">
        <ele>53.0098</ele>
        <time>2014-06-02T18:15:35Z</time>
      </trkpt>
      <trkpt lat="59.9555421" lon="17.7213823">
        <ele>52.0486</ele>
        <time>2014-06-02T18:15:36Z</time>
      </trkpt>
      <trkpt lat="59.9555215" lon="17.7213965">
        <ele>53.0098</ele>
        <time>2014-06-02T18:15:37Z</time>
      </trkpt>
      <trkpt lat="59.9554925" lon="17.7214063">
        <ele>53.9712</ele>
        <time>2014-06-02T18:15:38Z</time>
      </trkpt>
      <trkpt lat="59.9554628" lon="17.7213959">
        <ele>53.0098</ele>
        <time>2014-06-02T18:15:39Z</time>
      </trkpt>
      <trkpt lat="59.9554364" lon="17.7213857">
        <ele>52.5292</ele>
        <time>2014-06-02T18:15:40Z</time>
      </trkpt>
      <trkpt lat="59.955405" lon="17.721366">
        <ele>53.0098</ele>
        <time>2014-06-02T18:15:41Z</time>
      </trkpt>
      <trkpt lat="59.9553692" lon="17.7213457">
        <ele>52.5292</ele>
        <time>2014-06-02T18:15:42Z</time>
      </trkpt>
      <trkpt lat="59.9553395" lon="17.7213353">
        <ele>52.5292</ele>
        <time>2014-06-02T18:15:43Z</time>
      </trkpt>
      <trkpt lat="59.9553102" lon="17.7213317">
        <ele>52.0486</ele>
        <time>2014-06-02T18:15:44Z</time>
      </trkpt>
      <trkpt lat="59.955291" lon="17.721337">
        <ele>52.0486</ele>
        <time>2014-06-02T18:15:45Z</time>
      </trkpt>
      <trkpt lat="59.9552641" lon="17.7213369">
        <ele>52.5292</ele>
        <time>2014-06-02T18:15:46Z</time>
      </trkpt>
      <trkpt lat="59.9552438" lon="17.7213378">
        <ele>52.5292</ele>
        <time>2014-06-02T18:15:47Z</time>
      </trkpt>
      <trkpt lat="59.9552222" lon="17.7213347">
        <ele>53.0098</ele>
        <time>2014-06-02T18:15:48Z</time>
      </trkpt>
      <trkpt lat="59.9551926" lon="17.7213384">
        <ele>53.4905</ele>
        <time>2014-06-02T18:15:49Z</time>
      </trkpt>
      <trkpt lat="59.9551691" lon="17.7213442">
        <ele>53.9712</ele>
        <time>2014-06-02T18:15:50Z</time>
      </trkpt>
      <trkpt lat="59.9551406" lon="17.721341">
        <ele>53.9712</ele>
        <time>2014-06-02T18:15:51Z</time>
      </trkpt>
      <trkpt lat="59.9551138" lon="17.7213354">
        <ele>53.9712</ele>
        <time>2014-06-02T18:15:52Z</time>
      </trkpt>
      <trkpt lat="59.9550879" lon="17.7213399">
        <ele>54.9324</ele>
        <time>2014-06-02T18:15:53Z</time>
      </trkpt>
      <trkpt lat="59.9550605" lon="17.7213351">
        <ele>54.9324</ele>
        <time>2014-06-02T18:15:54Z</time>
      </trkpt>
      <trkpt lat="59.9550334" lon="17.7213201">
        <ele>53.9712</ele>
        <time>2014-06-02T18:15:55Z</time>
      </trkpt>
      <trkpt lat="59.9550055" lon="17.721317">
        <ele>53.9712</ele>
        <time>2014-06-02T18:15:56Z</time>
      </trkpt>
      <trkpt lat="59.9549786" lon="17.7213151">
        <ele>54.4518</ele>
        <time>2014-06-02T18:15:57Z</time>
      </trkpt>
      <trkpt lat="59.9549579" lon="17.7213111">
        <ele>55.8938</ele>
        <time>2014-06-02T18:15:58Z</time>
      </trkpt>
      <trkpt lat="59.9549319" lon="17.7213048">
        <ele>56.8551</ele>
        <time>2014-06-02T18:15:59Z</time>
      </trkpt>
      <trkpt lat="59.9549113" lon="17.7212754">
        <ele>56.8551</ele>
        <time>2014-06-02T18:16:00Z</time>
      </trkpt>
      <trkpt lat="59.9548935" lon="17.721236">
        <ele>56.8551</ele>
        <time>2014-06-02T18:16:01Z</time>
      </trkpt>
      <trkpt lat="59.9548652" lon="17.7211799">
        <ele>57.3358</ele>
        <time>2014-06-02T18:16:02Z</time>
      </trkpt>
      <trkpt lat="59.9548394" lon="17.7211251">
        <ele>58.2971</ele>
        <time>2014-06-02T18:16:03Z</time>
      </trkpt>
      <trkpt lat="59.9547968" lon="17.7210686">
        <ele>58.2971</ele>
        <time>2014-06-02T18:16:04Z</time>
      </trkpt>
      <trkpt lat="59.9547671" lon="17.7210089">
        <ele>58.2971</ele>
        <time>2014-06-02T18:16:05Z</time>
      </trkpt>
      <trkpt lat="59.9547456" lon="17.7209559">
        <ele>59.2584</ele>
        <time>2014-06-02T18:16:06Z</time>
      </trkpt>
      <trkpt lat="59.9547321" lon="17.7209036">
        <ele>59.7391</ele>
        <time>2014-06-02T18:16:07Z</time>
      </trkpt>
      <trkpt lat="59.9547305" lon="17.7208474">
        <ele>59.7391</ele>
        <time>2014-06-02T18:16:08Z</time>
      </trkpt>
      <trkpt lat="59.9547325" lon="17.7207917">
        <ele>59.7391</ele>
        <time>2014-06-02T18:16:09Z</time>
      </trkpt>
      <trkpt lat="59.9547257" lon="17.7207293">
        <ele>59.2584</ele>
        <time>2014-06-02T18:16:10Z</time>
      </trkpt>
      <trkpt lat="59.9547135" lon="17.7206592">
        <ele>58.2971</ele>
        <time>2014-06-02T18:16:11Z</time>
      </trkpt>
      <trkpt lat="59.9547025" lon="17.7205951">
        <ele>57.8165</ele>
        <time>2014-06-02T18:16:12Z</time>
      </trkpt>
      <trkpt lat="59.9546931" lon="17.720525">
        <ele>57.3358</ele>
        <time>2014-06-02T18:16:13Z</time>
      </trkpt>
      <trkpt lat="59.9546884" lon="17.7204498">
        <ele>56.3745</ele>
        <time>2014-06-02T18:16:14Z</time>
      </trkpt>
      <trkpt lat="59.954693" lon="17.7203929">
        <ele>55.4131</ele>
        <time>2014-06-02T18:16:15Z</time>
      </trkpt>
      <trkpt lat="59.9547093" lon="17.7203426">
        <ele>53.9712</ele>
        <time>2014-06-02T18:16:16Z</time>
      </trkpt>
      <trkpt lat="59.9547346" lon="17.7203002">
        <ele>53.4905</ele>
        <time>2014-06-02T18:16:17Z</time>
      </trkpt>
      <trkpt lat="59.9547604" lon="17.72028">
        <ele>53.0098</ele>
        <time>2014-06-02T18:16:18Z</time>
      </trkpt>
      <trkpt lat="59.9547931" lon="17.7202688">
        <ele>52.5292</ele>
        <time>2014-06-02T18:16:19Z</time>
      </trkpt>
      <trkpt lat="59.954816" lon="17.7202526">
        <ele>52.0486</ele>
        <time>2014-06-02T18:16:20Z</time>
      </trkpt>
      <trkpt lat="59.954836" lon="17.7202274">
        <ele>51.5679</ele>
        <time>2014-06-02T18:16:21Z</time>
      </trkpt>
      <trkpt lat="59.9548595" lon="17.7201987">
        <ele>51.5679</ele>
        <time>2014-06-02T18:16:22Z</time>
      </trkpt>
      <trkpt lat="59.9548808" lon="17.7201767">
        <ele>51.5679</ele>
        <time>2014-06-02T18:16:23Z</time>
      </trkpt>
      <trkpt lat="59.9549009" lon="17.7201584">
        <ele>51.0872</ele>
        <time>2014-06-02T18:16:24Z</time>
      </trkpt>
      <trkpt lat="59.9549305" lon="17.7201468">
        <ele>51.0872</ele>
        <time>2014-06-02T18:16:25Z</time>
      </trkpt>
      <trkpt lat="59.9549558" lon="17.7201284">
        <ele>51.0872</ele>
        <time>2014-06-02T18:16:26Z</time>
      </trkpt>
      <trkpt lat="59.9549823" lon="17.7201113">
        <ele>50.6066</ele>
        <time>2014-06-02T18:16:27Z</time>
      </trkpt>
      <trkpt lat="59.9550181" lon="17.7200937">
        <ele>51.5679</ele>
        <time>2014-06-02T18:16:28Z</time>
      </trkpt>
      <trkpt lat="59.955046" lon="17.7200833">
        <ele>51.5679</ele>
        <time>2014-06-02T18:16:29Z</time>
      </trkpt>
      <trkpt lat="59.9550729" lon="17.7200665">
        <ele>51.5679</ele>
        <time>2014-06-02T18:16:30Z</time>
      </trkpt>
      <trkpt lat="59.9550927" lon="17.7200544">
        <ele>51.0872</ele>
        <time>2014-06-02T18:16:31Z</time>
      </trkpt>
      <trkpt lat="59.9551128" lon="17.720032">
        <ele>51.0872</ele>
        <time>2014-06-02T18:16:32Z</time>
      </trkpt>
      <trkpt lat="59.9551355" lon="17.720009">
        <ele>51.5679</ele>
        <time>2014-06-02T18:16:33Z</time>
      </trkpt>
      <trkpt lat="59.9551605" lon="17.7199945">
        <ele>51.0872</ele>
        <time>2014-06-02T18:16:34Z</time>
      </trkpt>
      <trkpt lat="59.9551893" lon="17.7199766">
        <ele>51.0872</ele>
        <time>2014-06-02T18:16:35Z</time>
      </trkpt>
      <trkpt lat="59.9552138" lon="17.7199601">
        <ele>51.5679</ele>
        <time>2014-06-02T18:16:36Z</time>
      </trkpt>
      <trkpt lat="59.9552339" lon="17.7199458">
        <ele>51.5679</ele>
        <time>2014-06-02T18:16:37Z</time>
      </trkpt>
      <trkpt lat="59.9552559" lon="17.7199324">
        <ele>51.5679</ele>
        <time>2014-06-02T18:16:38Z</time>
      </trkpt>
      <trkpt lat="59.9552832" lon="17.7199132">
        <ele>51.5679</ele>
        <time>2014-06-02T18:16:39Z</time>
      </trkpt>
      <trkpt lat="59.9553122" lon="17.7198853">
        <ele>52.0486</ele>
        <time>2014-06-02T18:16:40Z</time>
      </trkpt>
      <trkpt lat="59.9553381" lon="17.7198497">
        <ele>52.5292</ele>
        <time>2014-06-02T18:16:41Z</time>
      </trkpt>
      <trkpt lat="59.9553661" lon="17.7198159">
        <ele>52.5292</ele>
        <time>2014-06-02T18:16:42Z</time>
      </trkpt>
      <trkpt lat="59.9553897" lon="17.7197883">
        <ele>52.5292</ele>
        <time>2014-06-02T18:16:43Z</time>
      </trkpt>
      <trkpt lat="59.9554128" lon="17.7197652">
        <ele>52.5292</ele>
        <time>2014-06-02T18:16:44Z</time>
      </trkpt>
      <trkpt lat="59.9554418" lon="17.7197512">
        <ele>53.4905</ele>
        <time>2014-06-02T18:16:45Z</time>
      </trkpt>
      <trkpt lat="59.95547" lon="17.719745">
        <ele>53.9712</ele>
        <time>2014-06-02T18:16:46Z</time>
      </trkpt>
      <trkpt lat="59.9555054" lon="17.7197331">
        <ele>55.4131</ele>
        <time>2014-06-02T18:16:47Z</time>
      </trkpt>
      <trkpt lat="59.9555441" lon="17.7197181">
        <ele>57.3358</ele>
        <time>2014-06-02T18:16:48Z</time>
      </trkpt>
      <trkpt lat="59.9555712" lon="17.7197129">
        <ele>57.3358</ele>
        <time>2014-06-02T18:16:49Z</time>
      </trkpt>
      <trkpt lat="59.9555954" lon="17.7197063">
        <ele>57.3358</ele>
        <time>2014-06-02T18:16:50Z</time>
      </trkpt>
      <trkpt lat="59.955621" lon="17.7196969">
        <ele>57.3358</ele>
        <time>2014-06-02T18:16:51Z</time>
      </trkpt>
      <trkpt lat="59.9556438" lon="17.7196756">
        <ele>56.8551</ele>
        <time>2014-06-02T18:16:52Z</time>
      </trkpt>
      <trkpt lat="59.9556694" lon="17.7196493">
        <ele>56.3745</ele>
        <time>2014-06-02T18:16:53Z</time>
      </trkpt>
      <trkpt lat="59.955698" lon="17.7196269">
        <ele>56.8551</ele>
        <time>2014-06-02T18:16:54Z</time>
      </trkpt>
      <trkpt lat="59.9557205" lon="17.7196053">
        <ele>56.8551</ele>
        <time>2014-06-02T18:16:55Z</time>
      </trkpt>
      <trkpt lat="59.9557453" lon="17.7195822">
        <ele>56.3745</ele>
        <time>2014-06-02T18:16:56Z</time>
      </trkpt>
      <trkpt lat="59.955767" lon="17.7195517">
        <ele>56.3745</ele>
        <time>2014-06-02T18:16:57Z</time>
      </trkpt>
      <trkpt lat="59.9557904" lon="17.7195102">
        <ele>56.3745</ele>
        <time>2014-06-02T18:16:58Z</time>
      </trkpt>
      <trkpt lat="59.9558105" lon="17.7194719">
        <ele>54.9324</ele>
        <time>2014-06-02T18:16:59Z</time>
      </trkpt>
      <trkpt lat="59.9558317" lon="17.7194428">
        <ele>54.9324</ele>
        <time>2014-06-02T18:17:00Z</time>
      </trkpt>
      <trkpt lat="59.9558484" lon="17.7194166">
        <ele>54.4518</ele>
        <time>2014-06-02T18:17:01Z</time>
      </trkpt>
      <trkpt lat="59.9558699" lon="17.7193907">
        <ele>54.4518</ele>
        <time>2014-06-02T18:17:02Z</time>
      </trkpt>
      <trkpt lat="59.955893" lon="17.7193827">
        <ele>53.4905</ele>
        <time>2014-06-02T18:17:03Z</time>
      </trkpt>
      <trkpt lat="59.9559137" lon="17.7193675">
        <ele>53.0098</ele>
        <time>2014-06-02T18:17:04Z</time>
      </trkpt>
      <trkpt lat="59.9559352" lon="17.719341">
        <ele>53.0098</ele>
        <time>2014-06-02T18:17:05Z</time>
      </trkpt>
      <trkpt lat="59.955953" lon="17.7193074">
        <ele>52.0486</ele>
        <time>2014-06-02T18:17:06Z</time>
      </trkpt>
      <trkpt lat="59.955967" lon="17.7192747">
        <ele>51.5679</ele>
        <time>2014-06-02T18:17:07Z</time>
      </trkpt>
      <trkpt lat="59.9559799" lon="17.7192406">
        <ele>51.5679</ele>
        <time>2014-06-02T18:17:08Z</time>
      </trkpt>
      <trkpt lat="59.9559933" lon="17.7192077">
        <ele>51.0872</ele>
        <time>2014-06-02T18:17:09Z</time>
      </trkpt>
      <trkpt lat="59.9560106" lon="17.7191751">
        <ele>50.6066</ele>
        <time>2014-06-02T18:17:10Z</time>
      </trkpt>
      <trkpt lat="59.9560279" lon="17.7191338">
        <ele>50.6066</ele>
        <time>2014-06-02T18:17:11Z</time>
      </trkpt>
      <trkpt lat="59.9560442" lon="17.7190892">
        <ele>50.126</ele>
        <time>2014-06-02T18:17:12Z</time>
      </trkpt>
      <trkpt lat="59.9560613" lon="17.7190436">
        <ele>50.126</ele>
        <time>2014-06-02T18:17:13Z</time>
      </trkpt>
      <trkpt lat="59.9560733" lon="17.7189899">
        <ele>49.1646</ele>
        <time>2014-06-02T18:17:14Z</time>
      </trkpt>
      <trkpt lat="59.9560865" lon="17.71894">
        <ele>48.684</ele>
        <time>2014-06-02T18:17:15Z</time>
      </trkpt>
      <trkpt lat="59.9561094" lon="17.7188963">
        <ele>48.684</ele>
        <time>2014-06-02T18:17:16Z</time>
      </trkpt>
      <trkpt lat="59.9561289" lon="17.7188492">
        <ele>48.2034</ele>
        <time>2014-06-02T18:17:17Z</time>
      </trkpt>
      <trkpt lat="59.9561355" lon="17.7187941">
        <ele>47.2418</ele>
        <time>2014-06-02T18:17:18Z</time>
      </trkpt>
      <trkpt lat="59.9561457" lon="17.7187411">
        <ele>46.2806</ele>
        <time>2014-06-02T18:17:19Z</time>
      </trkpt>
      <trkpt lat="59.9561564" lon="17.718694">
        <ele>46.7612</ele>
        <time>2014-06-02T18:17:20Z</time>
      </trkpt>
      <trkpt lat="59.9561611" lon="17.7186452">
        <ele>46.7612</ele>
        <time>2014-06-02T18:17:21Z</time>
      </trkpt>
      <trkpt lat="59.9561576" lon="17.7185925">
        <ele>46.2806</ele>
        <time>2014-06-02T18:17:22Z</time>
      </trkpt>
      <trkpt lat="59.956154" lon="17.718535">
        <ele>46.7612</ele>
        <time>2014-06-02T18:17:23Z</time>
      </trkpt>
      <trkpt lat="59.9561419" lon="17.7184797">
        <ele>46.7612</ele>
        <time>2014-06-02T18:17:24Z</time>
      </trkpt>
      <trkpt lat="59.9561296" lon="17.7184288">
        <ele>46.7612</ele>
        <time>2014-06-02T18:17:25Z</time>
      </trkpt>
      <trkpt lat="59.9561234" lon="17.7183856">
        <ele>46.7612</ele>
        <time>2014-06-02T18:17:26Z</time>
      </trkpt>
      <trkpt lat="59.9561156" lon="17.7183372">
        <ele>46.7612</ele>
        <time>2014-06-02T18:17:27Z</time>
      </trkpt>
      <trkpt lat="59.956095" lon="17.7182951">
        <ele>46.2806</ele>
        <time>2014-06-02T18:17:28Z</time>
      </trkpt>
      <trkpt lat="59.9560751" lon="17.7182501">
        <ele>45.3192</ele>
        <time>2014-06-02T18:17:29Z</time>
      </trkpt>
      <trkpt lat="59.956055" lon="17.7181991">
        <ele>45.3192</ele>
        <time>2014-06-02T18:17:30Z</time>
      </trkpt>
      <trkpt lat="59.9560407" lon="17.7181677">
        <ele>44.8386</ele>
        <time>2014-06-02T18:17:31Z</time>
      </trkpt>
      <trkpt lat="59.9560267" lon="17.7181497">
        <ele>44.8386</ele>
        <time>2014-06-02T18:17:32Z</time>
      </trkpt>
      <trkpt lat="59.9560131" lon="17.7181138">
        <ele>45.7999</ele>
        <time>2014-06-02T18:17:33Z</time>
      </trkpt>
      <trkpt lat="59.9559999" lon="17.7180718">
        <ele>45.7999</ele>
        <time>2014-06-02T18:17:34Z</time>
      </trkpt>
      <trkpt lat="59.9559839" lon="17.7180247">
        <ele>45.3192</ele>
        <time>2014-06-02T18:17:35Z</time>
      </trkpt>
      <trkpt lat="59.9559644" lon="17.717965">
        <ele>45.3192</ele>
        <time>2014-06-02T18:17:36Z</time>
      </trkpt>
      <trkpt lat="59.9559483" lon="17.7179204">
        <ele>46.2806</ele>
        <time>2014-06-02T18:17:37Z</time>
      </trkpt>
      <trkpt lat="59.9559251" lon="17.717875">
        <ele>45.7999</ele>
        <time>2014-06-02T18:17:38Z</time>
      </trkpt>
      <trkpt lat="59.9559067" lon="17.7178168">
        <ele>45.7999</ele>
        <time>2014-06-02T18:17:39Z</time>
      </trkpt>
      <trkpt lat="59.955894" lon="17.7177549">
        <ele>46.2806</ele>
        <time>2014-06-02T18:17:40Z</time>
      </trkpt>
      <trkpt lat="59.9558775" lon="17.7177049">
        <ele>46.2806</ele>
        <time>2014-06-02T18:17:41Z</time>
      </trkpt>
      <trkpt lat="59.9558612" lon="17.7176614">
        <ele>46.7612</ele>
        <time>2014-06-02T18:17:42Z</time>
      </trkpt>
      <trkpt lat="59.9558515" lon="17.7176207">
        <ele>46.7612</ele>
        <time>2014-06-02T18:17:43Z</time>
      </trkpt>
      <trkpt lat="59.955838" lon="17.7175684">
        <ele>46.7612</ele>
        <time>2014-06-02T18:17:44Z</time>
      </trkpt>
      <trkpt lat="59.9558245" lon="17.7175217">
        <ele>46.7612</ele>
        <time>2014-06-02T18:17:45Z</time>
      </trkpt>
      <trkpt lat="59.9558133" lon="17.7174858">
        <ele>46.7612</ele>
        <time>2014-06-02T18:17:46Z</time>
      </trkpt>
      <trkpt lat="59.9558017" lon="17.7174609">
        <ele>47.7225</ele>
        <time>2014-06-02T18:17:47Z</time>
      </trkpt>
      <trkpt lat="59.9557872" lon="17.7174279">
        <ele>47.7225</ele>
        <time>2014-06-02T18:17:48Z</time>
      </trkpt>
      <trkpt lat="59.9557826" lon="17.7173927">
        <ele>48.684</ele>
        <time>2014-06-02T18:17:49Z</time>
      </trkpt>
      <trkpt lat="59.9557801" lon="17.717342">
        <ele>48.684</ele>
        <time>2014-06-02T18:17:50Z</time>
      </trkpt>
      <trkpt lat="59.9557763" lon="17.7172814">
        <ele>48.684</ele>
        <time>2014-06-02T18:17:51Z</time>
      </trkpt>
      <trkpt lat="59.9557712" lon="17.7172244">
        <ele>48.684</ele>
        <time>2014-06-02T18:17:52Z</time>
      </trkpt>
      <trkpt lat="59.9557598" lon="17.7171695">
        <ele>48.2034</ele>
        <time>2014-06-02T18:17:53Z</time>
      </trkpt>
      <trkpt lat="59.9557484" lon="17.7171192">
        <ele>47.7225</ele>
        <time>2014-06-02T18:17:54Z</time>
      </trkpt>
      <trkpt lat="59.9557402" lon="17.7170694">
        <ele>47.7225</ele>
        <time>2014-06-02T18:17:55Z</time>
      </trkpt>
      <trkpt lat="59.9557291" lon="17.7170193">
        <ele>47.2418</ele>
        <time>2014-06-02T18:17:56Z</time>
      </trkpt>
      <trkpt lat="59.9557183" lon="17.7169658">
        <ele>46.2806</ele>
        <time>2014-06-02T18:17:57Z</time>
      </trkpt>
      <trkpt lat="59.9557078" lon="17.7169084">
        <ele>45.7999</ele>
        <time>2014-06-02T18:17:58Z</time>
      </trkpt>
      <trkpt lat="59.9556892" lon="17.7168539">
        <ele>44.8386</ele>
        <time>2014-06-02T18:17:59Z</time>
      </trkpt>
      <trkpt lat="59.9556609" lon="17.7168037">
        <ele>43.3966</ele>
        <time>2014-06-02T18:18:00Z</time>
      </trkpt>
      <trkpt lat="59.9556399" lon="17.7167466">
        <ele>42.4354</ele>
        <time>2014-06-02T18:18:01Z</time>
      </trkpt>
      <trkpt lat="59.9556116" lon="17.7166893">
        <ele>40.5128</ele>
        <time>2014-06-02T18:18:02Z</time>
      </trkpt>
      <trkpt lat="59.9555798" lon="17.7166297">
        <ele>40.0321</ele>
        <time>2014-06-02T18:18:03Z</time>
      </trkpt>
      <trkpt lat="59.9555602" lon="17.7165725">
        <ele>40.0321</ele>
        <time>2014-06-02T18:18:04Z</time>
      </trkpt>
      <trkpt lat="59.9555428" lon="17.7165233">
        <ele>40.0321</ele>
        <time>2014-06-02T18:18:05Z</time>
      </trkpt>
      <trkpt lat="59.9555223" lon="17.7164737">
        <ele>39.0707</ele>
        <time>2014-06-02T18:18:06Z</time>
      </trkpt>
      <trkpt lat="59.9555039" lon="17.7164118">
        <ele>38.5901</ele>
        <time>2014-06-02T18:18:07Z</time>
      </trkpt>
      <trkpt lat="59.9554884" lon="17.716348">
        <ele>37.6287</ele>
        <time>2014-06-02T18:18:08Z</time>
      </trkpt>
      <trkpt lat="59.9554734" lon="17.7162838">
        <ele>37.6287</ele>
        <time>2014-06-02T18:18:09Z</time>
      </trkpt>
      <trkpt lat="59.9554666" lon="17.7162286">
        <ele>37.1481</ele>
        <time>2014-06-02T18:18:10Z</time>
      </trkpt>
      <trkpt lat="59.9554509" lon="17.7161797">
        <ele>37.1481</ele>
        <time>2014-06-02T18:18:11Z</time>
      </trkpt>
      <trkpt lat="59.9554395" lon="17.7161138">
        <ele>36.6675</ele>
        <time>2014-06-02T18:18:12Z</time>
      </trkpt>
      <trkpt lat="59.9554325" lon="17.7160417">
        <ele>36.6675</ele>
        <time>2014-06-02T18:18:13Z</time>
      </trkpt>
      <trkpt lat="59.9554174" lon="17.7159776">
        <ele>35.7061</ele>
        <time>2014-06-02T18:18:14Z</time>
      </trkpt>
      <trkpt lat="59.9553996" lon="17.7159061">
        <ele>35.7061</ele>
        <time>2014-06-02T18:18:15Z</time>
      </trkpt>
      <trkpt lat="59.9553888" lon="17.7158445">
        <ele>36.6675</ele>
        <time>2014-06-02T18:18:16Z</time>
      </trkpt>
      <trkpt lat="59.9553759" lon="17.7157863">
        <ele>36.1868</ele>
        <time>2014-06-02T18:18:17Z</time>
      </trkpt>
      <trkpt lat="59.9553734" lon="17.7157289">
        <ele>36.1868</ele>
        <time>2014-06-02T18:18:18Z</time>
      </trkpt>
      <trkpt lat="59.9553635" lon="17.7156668">
        <ele>35.2255</ele>
        <time>2014-06-02T18:18:19Z</time>
      </trkpt>
      <trkpt lat="59.9553607" lon="17.7156065">
        <ele>34.7449</ele>
        <time>2014-06-02T18:18:20Z</time>
      </trkpt>
      <trkpt lat="59.9553645" lon="17.7155471">
        <ele>34.2642</ele>
        <time>2014-06-02T18:18:21Z</time>
      </trkpt>
      <trkpt lat="59.9553677" lon="17.7154818">
        <ele>34.2642</ele>
        <time>2014-06-02T18:18:22Z</time>
      </trkpt>
      <trkpt lat="59.9553644" lon="17.7154237">
        <ele>33.7834</ele>
        <time>2014-06-02T18:18:23Z</time>
      </trkpt>
      <trkpt lat="59.9553615" lon="17.7153581">
        <ele>33.3029</ele>
        <time>2014-06-02T18:18:24Z</time>
      </trkpt>
      <trkpt lat="59.9553588" lon="17.7152995">
        <ele>32.8223</ele>
        <time>2014-06-02T18:18:25Z</time>
      </trkpt>
      <trkpt lat="59.9553498" lon="17.7152352">
        <ele>32.3416</ele>
        <time>2014-06-02T18:18:26Z</time>
      </trkpt>
      <trkpt lat="59.9553536" lon="17.7151714">
        <ele>31.8607</ele>
        <time>2014-06-02T18:18:27Z</time>
      </trkpt>
      <trkpt lat="59.955362" lon="17.7151114">
        <ele>30.8995</ele>
        <time>2014-06-02T18:18:28Z</time>
      </trkpt>
      <trkpt lat="59.955364" lon="17.7150543">
        <ele>29.9381</ele>
        <time>2014-06-02T18:18:29Z</time>
      </trkpt>
      <trkpt lat="59.9553702" lon="17.7149968">
        <ele>28.9769</ele>
        <time>2014-06-02T18:18:30Z</time>
      </trkpt>
      <trkpt lat="59.9553654" lon="17.7149244">
        <ele>28.9769</ele>
        <time>2014-06-02T18:18:31Z</time>
      </trkpt>
      <trkpt lat="59.9553645" lon="17.7148675">
        <ele>28.4962</ele>
        <time>2014-06-02T18:18:32Z</time>
      </trkpt>
      <trkpt lat="59.9553567" lon="17.7148223">
        <ele>28.4962</ele>
        <time>2014-06-02T18:18:33Z</time>
      </trkpt>
      <trkpt lat="59.9553594" lon="17.7147754">
        <ele>28.4962</ele>
        <time>2014-06-02T18:18:34Z</time>
      </trkpt>
      <trkpt lat="59.9553573" lon="17.7147357">
        <ele>28.0155</ele>
        <time>2014-06-02T18:18:35Z</time>
      </trkpt>
      <trkpt lat="59.9553547" lon="17.7146889">
        <ele>27.0543</ele>
        <time>2014-06-02T18:18:36Z</time>
      </trkpt>
      <trkpt lat="59.9553522" lon="17.7146365">
        <ele>26.0929</ele>
        <time>2014-06-02T18:18:37Z</time>
      </trkpt>
      <trkpt lat="59.9553507" lon="17.7145831">
        <ele>25.6123</ele>
        <time>2014-06-02T18:18:38Z</time>
      </trkpt>
      <trkpt lat="59.9553433" lon="17.7145373">
        <ele>25.6123</ele>
        <time>2014-06-02T18:18:39Z</time>
      </trkpt>
      <trkpt lat="59.9553302" lon="17.7144888">
        <ele>25.6123</ele>
        <time>2014-06-02T18:18:40Z</time>
      </trkpt>
      <trkpt lat="59.9553165" lon="17.7144329">
        <ele>25.6123</ele>
        <time>2014-06-02T18:18:41Z</time>
      </trkpt>
      <trkpt lat="59.9553112" lon="17.714381">
        <ele>25.1317</ele>
        <time>2014-06-02T18:18:42Z</time>
      </trkpt>
      <trkpt lat="59.9553001" lon="17.7143316">
        <ele>24.651</ele>
        <time>2014-06-02T18:18:43Z</time>
      </trkpt>
      <trkpt lat="59.9552897" lon="17.7142829">
        <ele>24.651</ele>
        <time>2014-06-02T18:18:44Z</time>
      </trkpt>
      <trkpt lat="59.9552818" lon="17.7142384">
        <ele>24.651</ele>
        <time>2014-06-02T18:18:45Z</time>
      </trkpt>
      <trkpt lat="59.9552698" lon="17.714196">
        <ele>23.6896</ele>
        <time>2014-06-02T18:18:46Z</time>
      </trkpt>
      <trkpt lat="59.9552571" lon="17.7141472">
        <ele>23.209</ele>
        <time>2014-06-02T18:18:47Z</time>
      </trkpt>
      <trkpt lat="59.9552476" lon="17.7140967">
        <ele>23.209</ele>
        <time>2014-06-02T18:18:48Z</time>
      </trkpt>
      <trkpt lat="59.9552349" lon="17.7140566">
        <ele>23.209</ele>
        <time>2014-06-02T18:18:49Z</time>
      </trkpt>
      <trkpt lat="59.9552174" lon="17.714025">
        <ele>23.209</ele>
        <time>2014-06-02T18:18:50Z</time>
      </trkpt>
      <trkpt lat="59.955189" lon="17.7139952">
        <ele>23.209</ele>
        <time>2014-06-02T18:18:51Z</time>
      </trkpt>
      <trkpt lat="59.9551587" lon="17.7139755">
        <ele>23.209</ele>
        <time>2014-06-02T18:18:52Z</time>
      </trkpt>
      <trkpt lat="59.9551314" lon="17.7139934">
        <ele>23.209</ele>
        <time>2014-06-02T18:18:53Z</time>
      </trkpt>
      <trkpt lat="59.9551206" lon="17.714062">
        <ele>24.1703</ele>
        <time>2014-06-02T18:18:54Z</time>
      </trkpt>
      <trkpt lat="59.9551154" lon="17.7141329">
        <ele>25.1317</ele>
        <time>2014-06-02T18:18:55Z</time>
      </trkpt>
      <trkpt lat="59.9551115" lon="17.7141983">
        <ele>25.1317</ele>
        <time>2014-06-02T18:18:56Z</time>
      </trkpt>
      <trkpt lat="59.9550958" lon="17.7142427">
        <ele>25.1317</ele>
        <time>2014-06-02T18:18:57Z</time>
      </trkpt>
      <trkpt lat="59.9550725" lon="17.7142708">
        <ele>25.1317</ele>
        <time>2014-06-02T18:18:58Z</time>
      </trkpt>
      <trkpt lat="59.9550465" lon="17.7143033">
        <ele>25.6123</ele>
        <time>2014-06-02T18:18:59Z</time>
      </trkpt>
      <trkpt lat="59.9550247" lon="17.7143447">
        <ele>26.5736</ele>
        <time>2014-06-02T18:19:00Z</time>
      </trkpt>
      <trkpt lat="59.9549937" lon="17.7143825">
        <ele>26.5736</ele>
        <time>2014-06-02T18:19:01Z</time>
      </trkpt>
      <trkpt lat="59.9549632" lon="17.7144163">
        <ele>26.5736</ele>
        <time>2014-06-02T18:19:02Z</time>
      </trkpt>
      <trkpt lat="59.9549416" lon="17.7144629">
        <ele>27.5349</ele>
        <time>2014-06-02T18:19:03Z</time>
      </trkpt>
      <trkpt lat="59.9548958" lon="17.7145438">
        <ele>28.9769</ele>
        <time>2014-06-02T18:19:05Z</time>
      </trkpt>
      <trkpt lat="59.9548707" lon="17.7145857">
        <ele>29.4575</ele>
        <time>2014-06-02T18:19:06Z</time>
      </trkpt>
      <trkpt lat="59.9548448" lon="17.7146318">
        <ele>30.4188</ele>
        <time>2014-06-02T18:19:07Z</time>
      </trkpt>
      <trkpt lat="59.9548206" lon="17.7146818">
        <ele>31.8607</ele>
        <time>2014-06-02T18:19:08Z</time>
      </trkpt>
      <trkpt lat="59.9547894" lon="17.7147199">
        <ele>31.8607</ele>
        <time>2014-06-02T18:19:09Z</time>
      </trkpt>
      <trkpt lat="59.9547543" lon="17.7147473">
        <ele>32.3416</ele>
        <time>2014-06-02T18:19:10Z</time>
      </trkpt>
      <trkpt lat="59.9547211" lon="17.7147731">
        <ele>33.7834</ele>
        <time>2014-06-02T18:19:11Z</time>
      </trkpt>
      <trkpt lat="59.9546873" lon="17.714779">
        <ele>34.2642</ele>
        <time>2014-06-02T18:19:12Z</time>
      </trkpt>
      <trkpt lat="59.9546621" lon="17.7147778">
        <ele>34.7449</ele>
        <time>2014-06-02T18:19:13Z</time>
      </trkpt>
      <trkpt lat="59.9546367" lon="17.7147726">
        <ele>35.2255</ele>
        <time>2014-06-02T18:19:14Z</time>
      </trkpt>
      <trkpt lat="59.9546114" lon="17.7147736">
        <ele>36.6675</ele>
        <time>2014-06-02T18:19:15Z</time>
      </trkpt>
      <trkpt lat="59.9545875" lon="17.7147709">
        <ele>37.6287</ele>
        <time>2014-06-02T18:19:16Z</time>
      </trkpt>
      <trkpt lat="59.9545676" lon="17.7147743">
        <ele>38.5901</ele>
        <time>2014-06-02T18:19:17Z</time>
      </trkpt>
      <trkpt lat="59.9545471" lon="17.7147901">
        <ele>40.0321</ele>
        <time>2014-06-02T18:19:18Z</time>
      </trkpt>
      <trkpt lat="59.9545221" lon="17.7147986">
        <ele>40.5128</ele>
        <time>2014-06-02T18:19:19Z</time>
      </trkpt>
      <trkpt lat="59.9544921" lon="17.7147989">
        <ele>40.5128</ele>
        <time>2014-06-02T18:19:20Z</time>
      </trkpt>
      <trkpt lat="59.9544635" lon="17.7147944">
        <ele>40.9934</ele>
        <time>2014-06-02T18:19:21Z</time>
      </trkpt>
      <trkpt lat="59.9544387" lon="17.7147994">
        <ele>42.4354</ele>
        <time>2014-06-02T18:19:22Z</time>
      </trkpt>
      <trkpt lat="59.9544141" lon="17.7148052">
        <ele>42.916</ele>
        <time>2014-06-02T18:19:23Z</time>
      </trkpt>
      <trkpt lat="59.9543926" lon="17.7148183">
        <ele>44.358</ele>
        <time>2014-06-02T18:19:24Z</time>
      </trkpt>
      <trkpt lat="59.9543663" lon="17.7148291">
        <ele>44.8386</ele>
        <time>2014-06-02T18:19:25Z</time>
      </trkpt>
      <trkpt lat="59.9543399" lon="17.714843">
        <ele>45.3192</ele>
        <time>2014-06-02T18:19:26Z</time>
      </trkpt>
      <trkpt lat="59.9543102" lon="17.7148518">
        <ele>45.7999</ele>
        <time>2014-06-02T18:19:27Z</time>
      </trkpt>
      <trkpt lat="59.9542807" lon="17.7148544">
        <ele>46.7612</ele>
        <time>2014-06-02T18:19:28Z</time>
      </trkpt>
      <trkpt lat="59.9542514" lon="17.7148574">
        <ele>47.2418</ele>
        <time>2014-06-02T18:19:29Z</time>
      </trkpt>
      <trkpt lat="59.9542249" lon="17.7148636">
        <ele>47.2418</ele>
        <time>2014-06-02T18:19:30Z</time>
      </trkpt>
      <trkpt lat="59.9542001" lon="17.7148732">
        <ele>47.2418</ele>
        <time>2014-06-02T18:19:31Z</time>
      </trkpt>
      <trkpt lat="59.9541791" lon="17.7148819">
        <ele>48.2034</ele>
        <time>2014-06-02T18:19:32Z</time>
      </trkpt>
      <trkpt lat="59.95416" lon="17.7148953">
        <ele>49.1646</ele>
        <time>2014-06-02T18:19:33Z</time>
      </trkpt>
      <trkpt lat="59.9541331" lon="17.714902">
        <ele>49.1646</ele>
        <time>2014-06-02T18:19:34Z</time>
      </trkpt>
      <trkpt lat="59.9541051" lon="17.714913">
        <ele>49.6453</ele>
        <time>2014-06-02T18:19:35Z</time>
      </trkpt>
      <trkpt lat="59.9540751" lon="17.7149327">
        <ele>50.126</ele>
        <time>2014-06-02T18:19:36Z</time>
      </trkpt>
      <trkpt lat="59.9540461" lon="17.7149592">
        <ele>50.126</ele>
        <time>2014-06-02T18:19:37Z</time>
      </trkpt>
      <trkpt lat="59.9541001" lon="17.7148702">
        <ele>46.7612</ele>
        <time>2014-06-02T18:19:54Z</time>
      </trkpt>
      <trkpt lat="59.9541048" lon="17.7148555">
        <ele>48.2034</ele>
        <time>2014-06-02T18:19:55Z</time>
      </trkpt>
      <trkpt lat="59.9541204" lon="17.7148251">
        <ele>49.1646</ele>
        <time>2014-06-02T18:19:56Z</time>
      </trkpt>
      <trkpt lat="59.9541398" lon="17.7147894">
        <ele>50.6066</ele>
        <time>2014-06-02T18:19:57Z</time>
      </trkpt>
      <trkpt lat="59.9541545" lon="17.7147665">
        <ele>50.126</ele>
        <time>2014-06-02T18:19:58Z</time>
      </trkpt>
      <trkpt lat="59.9541788" lon="17.7147523">
        <ele>50.6066</ele>
        <time>2014-06-02T18:19:59Z</time>
      </trkpt>
      <trkpt lat="59.9541965" lon="17.7147466">
        <ele>50.6066</ele>
        <time>2014-06-02T18:20:00Z</time>
      </trkpt>
      <trkpt lat="59.9542218" lon="17.714739">
        <ele>50.6066</ele>
        <time>2014-06-02T18:20:01Z</time>
      </trkpt>
      <trkpt lat="59.9542494" lon="17.7147311">
        <ele>51.0872</ele>
        <time>2014-06-02T18:20:02Z</time>
      </trkpt>
      <trkpt lat="59.9542801" lon="17.7147191">
        <ele>51.5679</ele>
        <time>2014-06-02T18:20:03Z</time>
      </trkpt>
      <trkpt lat="59.9543182" lon="17.7147051">
        <ele>53.9712</ele>
        <time>2014-06-02T18:20:04Z</time>
      </trkpt>
      <trkpt lat="59.9543601" lon="17.7146865">
        <ele>56.8551</ele>
        <time>2014-06-02T18:20:05Z</time>
      </trkpt>
      <trkpt lat="59.9543938" lon="17.7146804">
        <ele>58.2971</ele>
        <time>2014-06-02T18:20:06Z</time>
      </trkpt>
      <trkpt lat="59.9544135" lon="17.7146846">
        <ele>57.3358</ele>
        <time>2014-06-02T18:20:07Z</time>
      </trkpt>
      <trkpt lat="59.9544385" lon="17.7146831">
        <ele>56.8551</ele>
        <time>2014-06-02T18:20:08Z</time>
      </trkpt>
      <trkpt lat="59.9544682" lon="17.714681">
        <ele>57.3358</ele>
        <time>2014-06-02T18:20:09Z</time>
      </trkpt>
      <trkpt lat="59.9545015" lon="17.7146787">
        <ele>57.8165</ele>
        <time>2014-06-02T18:20:10Z</time>
      </trkpt>
      <trkpt lat="59.9545451" lon="17.714668">
        <ele>59.7391</ele>
        <time>2014-06-02T18:20:11Z</time>
      </trkpt>
      <trkpt lat="59.9545741" lon="17.7146661">
        <ele>58.7777</ele>
        <time>2014-06-02T18:20:12Z</time>
      </trkpt>
      <trkpt lat="59.9546094" lon="17.7146634">
        <ele>59.2584</ele>
        <time>2014-06-02T18:20:13Z</time>
      </trkpt>
      <trkpt lat="59.9546362" lon="17.7146678">
        <ele>59.2584</ele>
        <time>2014-06-02T18:20:14Z</time>
      </trkpt>
      <trkpt lat="59.9546614" lon="17.7146665">
        <ele>58.7777</ele>
        <time>2014-06-02T18:20:15Z</time>
      </trkpt>
      <trkpt lat="59.9546935" lon="17.7146655">
        <ele>58.2971</ele>
        <time>2014-06-02T18:20:16Z</time>
      </trkpt>
      <trkpt lat="59.9547257" lon="17.7146674">
        <ele>58.2971</ele>
        <time>2014-06-02T18:20:17Z</time>
      </trkpt>
      <trkpt lat="59.9547662" lon="17.7146519">
        <ele>60.2197</ele>
        <time>2014-06-02T18:20:18Z</time>
      </trkpt>
      <trkpt lat="59.9548056" lon="17.7146415">
        <ele>61.181</ele>
        <time>2014-06-02T18:20:19Z</time>
      </trkpt>
      <trkpt lat="59.9548388" lon="17.7146386">
        <ele>61.181</ele>
        <time>2014-06-02T18:20:20Z</time>
      </trkpt>
      <trkpt lat="59.9548681" lon="17.7146369">
        <ele>61.181</ele>
        <time>2014-06-02T18:20:21Z</time>
      </trkpt>
      <trkpt lat="59.9548894" lon="17.7146432">
        <ele>59.7391</ele>
        <time>2014-06-02T18:20:22Z</time>
      </trkpt>
      <trkpt lat="59.9549122" lon="17.7146417">
        <ele>58.2971</ele>
        <time>2014-06-02T18:20:23Z</time>
      </trkpt>
      <trkpt lat="59.9549316" lon="17.7146327">
        <ele>57.3358</ele>
        <time>2014-06-02T18:20:24Z</time>
      </trkpt>
      <trkpt lat="59.9549465" lon="17.7146131">
        <ele>56.3745</ele>
        <time>2014-06-02T18:20:25Z</time>
      </trkpt>
      <trkpt lat="59.9549561" lon="17.7145898">
        <ele>54.4518</ele>
        <time>2014-06-02T18:20:26Z</time>
      </trkpt>
      <trkpt lat="59.9549688" lon="17.7145634">
        <ele>53.4905</ele>
        <time>2014-06-02T18:20:27Z</time>
      </trkpt>
      <trkpt lat="59.9549838" lon="17.7145316">
        <ele>53.0098</ele>
        <time>2014-06-02T18:20:28Z</time>
      </trkpt>
      <trkpt lat="59.954996" lon="17.7144934">
        <ele>51.5679</ele>
        <time>2014-06-02T18:20:29Z</time>
      </trkpt>
      <trkpt lat="59.9550106" lon="17.714463">
        <ele>50.6066</ele>
        <time>2014-06-02T18:20:30Z</time>
      </trkpt>
      <trkpt lat="59.9550276" lon="17.7144391">
        <ele>49.6453</ele>
        <time>2014-06-02T18:20:31Z</time>
      </trkpt>
      <trkpt lat="59.9550453" lon="17.714413">
        <ele>48.684</ele>
        <time>2014-06-02T18:20:32Z</time>
      </trkpt>
      <trkpt lat="59.9550626" lon="17.7143824">
        <ele>48.2034</ele>
        <time>2014-06-02T18:20:33Z</time>
      </trkpt>
      <trkpt lat="59.9550853" lon="17.7143514">
        <ele>48.2034</ele>
        <time>2014-06-02T18:20:34Z</time>
      </trkpt>
      <trkpt lat="59.9551084" lon="17.7143228">
        <ele>47.2418</ele>
        <time>2014-06-02T18:20:35Z</time>
      </trkpt>
      <trkpt lat="59.9551374" lon="17.7143062">
        <ele>47.2418</ele>
        <time>2014-06-02T18:20:36Z</time>
      </trkpt>
      <trkpt lat="59.9551523" lon="17.7142898">
        <ele>46.7612</ele>
        <time>2014-06-02T18:20:37Z</time>
      </trkpt>
      <trkpt lat="59.9551623" lon="17.7142567">
        <ele>46.2806</ele>
        <time>2014-06-02T18:20:38Z</time>
      </trkpt>
      <trkpt lat="59.9551769" lon="17.7142157">
        <ele>46.2806</ele>
        <time>2014-06-02T18:20:39Z</time>
      </trkpt>
      <trkpt lat="59.9551968" lon="17.7141692">
        <ele>46.2806</ele>
        <time>2014-06-02T18:20:40Z</time>
      </trkpt>
      <trkpt lat="59.9552173" lon="17.7141302">
        <ele>46.2806</ele>
        <time>2014-06-02T18:20:41Z</time>
      </trkpt>
      <trkpt lat="59.9552382" lon="17.7141125">
        <ele>45.3192</ele>
        <time>2014-06-02T18:20:42Z</time>
      </trkpt>
      <trkpt lat="59.955265" lon="17.714122">
        <ele>44.8386</ele>
        <time>2014-06-02T18:20:43Z</time>
      </trkpt>
      <trkpt lat="59.9552894" lon="17.7141595">
        <ele>44.8386</ele>
        <time>2014-06-02T18:20:44Z</time>
      </trkpt>
      <trkpt lat="59.9553129" lon="17.7141951">
        <ele>44.8386</ele>
        <time>2014-06-02T18:20:45Z</time>
      </trkpt>
      <trkpt lat="59.955317" lon="17.7142537">
        <ele>44.8386</ele>
        <time>2014-06-02T18:20:46Z</time>
      </trkpt>
      <trkpt lat="59.9553222" lon="17.7143122">
        <ele>45.3192</ele>
        <time>2014-06-02T18:20:47Z</time>
      </trkpt>
      <trkpt lat="59.9553351" lon="17.7143604">
        <ele>46.2806</ele>
        <time>2014-06-02T18:20:48Z</time>
      </trkpt>
      <trkpt lat="59.9553413" lon="17.7144095">
        <ele>46.7612</ele>
        <time>2014-06-02T18:20:49Z</time>
      </trkpt>
      <trkpt lat="59.9553444" lon="17.7144608">
        <ele>46.2806</ele>
        <time>2014-06-02T18:20:50Z</time>
      </trkpt>
      <trkpt lat="59.9553467" lon="17.7145166">
        <ele>45.7999</ele>
        <time>2014-06-02T18:20:51Z</time>
      </trkpt>
      <trkpt lat="59.9553511" lon="17.7145706">
        <ele>45.7999</ele>
        <time>2014-06-02T18:20:52Z</time>
      </trkpt>
      <trkpt lat="59.9553566" lon="17.7146224">
        <ele>45.7999</ele>
        <time>2014-06-02T18:20:53Z</time>
      </trkpt>
      <trkpt lat="59.9553712" lon="17.7146629">
        <ele>46.7612</ele>
        <time>2014-06-02T18:20:54Z</time>
      </trkpt>
      <trkpt lat="59.9553815" lon="17.7147122">
        <ele>46.2806</ele>
        <time>2014-06-02T18:20:55Z</time>
      </trkpt>
      <trkpt lat="59.9553921" lon="17.7147665">
        <ele>46.7612</ele>
        <time>2014-06-02T18:20:56Z</time>
      </trkpt>
      <trkpt lat="59.9553971" lon="17.7148198">
        <ele>46.2806</ele>
        <time>2014-06-02T18:20:57Z</time>
      </trkpt>
      <trkpt lat="59.9553982" lon="17.7148737">
        <ele>46.2806</ele>
        <time>2014-06-02T18:20:58Z</time>
      </trkpt>
      <trkpt lat="59.9553986" lon="17.7149217">
        <ele>46.2806</ele>
        <time>2014-06-02T18:20:59Z</time>
      </trkpt>
      <trkpt lat="59.9554069" lon="17.7149703">
        <ele>46.2806</ele>
        <time>2014-06-02T18:21:00Z</time>
      </trkpt>
      <trkpt lat="59.9554154" lon="17.7150204">
        <ele>46.2806</ele>
        <time>2014-06-02T18:21:01Z</time>
      </trkpt>
      <trkpt lat="59.9554313" lon="17.7150685">
        <ele>46.7612</ele>
        <time>2014-06-02T18:21:02Z</time>
      </trkpt>
      <trkpt lat="59.9554462" lon="17.7151144">
        <ele>47.2418</ele>
        <time>2014-06-02T18:21:03Z</time>
      </trkpt>
      <trkpt lat="59.9554578" lon="17.7151665">
        <ele>47.2418</ele>
        <time>2014-06-02T18:21:04Z</time>
      </trkpt>
      <trkpt lat="59.9554662" lon="17.7152171">
        <ele>47.2418</ele>
        <time>2014-06-02T18:21:05Z</time>
      </trkpt>
      <trkpt lat="59.9554718" lon="17.7152757">
        <ele>46.7612</ele>
        <time>2014-06-02T18:21:06Z</time>
      </trkpt>
      <trkpt lat="59.9554738" lon="17.7153259">
        <ele>46.2806</ele>
        <time>2014-06-02T18:21:07Z</time>
      </trkpt>
      <trkpt lat="59.9554836" lon="17.7153694">
        <ele>46.7612</ele>
        <time>2014-06-02T18:21:08Z</time>
      </trkpt>
      <trkpt lat="59.9554913" lon="17.7154191">
        <ele>47.2418</ele>
        <time>2014-06-02T18:21:09Z</time>
      </trkpt>
      <trkpt lat="59.9554965" lon="17.7154715">
        <ele>46.7612</ele>
        <time>2014-06-02T18:21:10Z</time>
      </trkpt>
      <trkpt lat="59.9555029" lon="17.7155212">
        <ele>46.7612</ele>
        <time>2014-06-02T18:21:11Z</time>
      </trkpt>
      <trkpt lat="59.9555054" lon="17.7155775">
        <ele>46.7612</ele>
        <time>2014-06-02T18:21:12Z</time>
      </trkpt>
      <trkpt lat="59.9555071" lon="17.7156298">
        <ele>47.2418</ele>
        <time>2014-06-02T18:21:13Z</time>
      </trkpt>
      <trkpt lat="59.9555083" lon="17.7156795">
        <ele>48.2034</ele>
        <time>2014-06-02T18:21:14Z</time>
      </trkpt>
      <trkpt lat="59.9555073" lon="17.7157334">
        <ele>48.2034</ele>
        <time>2014-06-02T18:21:15Z</time>
      </trkpt>
      <trkpt lat="59.9555076" lon="17.7157748">
        <ele>48.2034</ele>
        <time>2014-06-02T18:21:16Z</time>
      </trkpt>
      <trkpt lat="59.9555138" lon="17.7158072">
        <ele>48.2034</ele>
        <time>2014-06-02T18:21:17Z</time>
      </trkpt>
      <trkpt lat="59.9555231" lon="17.7158522">
        <ele>48.2034</ele>
        <time>2014-06-02T18:21:18Z</time>
      </trkpt>
      <trkpt lat="59.9555308" lon="17.7159025">
        <ele>49.1646</ele>
        <time>2014-06-02T18:21:19Z</time>
      </trkpt>
      <trkpt lat="59.9555325" lon="17.7159403">
        <ele>48.684</ele>
        <time>2014-06-02T18:21:20Z</time>
      </trkpt>
      <trkpt lat="59.9555355" lon="17.7159761">
        <ele>48.684</ele>
        <time>2014-06-02T18:21:21Z</time>
      </trkpt>
      <trkpt lat="59.9555406" lon="17.7160159">
        <ele>49.6453</ele>
        <time>2014-06-02T18:21:22Z</time>
      </trkpt>
      <trkpt lat="59.9555422" lon="17.7160516">
        <ele>50.6066</ele>
        <time>2014-06-02T18:21:23Z</time>
      </trkpt>
      <trkpt lat="59.9555433" lon="17.7160792">
        <ele>50.6066</ele>
        <time>2014-06-02T18:21:24Z</time>
      </trkpt>
      <trkpt lat="59.9555487" lon="17.7161089">
        <ele>50.6066</ele>
        <time>2014-06-02T18:21:25Z</time>
      </trkpt>
      <trkpt lat="59.9555577" lon="17.716145">
        <ele>50.6066</ele>
        <time>2014-06-02T18:21:26Z</time>
      </trkpt>
      <trkpt lat="59.9555627" lon="17.7161853">
        <ele>50.6066</ele>
        <time>2014-06-02T18:21:27Z</time>
      </trkpt>
      <trkpt lat="59.9555675" lon="17.7162183">
        <ele>51.0872</ele>
        <time>2014-06-02T18:21:28Z</time>
      </trkpt>
      <trkpt lat="59.955569" lon="17.7162431">
        <ele>51.0872</ele>
        <time>2014-06-02T18:21:29Z</time>
      </trkpt>
      <trkpt lat="59.9555785" lon="17.7162696">
        <ele>51.5679</ele>
        <time>2014-06-02T18:21:30Z</time>
      </trkpt>
      <trkpt lat="59.9555846" lon="17.716304">
        <ele>51.5679</ele>
        <time>2014-06-02T18:21:31Z</time>
      </trkpt>
      <trkpt lat="59.9555907" lon="17.7163459">
        <ele>52.0486</ele>
        <time>2014-06-02T18:21:32Z</time>
      </trkpt>
      <trkpt lat="59.9555938" lon="17.7163907">
        <ele>52.5292</ele>
        <time>2014-06-02T18:21:33Z</time>
      </trkpt>
      <trkpt lat="59.9555952" lon="17.716426">
        <ele>53.0098</ele>
        <time>2014-06-02T18:21:34Z</time>
      </trkpt>
      <trkpt lat="59.9555967" lon="17.7164651">
        <ele>53.0098</ele>
        <time>2014-06-02T18:21:35Z</time>
      </trkpt>
      <trkpt lat="59.9556033" lon="17.7165064">
        <ele>53.4905</ele>
        <time>2014-06-02T18:21:36Z</time>
      </trkpt>
      <trkpt lat="59.9556122" lon="17.7165477">
        <ele>53.9712</ele>
        <time>2014-06-02T18:21:37Z</time>
      </trkpt>
      <trkpt lat="59.9556157" lon="17.7165943">
        <ele>53.9712</ele>
        <time>2014-06-02T18:21:38Z</time>
      </trkpt>
      <trkpt lat="59.9556173" lon="17.7166365">
        <ele>53.4905</ele>
        <time>2014-06-02T18:21:39Z</time>
      </trkpt>
      <trkpt lat="59.9556177" lon="17.7166728">
        <ele>53.9712</ele>
        <time>2014-06-02T18:21:40Z</time>
      </trkpt>
      <trkpt lat="59.955624" lon="17.7167085">
        <ele>53.9712</ele>
        <time>2014-06-02T18:21:41Z</time>
      </trkpt>
      <trkpt lat="59.9556338" lon="17.7167557">
        <ele>54.4518</ele>
        <time>2014-06-02T18:21:42Z</time>
      </trkpt>
      <trkpt lat="59.9556527" lon="17.7167969">
        <ele>55.4131</ele>
        <time>2014-06-02T18:21:43Z</time>
      </trkpt>
      <trkpt lat="59.955665" lon="17.7168286">
        <ele>56.8551</ele>
        <time>2014-06-02T18:21:44Z</time>
      </trkpt>
      <trkpt lat="59.9556717" lon="17.7168716">
        <ele>56.8551</ele>
        <time>2014-06-02T18:21:45Z</time>
      </trkpt>
      <trkpt lat="59.9556743" lon="17.7169106">
        <ele>56.8551</ele>
        <time>2014-06-02T18:21:46Z</time>
      </trkpt>
      <trkpt lat="59.9556805" lon="17.7169505">
        <ele>56.8551</ele>
        <time>2014-06-02T18:21:47Z</time>
      </trkpt>
      <trkpt lat="59.9556905" lon="17.7169836">
        <ele>57.3358</ele>
        <time>2014-06-02T18:21:48Z</time>
      </trkpt>
      <trkpt lat="59.9557002" lon="17.7170182">
        <ele>57.8165</ele>
        <time>2014-06-02T18:21:49Z</time>
      </trkpt>
      <trkpt lat="59.9557111" lon="17.7170476">
        <ele>58.2971</ele>
        <time>2014-06-02T18:21:50Z</time>
      </trkpt>
      <trkpt lat="59.9557213" lon="17.7170714">
        <ele>58.2971</ele>
        <time>2014-06-02T18:21:51Z</time>
      </trkpt>
      <trkpt lat="59.955735" lon="17.7170969">
        <ele>59.2584</ele>
        <time>2014-06-02T18:21:52Z</time>
      </trkpt>
      <trkpt lat="59.9557494" lon="17.7171264">
        <ele>59.7391</ele>
        <time>2014-06-02T18:21:53Z</time>
      </trkpt>
      <trkpt lat="59.9557679" lon="17.7171631">
        <ele>60.7003</ele>
        <time>2014-06-02T18:21:54Z</time>
      </trkpt>
      <trkpt lat="59.9557814" lon="17.7171993">
        <ele>60.7003</ele>
        <time>2014-06-02T18:21:55Z</time>
      </trkpt>
      <trkpt lat="59.955794" lon="17.717228">
        <ele>59.7391</ele>
        <time>2014-06-02T18:21:56Z</time>
      </trkpt>
      <trkpt lat="59.9558065" lon="17.7172546">
        <ele>59.7391</ele>
        <time>2014-06-02T18:21:57Z</time>
      </trkpt>
      <trkpt lat="59.9558163" lon="17.7172896">
        <ele>59.7391</ele>
        <time>2014-06-02T18:21:58Z</time>
      </trkpt>
      <trkpt lat="59.9558256" lon="17.7173338">
        <ele>59.7391</ele>
        <time>2014-06-02T18:21:59Z</time>
      </trkpt>
      <trkpt lat="59.955838" lon="17.7173747">
        <ele>60.2197</ele>
        <time>2014-06-02T18:22:00Z</time>
      </trkpt>
      <trkpt lat="59.9558521" lon="17.7174191">
        <ele>60.2197</ele>
        <time>2014-06-02T18:22:01Z</time>
      </trkpt>
      <trkpt lat="59.955867" lon="17.7174492">
        <ele>60.2197</ele>
        <time>2014-06-02T18:22:02Z</time>
      </trkpt>
      <trkpt lat="59.9558726" lon="17.7175005">
        <ele>60.2197</ele>
        <time>2014-06-02T18:22:03Z</time>
      </trkpt>
      <trkpt lat="59.9558868" lon="17.7175383">
        <ele>60.7003</ele>
        <time>2014-06-02T18:22:04Z</time>
      </trkpt>
      <trkpt lat="59.9559039" lon="17.7175741">
        <ele>61.6617</ele>
        <time>2014-06-02T18:22:05Z</time>
      </trkpt>
      <trkpt lat="59.9559174" lon="17.7176026">
        <ele>61.6617</ele>
        <time>2014-06-02T18:22:06Z</time>
      </trkpt>
      <trkpt lat="59.9559354" lon="17.7176269">
        <ele>62.1423</ele>
        <time>2014-06-02T18:22:07Z</time>
      </trkpt>
      <trkpt lat="59.9559456" lon="17.7176673">
        <ele>62.1423</ele>
        <time>2014-06-02T18:22:08Z</time>
      </trkpt>
      <trkpt lat="59.9559549" lon="17.7177031">
        <ele>61.181</ele>
        <time>2014-06-02T18:22:09Z</time>
      </trkpt>
      <trkpt lat="59.9559697" lon="17.7177373">
        <ele>60.7003</ele>
        <time>2014-06-02T18:22:10Z</time>
      </trkpt>
      <trkpt lat="59.9559851" lon="17.7177746">
        <ele>60.2197</ele>
        <time>2014-06-02T18:22:11Z</time>
      </trkpt>
      <trkpt lat="59.9559951" lon="17.7178247">
        <ele>60.7003</ele>
        <time>2014-06-02T18:22:12Z</time>
      </trkpt>
      <trkpt lat="59.9560064" lon="17.7178698">
        <ele>60.7003</ele>
        <time>2014-06-02T18:22:13Z</time>
      </trkpt>
      <trkpt lat="59.9560217" lon="17.7179153">
        <ele>61.181</ele>
        <time>2014-06-02T18:22:14Z</time>
      </trkpt>
      <trkpt lat="59.9560374" lon="17.7179646">
        <ele>62.1423</ele>
        <time>2014-06-02T18:22:15Z</time>
      </trkpt>
      <trkpt lat="59.9560509" lon="17.7180015">
        <ele>62.1423</ele>
        <time>2014-06-02T18:22:16Z</time>
      </trkpt>
      <trkpt lat="59.9560608" lon="17.7180376">
        <ele>62.1423</ele>
        <time>2014-06-02T18:22:17Z</time>
      </trkpt>
      <trkpt lat="59.9560735" lon="17.718076">
        <ele>62.1423</ele>
        <time>2014-06-02T18:22:18Z</time>
      </trkpt>
      <trkpt lat="59.9560927" lon="17.7181101">
        <ele>62.1423</ele>
        <time>2014-06-02T18:22:19Z</time>
      </trkpt>
      <trkpt lat="59.9561094" lon="17.7181409">
        <ele>61.6617</ele>
        <time>2014-06-02T18:22:20Z</time>
      </trkpt>
      <trkpt lat="59.9561276" lon="17.7181738">
        <ele>62.1423</ele>
        <time>2014-06-02T18:22:21Z</time>
      </trkpt>
      <trkpt lat="59.9561414" lon="17.7182203">
        <ele>62.6229</ele>
        <time>2014-06-02T18:22:22Z</time>
      </trkpt>
      <trkpt lat="59.956152" lon="17.718262">
        <ele>62.6229</ele>
        <time>2014-06-02T18:22:23Z</time>
      </trkpt>
      <trkpt lat="59.9561623" lon="17.7182975">
        <ele>62.1423</ele>
        <time>2014-06-02T18:22:24Z</time>
      </trkpt>
      <trkpt lat="59.9561733" lon="17.7183377">
        <ele>62.1423</ele>
        <time>2014-06-02T18:22:25Z</time>
      </trkpt>
      <trkpt lat="59.9561844" lon="17.7183775">
        <ele>61.6617</ele>
        <time>2014-06-02T18:22:26Z</time>
      </trkpt>
      <trkpt lat="59.9561923" lon="17.7184161">
        <ele>61.181</ele>
        <time>2014-06-02T18:22:27Z</time>
      </trkpt>
      <trkpt lat="59.9562011" lon="17.7184542">
        <ele>61.181</ele>
        <time>2014-06-02T18:22:28Z</time>
      </trkpt>
      <trkpt lat="59.9562134" lon="17.7184911">
        <ele>62.1423</ele>
        <time>2014-06-02T18:22:29Z</time>
      </trkpt>
      <trkpt lat="59.9562173" lon="17.7185205">
        <ele>61.181</ele>
        <time>2014-06-02T18:22:30Z</time>
      </trkpt>
      <trkpt lat="59.9562228" lon="17.7185573">
        <ele>60.7003</ele>
        <time>2014-06-02T18:22:31Z</time>
      </trkpt>
      <trkpt lat="59.9562287" lon="17.7186052">
        <ele>61.181</ele>
        <time>2014-06-02T18:22:32Z</time>
      </trkpt>
      <trkpt lat="59.9562333" lon="17.7186458">
        <ele>61.181</ele>
        <time>2014-06-02T18:22:33Z</time>
      </trkpt>
      <trkpt lat="59.9562364" lon="17.718693">
        <ele>60.7003</ele>
        <time>2014-06-02T18:22:34Z</time>
      </trkpt>
      <trkpt lat="59.9562349" lon="17.7187391">
        <ele>60.2197</ele>
        <time>2014-06-02T18:22:35Z</time>
      </trkpt>
      <trkpt lat="59.9562405" lon="17.71878">
        <ele>59.7391</ele>
        <time>2014-06-02T18:22:36Z</time>
      </trkpt>
      <trkpt lat="59.9562435" lon="17.718822">
        <ele>59.7391</ele>
        <time>2014-06-02T18:22:37Z</time>
      </trkpt>
      <trkpt lat="59.9562395" lon="17.7188701">
        <ele>59.2584</ele>
        <time>2014-06-02T18:22:38Z</time>
      </trkpt>
      <trkpt lat="59.9562348" lon="17.7189141">
        <ele>58.7777</ele>
        <time>2014-06-02T18:22:39Z</time>
      </trkpt>
      <trkpt lat="59.9562259" lon="17.7189592">
        <ele>58.2971</ele>
        <time>2014-06-02T18:22:40Z</time>
      </trkpt>
      <trkpt lat="59.9562115" lon="17.7190033">
        <ele>57.3358</ele>
        <time>2014-06-02T18:22:41Z</time>
      </trkpt>
      <trkpt lat="59.956194" lon="17.7190431">
        <ele>56.8551</ele>
        <time>2014-06-02T18:22:42Z</time>
      </trkpt>
      <trkpt lat="59.9561766" lon="17.7190746">
        <ele>56.8551</ele>
        <time>2014-06-02T18:22:43Z</time>
      </trkpt>
      <trkpt lat="59.9561618" lon="17.7191047">
        <ele>56.3745</ele>
        <time>2014-06-02T18:22:44Z</time>
      </trkpt>
      <trkpt lat="59.9561439" lon="17.7191377">
        <ele>55.4131</ele>
        <time>2014-06-02T18:22:45Z</time>
      </trkpt>
      <trkpt lat="59.9561255" lon="17.719168">
        <ele>54.9324</ele>
        <time>2014-06-02T18:22:46Z</time>
      </trkpt>
      <trkpt lat="59.9561108" lon="17.7192062">
        <ele>54.4518</ele>
        <time>2014-06-02T18:22:47Z</time>
      </trkpt>
      <trkpt lat="59.9560944" lon="17.7192353">
        <ele>54.4518</ele>
        <time>2014-06-02T18:22:48Z</time>
      </trkpt>
      <trkpt lat="59.9560751" lon="17.7192722">
        <ele>53.9712</ele>
        <time>2014-06-02T18:22:49Z</time>
      </trkpt>
      <trkpt lat="59.9560555" lon="17.7193265">
        <ele>54.9324</ele>
        <time>2014-06-02T18:22:50Z</time>
      </trkpt>
      <trkpt lat="59.9560316" lon="17.7193788">
        <ele>54.9324</ele>
        <time>2014-06-02T18:22:51Z</time>
      </trkpt>
      <trkpt lat="59.9560095" lon="17.7194446">
        <ele>56.8551</ele>
        <time>2014-06-02T18:22:52Z</time>
      </trkpt>
      <trkpt lat="59.9559893" lon="17.7194819">
        <ele>56.8551</ele>
        <time>2014-06-02T18:22:53Z</time>
      </trkpt>
      <trkpt lat="59.9559689" lon="17.7195094">
        <ele>56.8551</ele>
        <time>2014-06-02T18:22:54Z</time>
      </trkpt>
      <trkpt lat="59.9559479" lon="17.7195371">
        <ele>57.3358</ele>
        <time>2014-06-02T18:22:55Z</time>
      </trkpt>
      <trkpt lat="59.9559249" lon="17.7195477">
        <ele>56.8551</ele>
        <time>2014-06-02T18:22:56Z</time>
      </trkpt>
      <trkpt lat="59.9559033" lon="17.7195854">
        <ele>58.2971</ele>
        <time>2014-06-02T18:22:57Z</time>
      </trkpt>
      <trkpt lat="59.9558827" lon="17.7196203">
        <ele>59.7391</ele>
        <time>2014-06-02T18:22:58Z</time>
      </trkpt>
      <trkpt lat="59.955867" lon="17.7196414">
        <ele>60.2197</ele>
        <time>2014-06-02T18:22:59Z</time>
      </trkpt>
      <trkpt lat="59.9558529" lon="17.7196564">
        <ele>60.2197</ele>
        <time>2014-06-02T18:23:00Z</time>
      </trkpt>
      <trkpt lat="59.9558375" lon="17.7196793">
        <ele>60.7003</ele>
        <time>2014-06-02T18:23:01Z</time>
      </trkpt>
      <trkpt lat="59.9558146" lon="17.719701">
        <ele>60.7003</ele>
        <time>2014-06-02T18:23:02Z</time>
      </trkpt>
      <trkpt lat="59.955795" lon="17.7197352">
        <ele>61.181</ele>
        <time>2014-06-02T18:23:03Z</time>
      </trkpt>
      <trkpt lat="59.9557759" lon="17.719762">
        <ele>61.6617</ele>
        <time>2014-06-02T18:23:04Z</time>
      </trkpt>
      <trkpt lat="59.9557525" lon="17.7197901">
        <ele>62.1423</ele>
        <time>2014-06-02T18:23:05Z</time>
      </trkpt>
      <trkpt lat="59.9557303" lon="17.7198051">
        <ele>61.6617</ele>
        <time>2014-06-02T18:23:06Z</time>
      </trkpt>
      <trkpt lat="59.9557081" lon="17.7198288">
        <ele>62.1423</ele>
        <time>2014-06-02T18:23:07Z</time>
      </trkpt>
      <trkpt lat="59.9556858" lon="17.7198458">
        <ele>61.6617</ele>
        <time>2014-06-02T18:23:08Z</time>
      </trkpt>
      <trkpt lat="59.9556629" lon="17.7198575">
        <ele>61.181</ele>
        <time>2014-06-02T18:23:09Z</time>
      </trkpt>
      <trkpt lat="59.9556401" lon="17.719869">
        <ele>61.181</ele>
        <time>2014-06-02T18:23:10Z</time>
      </trkpt>
      <trkpt lat="59.9556197" lon="17.7198854">
        <ele>61.6617</ele>
        <time>2014-06-02T18:23:11Z</time>
      </trkpt>
      <trkpt lat="59.9556007" lon="17.719907">
        <ele>62.1423</ele>
        <time>2014-06-02T18:23:12Z</time>
      </trkpt>
      <trkpt lat="59.9555785" lon="17.7199195">
        <ele>62.1423</ele>
        <time>2014-06-02T18:23:13Z</time>
      </trkpt>
      <trkpt lat="59.9555522" lon="17.7199326">
        <ele>62.1423</ele>
        <time>2014-06-02T18:23:14Z</time>
      </trkpt>
      <trkpt lat="59.9555282" lon="17.7199373">
        <ele>62.1423</ele>
        <time>2014-06-02T18:23:15Z</time>
      </trkpt>
      <trkpt lat="59.9555052" lon="17.7199267">
        <ele>62.1423</ele>
        <time>2014-06-02T18:23:16Z</time>
      </trkpt>
      <trkpt lat="59.9554786" lon="17.7199182">
        <ele>61.6617</ele>
        <time>2014-06-02T18:23:17Z</time>
      </trkpt>
      <trkpt lat="59.9554562" lon="17.7199191">
        <ele>61.6617</ele>
        <time>2014-06-02T18:23:18Z</time>
      </trkpt>
      <trkpt lat="59.955436" lon="17.7199254">
        <ele>61.181</ele>
        <time>2014-06-02T18:23:19Z</time>
      </trkpt>
      <trkpt lat="59.9554153" lon="17.7199399">
        <ele>61.181</ele>
        <time>2014-06-02T18:23:20Z</time>
      </trkpt>
      <trkpt lat="59.9553909" lon="17.7199616">
        <ele>60.7003</ele>
        <time>2014-06-02T18:23:21Z</time>
      </trkpt>
      <trkpt lat="59.9553672" lon="17.7199852">
        <ele>60.2197</ele>
        <time>2014-06-02T18:23:22Z</time>
      </trkpt>
      <trkpt lat="59.9553474" lon="17.7200055">
        <ele>59.7391</ele>
        <time>2014-06-02T18:23:23Z</time>
      </trkpt>
      <trkpt lat="59.9553289" lon="17.7200242">
        <ele>60.2197</ele>
        <time>2014-06-02T18:23:24Z</time>
      </trkpt>
      <trkpt lat="59.9553101" lon="17.7200593">
        <ele>60.7003</ele>
        <time>2014-06-02T18:23:25Z</time>
      </trkpt>
      <trkpt lat="59.9552906" lon="17.7200963">
        <ele>60.7003</ele>
        <time>2014-06-02T18:23:26Z</time>
      </trkpt>
      <trkpt lat="59.9552711" lon="17.7201341">
        <ele>61.6617</ele>
        <time>2014-06-02T18:23:27Z</time>
      </trkpt>
      <trkpt lat="59.9552485" lon="17.7201601">
        <ele>61.181</ele>
        <time>2014-06-02T18:23:28Z</time>
      </trkpt>
      <trkpt lat="59.9552277" lon="17.7201843">
        <ele>61.181</ele>
        <time>2014-06-02T18:23:29Z</time>
      </trkpt>
      <trkpt lat="59.9552092" lon="17.7202075">
        <ele>60.7003</ele>
        <time>2014-06-02T18:23:30Z</time>
      </trkpt>
      <trkpt lat="59.955191" lon="17.7202304">
        <ele>60.7003</ele>
        <time>2014-06-02T18:23:31Z</time>
      </trkpt>
      <trkpt lat="59.955173" lon="17.720281">
        <ele>62.1423</ele>
        <time>2014-06-02T18:23:32Z</time>
      </trkpt>
      <trkpt lat="59.9551538" lon="17.7203195">
        <ele>63.1036</ele>
        <time>2014-06-02T18:23:33Z</time>
      </trkpt>
      <trkpt lat="59.9551334" lon="17.7203471">
        <ele>62.6229</ele>
        <time>2014-06-02T18:23:34Z</time>
      </trkpt>
      <trkpt lat="59.9551072" lon="17.7203734">
        <ele>62.6229</ele>
        <time>2014-06-02T18:23:35Z</time>
      </trkpt>
      <trkpt lat="59.9550806" lon="17.7203904">
        <ele>62.1423</ele>
        <time>2014-06-02T18:23:36Z</time>
      </trkpt>
      <trkpt lat="59.9550532" lon="17.7204142">
        <ele>62.1423</ele>
        <time>2014-06-02T18:23:37Z</time>
      </trkpt>
      <trkpt lat="59.9550214" lon="17.7204401">
        <ele>61.6617</ele>
        <time>2014-06-02T18:23:38Z</time>
      </trkpt>
      <trkpt lat="59.95499" lon="17.7204619">
        <ele>62.1423</ele>
        <time>2014-06-02T18:23:39Z</time>
      </trkpt>
      <trkpt lat="59.9549657" lon="17.7204976">
        <ele>63.5844</ele>
        <time>2014-06-02T18:23:40Z</time>
      </trkpt>
      <trkpt lat="59.9549401" lon="17.7205148">
        <ele>63.1036</ele>
        <time>2014-06-02T18:23:41Z</time>
      </trkpt>
      <trkpt lat="59.9549135" lon="17.7205398">
        <ele>62.6229</ele>
        <time>2014-06-02T18:23:42Z</time>
      </trkpt>
      <trkpt lat="59.9548867" lon="17.720578">
        <ele>62.1423</ele>
        <time>2014-06-02T18:23:43Z</time>
      </trkpt>
      <trkpt lat="59.9548637" lon="17.7206127">
        <ele>62.1423</ele>
        <time>2014-06-02T18:23:44Z</time>
      </trkpt>
      <trkpt lat="59.9548459" lon="17.7206406">
        <ele>61.6617</ele>
        <time>2014-06-02T18:23:45Z</time>
      </trkpt>
      <trkpt lat="59.9548289" lon="17.7206697">
        <ele>60.2197</ele>
        <time>2014-06-02T18:23:46Z</time>
      </trkpt>
      <trkpt lat="59.9548156" lon="17.7207132">
        <ele>60.7003</ele>
        <time>2014-06-02T18:23:47Z</time>
      </trkpt>
      <trkpt lat="59.9547968" lon="17.7207396">
        <ele>59.2584</ele>
        <time>2014-06-02T18:23:48Z</time>
      </trkpt>
      <trkpt lat="59.9547792" lon="17.7207805">
        <ele>58.2971</ele>
        <time>2014-06-02T18:23:49Z</time>
      </trkpt>
      <trkpt lat="59.9547705" lon="17.7208283">
        <ele>57.3358</ele>
        <time>2014-06-02T18:23:50Z</time>
      </trkpt>
      <trkpt lat="59.9547676" lon="17.7208707">
        <ele>56.8551</ele>
        <time>2014-06-02T18:23:51Z</time>
      </trkpt>
      <trkpt lat="59.9547674" lon="17.720911">
        <ele>56.3745</ele>
        <time>2014-06-02T18:23:52Z</time>
      </trkpt>
      <trkpt lat="59.9547694" lon="17.7209555">
        <ele>56.3745</ele>
        <time>2014-06-02T18:23:53Z</time>
      </trkpt>
      <trkpt lat="59.9547717" lon="17.7210072">
        <ele>56.3745</ele>
        <time>2014-06-02T18:23:54Z</time>
      </trkpt>
      <trkpt lat="59.9547735" lon="17.7210564">
        <ele>56.3745</ele>
        <time>2014-06-02T18:23:55Z</time>
      </trkpt>
      <trkpt lat="59.9547774" lon="17.7210976">
        <ele>55.8938</ele>
        <time>2014-06-02T18:23:56Z</time>
      </trkpt>
      <trkpt lat="59.9547829" lon="17.721138">
        <ele>54.9324</ele>
        <time>2014-06-02T18:23:57Z</time>
      </trkpt>
      <trkpt lat="59.9547914" lon="17.7211779">
        <ele>54.4518</ele>
        <time>2014-06-02T18:23:58Z</time>
      </trkpt>
      <trkpt lat="59.9548036" lon="17.7212108">
        <ele>53.9712</ele>
        <time>2014-06-02T18:23:59Z</time>
      </trkpt>
      <trkpt lat="59.9548186" lon="17.7212338">
        <ele>53.4905</ele>
        <time>2014-06-02T18:24:00Z</time>
      </trkpt>
      <trkpt lat="59.9548384" lon="17.7212603">
        <ele>53.0098</ele>
        <time>2014-06-02T18:24:01Z</time>
      </trkpt>
      <trkpt lat="59.9548636" lon="17.721272">
        <ele>53.0098</ele>
        <time>2014-06-02T18:24:02Z</time>
      </trkpt>
      <trkpt lat="59.9548878" lon="17.7212829">
        <ele>53.4905</ele>
        <time>2014-06-02T18:24:03Z</time>
      </trkpt>
      <trkpt lat="59.9549085" lon="17.7212935">
        <ele>53.0098</ele>
        <time>2014-06-02T18:24:04Z</time>
      </trkpt>
      <trkpt lat="59.9549325" lon="17.7213104">
        <ele>53.0098</ele>
        <time>2014-06-02T18:24:05Z</time>
      </trkpt>
      <trkpt lat="59.9549582" lon="17.7213224">
        <ele>53.0098</ele>
        <time>2014-06-02T18:24:06Z</time>
      </trkpt>
      <trkpt lat="59.9549797" lon="17.7213307">
        <ele>53.0098</ele>
        <time>2014-06-02T18:24:07Z</time>
      </trkpt>
      <trkpt lat="59.9550102" lon="17.7213383">
        <ele>53.4905</ele>
        <time>2014-06-02T18:24:08Z</time>
      </trkpt>
      <trkpt lat="59.9550407" lon="17.7213413">
        <ele>53.4905</ele>
        <time>2014-06-02T18:24:09Z</time>
      </trkpt>
      <trkpt lat="59.9550656" lon="17.7213395">
        <ele>53.4905</ele>
        <time>2014-06-02T18:24:10Z</time>
      </trkpt>
      <trkpt lat="59.9550952" lon="17.7213326">
        <ele>53.9712</ele>
        <time>2014-06-02T18:24:11Z</time>
      </trkpt>
      <trkpt lat="59.955135" lon="17.7213172">
        <ele>54.9324</ele>
        <time>2014-06-02T18:24:12Z</time>
      </trkpt>
      <trkpt lat="59.9551693" lon="17.7213042">
        <ele>56.3745</ele>
        <time>2014-06-02T18:24:13Z</time>
      </trkpt>
      <trkpt lat="59.9552081" lon="17.7212965">
        <ele>57.8165</ele>
        <time>2014-06-02T18:24:14Z</time>
      </trkpt>
      <trkpt lat="59.955247" lon="17.7212969">
        <ele>59.7391</ele>
        <time>2014-06-02T18:24:15Z</time>
      </trkpt>
      <trkpt lat="59.9552766" lon="17.721298">
        <ele>61.181</ele>
        <time>2014-06-02T18:24:16Z</time>
      </trkpt>
      <trkpt lat="59.955311" lon="17.7212944">
        <ele>62.6229</ele>
        <time>2014-06-02T18:24:17Z</time>
      </trkpt>
      <trkpt lat="59.9553525" lon="17.7212877">
        <ele>65.5071</ele>
        <time>2014-06-02T18:24:18Z</time>
      </trkpt>
      <trkpt lat="59.9553868" lon="17.7212847">
        <ele>66.949</ele>
        <time>2014-06-02T18:24:19Z</time>
      </trkpt>
      <trkpt lat="59.9554187" lon="17.7212804">
        <ele>68.3909</ele>
        <time>2014-06-02T18:24:20Z</time>
      </trkpt>
      <trkpt lat="59.955447" lon="17.7212747">
        <ele>69.3523</ele>
        <time>2014-06-02T18:24:21Z</time>
      </trkpt>
      <trkpt lat="59.9554795" lon="17.7212645">
        <ele>70.7942</ele>
        <time>2014-06-02T18:24:22Z</time>
      </trkpt>
      <trkpt lat="59.9555179" lon="17.7212491">
        <ele>72.7169</ele>
        <time>2014-06-02T18:24:23Z</time>
      </trkpt>
      <trkpt lat="59.9555508" lon="17.7212431">
        <ele>74.1588</ele>
        <time>2014-06-02T18:24:24Z</time>
      </trkpt>
      <trkpt lat="59.9555883" lon="17.7212307">
        <ele>76.0814</ele>
        <time>2014-06-02T18:24:25Z</time>
      </trkpt>
      <trkpt lat="59.955621" lon="17.7212158">
        <ele>77.5234</ele>
        <time>2014-06-02T18:24:26Z</time>
      </trkpt>
      <trkpt lat="59.9556442" lon="17.7212121">
        <ele>78.004</ele>
        <time>2014-06-02T18:24:27Z</time>
      </trkpt>
      <trkpt lat="59.9556785" lon="17.7212021">
        <ele>79.446</ele>
        <time>2014-06-02T18:24:28Z</time>
      </trkpt>
      <trkpt lat="59.9557125" lon="17.7211986">
        <ele>79.9266</ele>
        <time>2014-06-02T18:24:29Z</time>
      </trkpt>
      <trkpt lat="59.9557453" lon="17.721195">
        <ele>80.8882</ele>
        <time>2014-06-02T18:24:30Z</time>
      </trkpt>
      <trkpt lat="59.9557669" lon="17.7211836">
        <ele>80.4075</ele>
        <time>2014-06-02T18:24:31Z</time>
      </trkpt>
      <trkpt lat="59.9557789" lon="17.7211793">
        <ele>79.446</ele>
        <time>2014-06-02T18:24:32Z</time>
      </trkpt>
      <trkpt lat="59.9557871" lon="17.7211748">
        <ele>78.4847</ele>
        <time>2014-06-02T18:24:33Z</time>
      </trkpt>
      <trkpt lat="59.9558028" lon="17.7211688">
        <ele>77.5234</ele>
        <time>2014-06-02T18:24:34Z</time>
      </trkpt>
      <trkpt lat="59.9558287" lon="17.7211571">
        <ele>77.5234</ele>
        <time>2014-06-02T18:24:35Z</time>
      </trkpt>
      <trkpt lat="59.9558635" lon="17.7211469">
        <ele>78.9655</ele>
        <time>2014-06-02T18:24:36Z</time>
      </trkpt>
      <trkpt lat="59.9559028" lon="17.7211389">
        <ele>79.9266</ele>
        <time>2014-06-02T18:24:37Z</time>
      </trkpt>
      <trkpt lat="59.9559354" lon="17.7211287">
        <ele>80.4075</ele>
        <time>2014-06-02T18:24:38Z</time>
      </trkpt>
      <trkpt lat="59.9559654" lon="17.7211338">
        <ele>80.8882</ele>
        <time>2014-06-02T18:24:39Z</time>
      </trkpt>
      <trkpt lat="59.9559922" lon="17.721144">
        <ele>80.4075</ele>
        <time>2014-06-02T18:24:40Z</time>
      </trkpt>
      <trkpt lat="59.9560219" lon="17.721158">
        <ele>80.4075</ele>
        <time>2014-06-02T18:24:41Z</time>
      </trkpt>
      <trkpt lat="59.9560364" lon="17.7211856">
        <ele>78.004</ele>
        <time>2014-06-02T18:24:42Z</time>
      </trkpt>
      <trkpt lat="59.956051" lon="17.7212181">
        <ele>76.5621</ele>
        <time>2014-06-02T18:24:43Z</time>
      </trkpt>
      <trkpt lat="59.9560595" lon="17.7212592">
        <ele>74.1588</ele>
        <time>2014-06-02T18:24:44Z</time>
      </trkpt>
      <trkpt lat="59.9560694" lon="17.7213088">
        <ele>72.7169</ele>
        <time>2014-06-02T18:24:45Z</time>
      </trkpt>
      <trkpt lat="59.9560757" lon="17.7213638">
        <ele>71.7555</ele>
        <time>2014-06-02T18:24:46Z</time>
      </trkpt>
      <trkpt lat="59.9560715" lon="17.7214156">
        <ele>70.3135</ele>
        <time>2014-06-02T18:24:47Z</time>
      </trkpt>
      <trkpt lat="59.9560562" lon="17.7214752">
        <ele>68.8716</ele>
        <time>2014-06-02T18:24:48Z</time>
      </trkpt>
      <trkpt lat="59.9560368" lon="17.7215295">
        <ele>67.4297</ele>
        <time>2014-06-02T18:24:49Z</time>
      </trkpt>
      <trkpt lat="59.9560281" lon="17.7215809">
        <ele>66.949</ele>
        <time>2014-06-02T18:24:50Z</time>
      </trkpt>
      <trkpt lat="59.9560181" lon="17.7216357">
        <ele>65.9877</ele>
        <time>2014-06-02T18:24:51Z</time>
      </trkpt>
      <trkpt lat="59.9560067" lon="17.7216985">
        <ele>65.5071</ele>
        <time>2014-06-02T18:24:52Z</time>
      </trkpt>
      <trkpt lat="59.9559969" lon="17.7217615">
        <ele>65.5071</ele>
        <time>2014-06-02T18:24:53Z</time>
      </trkpt>
      <trkpt lat="59.9559868" lon="17.7218187">
        <ele>65.5071</ele>
        <time>2014-06-02T18:24:54Z</time>
      </trkpt>
      <trkpt lat="59.9559837" lon="17.7218741">
        <ele>65.5071</ele>
        <time>2014-06-02T18:24:55Z</time>
      </trkpt>
      <trkpt lat="59.955984" lon="17.7219269">
        <ele>65.5071</ele>
        <time>2014-06-02T18:24:56Z</time>
      </trkpt>
      <trkpt lat="59.9559849" lon="17.7219761">
        <ele>65.5071</ele>
        <time>2014-06-02T18:24:57Z</time>
      </trkpt>
      <trkpt lat="59.9559903" lon="17.7220238">
        <ele>65.5071</ele>
        <time>2014-06-02T18:24:58Z</time>
      </trkpt>
      <trkpt lat="59.9559961" lon="17.7220767">
        <ele>65.0264</ele>
        <time>2014-06-02T18:24:59Z</time>
      </trkpt>
      <trkpt lat="59.9560025" lon="17.7221346">
        <ele>64.5457</ele>
        <time>2014-06-02T18:25:00Z</time>
      </trkpt>
      <trkpt lat="59.9560111" lon="17.7221898">
        <ele>64.5457</ele>
        <time>2014-06-02T18:25:01Z</time>
      </trkpt>
      <trkpt lat="59.9560219" lon="17.7222422">
        <ele>65.0264</ele>
        <time>2014-06-02T18:25:02Z</time>
      </trkpt>
      <trkpt lat="59.9560323" lon="17.7222883">
        <ele>64.5457</ele>
        <time>2014-06-02T18:25:03Z</time>
      </trkpt>
      <trkpt lat="59.9560434" lon="17.7223424">
        <ele>64.5457</ele>
        <time>2014-06-02T18:25:04Z</time>
      </trkpt>
      <trkpt lat="59.9560571" lon="17.7224033">
        <ele>65.0264</ele>
        <time>2014-06-02T18:25:05Z</time>
      </trkpt>
      <trkpt lat="59.9560652" lon="17.7224598">
        <ele>64.5457</ele>
        <time>2014-06-02T18:25:06Z</time>
      </trkpt>
      <trkpt lat="59.9560782" lon="17.7225132">
        <ele>65.0264</ele>
        <time>2014-06-02T18:25:07Z</time>
      </trkpt>
      <trkpt lat="59.956088" lon="17.7225553">
        <ele>64.5457</ele>
        <time>2014-06-02T18:25:08Z</time>
      </trkpt>
      <trkpt lat="59.9560959" lon="17.7225967">
        <ele>64.0651</ele>
        <time>2014-06-02T18:25:09Z</time>
      </trkpt>
      <trkpt lat="59.9561031" lon="17.7226462">
        <ele>64.5457</ele>
        <time>2014-06-02T18:25:10Z</time>
      </trkpt>
      <trkpt lat="59.9561084" lon="17.7226863">
        <ele>64.0651</ele>
        <time>2014-06-02T18:25:11Z</time>
      </trkpt>
      <trkpt lat="59.956115" lon="17.7227329">
        <ele>63.5844</ele>
        <time>2014-06-02T18:25:12Z</time>
      </trkpt>
      <trkpt lat="59.9561233" lon="17.7227864">
        <ele>64.0651</ele>
        <time>2014-06-02T18:25:13Z</time>
      </trkpt>
      <trkpt lat="59.956128" lon="17.7228444">
        <ele>64.0651</ele>
        <time>2014-06-02T18:25:14Z</time>
      </trkpt>
      <trkpt lat="59.9561295" lon="17.7229048">
        <ele>63.5844</ele>
        <time>2014-06-02T18:25:15Z</time>
      </trkpt>
      <trkpt lat="59.9561328" lon="17.7229573">
        <ele>63.1036</ele>
        <time>2014-06-02T18:25:16Z</time>
      </trkpt>
      <trkpt lat="59.9561353" lon="17.7230074">
        <ele>63.1036</ele>
        <time>2014-06-02T18:25:17Z</time>
      </trkpt>
      <trkpt lat="59.9561281" lon="17.723064">
        <ele>62.6229</ele>
        <time>2014-06-02T18:25:18Z</time>
      </trkpt>
      <trkpt lat="59.9561207" lon="17.7231168">
        <ele>62.6229</ele>
        <time>2014-06-02T18:25:19Z</time>
      </trkpt>
      <trkpt lat="59.9561123" lon="17.7231738">
        <ele>62.1423</ele>
        <time>2014-06-02T18:25:20Z</time>
      </trkpt>
      <trkpt lat="59.956102" lon="17.7232266">
        <ele>62.1423</ele>
        <time>2014-06-02T18:25:21Z</time>
      </trkpt>
      <trkpt lat="59.9560898" lon="17.723273">
        <ele>61.6617</ele>
        <time>2014-06-02T18:25:22Z</time>
      </trkpt>
      <trkpt lat="59.9560758" lon="17.7233141">
        <ele>61.181</ele>
        <time>2014-06-02T18:25:23Z</time>
      </trkpt>
      <trkpt lat="59.9560619" lon="17.7233586">
        <ele>60.7003</ele>
        <time>2014-06-02T18:25:24Z</time>
      </trkpt>
      <trkpt lat="59.9560488" lon="17.7234151">
        <ele>60.2197</ele>
        <time>2014-06-02T18:25:25Z</time>
      </trkpt>
      <trkpt lat="59.9560324" lon="17.7234639">
        <ele>59.2584</ele>
        <time>2014-06-02T18:25:26Z</time>
      </trkpt>
      <trkpt lat="59.9560119" lon="17.7235115">
        <ele>58.2971</ele>
        <time>2014-06-02T18:25:27Z</time>
      </trkpt>
      <trkpt lat="59.9559854" lon="17.7235654">
        <ele>57.8165</ele>
        <time>2014-06-02T18:25:28Z</time>
      </trkpt>
      <trkpt lat="59.9559637" lon="17.723614">
        <ele>57.8165</ele>
        <time>2014-06-02T18:25:29Z</time>
      </trkpt>
      <trkpt lat="59.9559452" lon="17.7236591">
        <ele>57.8165</ele>
        <time>2014-06-02T18:25:30Z</time>
      </trkpt>
      <trkpt lat="59.9559244" lon="17.7237038">
        <ele>57.3358</ele>
        <time>2014-06-02T18:25:31Z</time>
      </trkpt>
      <trkpt lat="59.9559041" lon="17.7237564">
        <ele>57.3358</ele>
        <time>2014-06-02T18:25:32Z</time>
      </trkpt>
      <trkpt lat="59.9558782" lon="17.7237819">
        <ele>56.8551</ele>
        <time>2014-06-02T18:25:33Z</time>
      </trkpt>
      <trkpt lat="59.9558521" lon="17.7237805">
        <ele>54.9324</ele>
        <time>2014-06-02T18:25:34Z</time>
      </trkpt>
      <trkpt lat="59.955826" lon="17.7237436">
        <ele>53.4905</ele>
        <time>2014-06-02T18:25:35Z</time>
      </trkpt>
      <trkpt lat="59.955811" lon="17.7237211">
        <ele>53.0098</ele>
        <time>2014-06-02T18:25:36Z</time>
      </trkpt>
      <trkpt lat="59.9557905" lon="17.7237061">
        <ele>53.4905</ele>
        <time>2014-06-02T18:25:37Z</time>
      </trkpt>
      <trkpt lat="59.9557655" lon="17.7236792">
        <ele>52.0486</ele>
        <time>2014-06-02T18:25:38Z</time>
      </trkpt>
      <trkpt lat="59.9557494" lon="17.7236752">
        <ele>53.0098</ele>
        <time>2014-06-02T18:25:39Z</time>
      </trkpt>
      <trkpt lat="59.9557298" lon="17.7236571">
        <ele>53.4905</ele>
        <time>2014-06-02T18:25:40Z</time>
      </trkpt>
      <trkpt lat="59.9557143" lon="17.7236249">
        <ele>53.4905</ele>
        <time>2014-06-02T18:25:41Z</time>
      </trkpt>
      <trkpt lat="59.9556909" lon="17.7235869">
        <ele>53.0098</ele>
        <time>2014-06-02T18:25:42Z</time>
      </trkpt>
      <trkpt lat="59.9556692" lon="17.7235654">
        <ele>52.0486</ele>
        <time>2014-06-02T18:25:43Z</time>
      </trkpt>
      <trkpt lat="59.955651" lon="17.7235543">
        <ele>51.5679</ele>
        <time>2014-06-02T18:25:44Z</time>
      </trkpt>
      <trkpt lat="59.9556235" lon="17.7235327">
        <ele>50.6066</ele>
        <time>2014-06-02T18:25:45Z</time>
      </trkpt>
      <trkpt lat="59.9556115" lon="17.7235136">
        <ele>50.6066</ele>
        <time>2014-06-02T18:25:46Z</time>
      </trkpt>
      <trkpt lat="59.9555907" lon="17.7234842">
        <ele>50.6066</ele>
        <time>2014-06-02T18:25:47Z</time>
      </trkpt>
      <trkpt lat="59.9555566" lon="17.7234463">
        <ele>49.6453</ele>
        <time>2014-06-02T18:25:48Z</time>
      </trkpt>
      <trkpt lat="59.9555282" lon="17.7234155">
        <ele>48.684</ele>
        <time>2014-06-02T18:25:49Z</time>
      </trkpt>
      <trkpt lat="59.9554926" lon="17.7233866">
        <ele>48.2034</ele>
        <time>2014-06-02T18:25:50Z</time>
      </trkpt>
      <trkpt lat="59.955464" lon="17.7233738">
        <ele>47.7225</ele>
        <time>2014-06-02T18:25:51Z</time>
      </trkpt>
      <trkpt lat="59.9554397" lon="17.7233761">
        <ele>47.7225</ele>
        <time>2014-06-02T18:25:52Z</time>
      </trkpt>
      <trkpt lat="59.9554139" lon="17.7233756">
        <ele>47.7225</ele>
        <time>2014-06-02T18:25:53Z</time>
      </trkpt>
      <trkpt lat="59.955393" lon="17.7233958">
        <ele>49.1646</ele>
        <time>2014-06-02T18:25:54Z</time>
      </trkpt>
      <trkpt lat="59.955369" lon="17.7234088">
        <ele>50.126</ele>
        <time>2014-06-02T18:25:55Z</time>
      </trkpt>
      <trkpt lat="59.9553459" lon="17.7234132">
        <ele>50.6066</ele>
        <time>2014-06-02T18:25:56Z</time>
      </trkpt>
      <trkpt lat="59.955324" lon="17.7234199">
        <ele>51.0872</ele>
        <time>2014-06-02T18:25:57Z</time>
      </trkpt>
      <trkpt lat="59.9553007" lon="17.7234307">
        <ele>51.5679</ele>
        <time>2014-06-02T18:25:58Z</time>
      </trkpt>
      <trkpt lat="59.9552792" lon="17.7234592">
        <ele>51.5679</ele>
        <time>2014-06-02T18:25:59Z</time>
      </trkpt>
      <trkpt lat="59.9552573" lon="17.7234999">
        <ele>53.0098</ele>
        <time>2014-06-02T18:26:00Z</time>
      </trkpt>
      <trkpt lat="59.9552236" lon="17.7235411">
        <ele>54.4518</ele>
        <time>2014-06-02T18:26:01Z</time>
      </trkpt>
      <trkpt lat="59.9551877" lon="17.7236006">
        <ele>56.8551</ele>
        <time>2014-06-02T18:26:02Z</time>
      </trkpt>
      <trkpt lat="59.955161" lon="17.7236569">
        <ele>58.7777</ele>
        <time>2014-06-02T18:26:03Z</time>
      </trkpt>
      <trkpt lat="59.9551325" lon="17.7236985">
        <ele>59.7391</ele>
        <time>2014-06-02T18:26:04Z</time>
      </trkpt>
      <trkpt lat="59.9551031" lon="17.723744">
        <ele>61.181</ele>
        <time>2014-06-02T18:26:05Z</time>
      </trkpt>
      <trkpt lat="59.9550811" lon="17.7237565">
        <ele>61.181</ele>
        <time>2014-06-02T18:26:06Z</time>
      </trkpt>
      <trkpt lat="59.9550517" lon="17.7237791">
        <ele>60.7003</ele>
        <time>2014-06-02T18:26:07Z</time>
      </trkpt>
      <trkpt lat="59.9550217" lon="17.7237981">
        <ele>59.7391</ele>
        <time>2014-06-02T18:26:08Z</time>
      </trkpt>
      <trkpt lat="59.9550036" lon="17.7238171">
        <ele>59.7391</ele>
        <time>2014-06-02T18:26:09Z</time>
      </trkpt>
      <trkpt lat="59.9549895" lon="17.7238291">
        <ele>60.2197</ele>
        <time>2014-06-02T18:26:10Z</time>
      </trkpt>
      <trkpt lat="59.9549786" lon="17.723819">
        <ele>59.2584</ele>
        <time>2014-06-02T18:26:11Z</time>
      </trkpt>
      <trkpt lat="59.9549682" lon="17.7238088">
        <ele>58.2971</ele>
        <time>2014-06-02T18:26:12Z</time>
      </trkpt>
      <trkpt lat="59.9549599" lon="17.7238196">
        <ele>57.3358</ele>
        <time>2014-06-02T18:26:13Z</time>
      </trkpt>
      <trkpt lat="59.95495" lon="17.7238177">
        <ele>56.3745</ele>
        <time>2014-06-02T18:26:14Z</time>
      </trkpt>
      <trkpt lat="59.954943" lon="17.723797">
        <ele>54.4518</ele>
        <time>2014-06-02T18:26:15Z</time>
      </trkpt>
      <trkpt lat="59.9549341" lon="17.7237746">
        <ele>53.4905</ele>
        <time>2014-06-02T18:26:16Z</time>
      </trkpt>
      <trkpt lat="59.9549165" lon="17.7237387">
        <ele>52.5292</ele>
        <time>2014-06-02T18:26:17Z</time>
      </trkpt>
      <trkpt lat="59.9549025" lon="17.7237131">
        <ele>52.5292</ele>
        <time>2014-06-02T18:26:18Z</time>
      </trkpt>
      <trkpt lat="59.9548879" lon="17.72367">
        <ele>51.5679</ele>
        <time>2014-06-02T18:26:19Z</time>
      </trkpt>
      <trkpt lat="59.9548743" lon="17.7236354">
        <ele>50.126</ele>
        <time>2014-06-02T18:26:20Z</time>
      </trkpt>
      <trkpt lat="59.9548606" lon="17.7236234">
        <ele>50.126</ele>
        <time>2014-06-02T18:26:21Z</time>
      </trkpt>
      <trkpt lat="59.9548418" lon="17.7236076">
        <ele>49.6453</ele>
        <time>2014-06-02T18:26:22Z</time>
      </trkpt>
      <trkpt lat="59.9548223" lon="17.7235957">
        <ele>48.684</ele>
        <time>2014-06-02T18:26:23Z</time>
      </trkpt>
      <trkpt lat="59.954802" lon="17.7235835">
        <ele>48.2034</ele>
        <time>2014-06-02T18:26:24Z</time>
      </trkpt>
      <trkpt lat="59.9547801" lon="17.7235686">
        <ele>48.2034</ele>
        <time>2014-06-02T18:26:25Z</time>
      </trkpt>
      <trkpt lat="59.9547575" lon="17.7235536">
        <ele>47.2418</ele>
        <time>2014-06-02T18:26:26Z</time>
      </trkpt>
      <trkpt lat="59.9547303" lon="17.7235301">
        <ele>46.7612</ele>
        <time>2014-06-02T18:26:27Z</time>
      </trkpt>
      <trkpt lat="59.9547011" lon="17.723503">
        <ele>46.2806</ele>
        <time>2014-06-02T18:26:28Z</time>
      </trkpt>
      <trkpt lat="59.9546712" lon="17.7234799">
        <ele>46.2806</ele>
        <time>2014-06-02T18:26:29Z</time>
      </trkpt>
      <trkpt lat="59.9546435" lon="17.723459">
        <ele>45.3192</ele>
        <time>2014-06-02T18:26:30Z</time>
      </trkpt>
      <trkpt lat="59.9546149" lon="17.7234315">
        <ele>44.8386</ele>
        <time>2014-06-02T18:26:31Z</time>
      </trkpt>
      <trkpt lat="59.9545855" lon="17.7234075">
        <ele>44.8386</ele>
        <time>2014-06-02T18:26:32Z</time>
      </trkpt>
      <trkpt lat="59.95456" lon="17.7233835">
        <ele>44.8386</ele>
        <time>2014-06-02T18:26:33Z</time>
      </trkpt>
      <trkpt lat="59.9545378" lon="17.7233577">
        <ele>45.3192</ele>
        <time>2014-06-02T18:26:34Z</time>
      </trkpt>
      <trkpt lat="59.954515" lon="17.7233384">
        <ele>45.7999</ele>
        <time>2014-06-02T18:26:35Z</time>
      </trkpt>
      <trkpt lat="59.9544895" lon="17.7233228">
        <ele>45.7999</ele>
        <time>2014-06-02T18:26:36Z</time>
      </trkpt>
      <trkpt lat="59.954468" lon="17.7233016">
        <ele>45.7999</ele>
        <time>2014-06-02T18:26:37Z</time>
      </trkpt>
      <trkpt lat="59.9544457" lon="17.7232901">
        <ele>45.7999</ele>
        <time>2014-06-02T18:26:38Z</time>
      </trkpt>
      <trkpt lat="59.954413" lon="17.7232929">
        <ele>46.2806</ele>
        <time>2014-06-02T18:26:39Z</time>
      </trkpt>
      <trkpt lat="59.9543814" lon="17.723295">
        <ele>46.2806</ele>
        <time>2014-06-02T18:26:40Z</time>
      </trkpt>
      <trkpt lat="59.9543525" lon="17.7232889">
        <ele>46.7612</ele>
        <time>2014-06-02T18:26:41Z</time>
      </trkpt>
      <trkpt lat="59.9543292" lon="17.7232878">
        <ele>46.2806</ele>
        <time>2014-06-02T18:26:42Z</time>
      </trkpt>
      <trkpt lat="59.9543068" lon="17.723285">
        <ele>45.7999</ele>
        <time>2014-06-02T18:26:43Z</time>
      </trkpt>
      <trkpt lat="59.9542788" lon="17.7232902">
        <ele>45.7999</ele>
        <time>2014-06-02T18:26:44Z</time>
      </trkpt>
      <trkpt lat="59.9542528" lon="17.7232994">
        <ele>45.7999</ele>
        <time>2014-06-02T18:26:45Z</time>
      </trkpt>
      <trkpt lat="59.954199" lon="17.7233189">
        <ele>46.7612</ele>
        <time>2014-06-02T18:26:46Z</time>
      </trkpt>
      <trkpt lat="59.9541561" lon="17.7233482">
        <ele>47.2418</ele>
        <time>2014-06-02T18:26:47Z</time>
      </trkpt>
      <trkpt lat="59.9541217" lon="17.7233917">
        <ele>49.1646</ele>
        <time>2014-06-02T18:26:48Z</time>
      </trkpt>
      <trkpt lat="59.9540913" lon="17.7234357">
        <ele>50.6066</ele>
        <time>2014-06-02T18:26:49Z</time>
      </trkpt>
      <trkpt lat="59.9540591" lon="17.7234663">
        <ele>51.0872</ele>
        <time>2014-06-02T18:26:50Z</time>
      </trkpt>
      <trkpt lat="59.9540251" lon="17.7235002">
        <ele>52.0486</ele>
        <time>2014-06-02T18:26:51Z</time>
      </trkpt>
      <trkpt lat="59.9539955" lon="17.7235337">
        <ele>53.0098</ele>
        <time>2014-06-02T18:26:52Z</time>
      </trkpt>
      <trkpt lat="59.9539653" lon="17.7235592">
        <ele>53.4905</ele>
        <time>2014-06-02T18:26:53Z</time>
      </trkpt>
      <trkpt lat="59.9539379" lon="17.7235917">
        <ele>54.4518</ele>
        <time>2014-06-02T18:26:54Z</time>
      </trkpt>
      <trkpt lat="59.9539101" lon="17.7236266">
        <ele>55.4131</ele>
        <time>2014-06-02T18:26:55Z</time>
      </trkpt>
      <trkpt lat="59.9538824" lon="17.7236646">
        <ele>56.8551</ele>
        <time>2014-06-02T18:26:56Z</time>
      </trkpt>
      <trkpt lat="59.9538621" lon="17.7236908">
        <ele>56.8551</ele>
        <time>2014-06-02T18:26:57Z</time>
      </trkpt>
      <trkpt lat="59.9538424" lon="17.7237138">
        <ele>57.3358</ele>
        <time>2014-06-02T18:26:58Z</time>
      </trkpt>
      <trkpt lat="59.9538171" lon="17.7237395">
        <ele>56.8551</ele>
        <time>2014-06-02T18:26:59Z</time>
      </trkpt>
      <trkpt lat="59.9537923" lon="17.7237932">
        <ele>57.8165</ele>
        <time>2014-06-02T18:27:00Z</time>
      </trkpt>
      <trkpt lat="59.9537619" lon="17.7238317">
        <ele>57.8165</ele>
        <time>2014-06-02T18:27:01Z</time>
      </trkpt>
      <trkpt lat="59.9537352" lon="17.7238798">
        <ele>58.7777</ele>
        <time>2014-06-02T18:27:02Z</time>
      </trkpt>
      <trkpt lat="59.9537057" lon="17.7239181">
        <ele>58.7777</ele>
        <time>2014-06-02T18:27:03Z</time>
      </trkpt>
      <trkpt lat="59.9536765" lon="17.7239632">
        <ele>59.2584</ele>
        <time>2014-06-02T18:27:04Z</time>
      </trkpt>
      <trkpt lat="59.9536551" lon="17.7240122">
        <ele>59.7391</ele>
        <time>2014-06-02T18:27:05Z</time>
      </trkpt>
      <trkpt lat="59.9536355" lon="17.7240658">
        <ele>60.7003</ele>
        <time>2014-06-02T18:27:06Z</time>
      </trkpt>
      <trkpt lat="59.9536152" lon="17.724118">
        <ele>61.6617</ele>
        <time>2014-06-02T18:27:07Z</time>
      </trkpt>
      <trkpt lat="59.9535944" lon="17.7241726">
        <ele>63.1036</ele>
        <time>2014-06-02T18:27:08Z</time>
      </trkpt>
      <trkpt lat="59.9535707" lon="17.7242491">
        <ele>65.5071</ele>
        <time>2014-06-02T18:27:09Z</time>
      </trkpt>
      <trkpt lat="59.9535397" lon="17.7243039">
        <ele>65.9877</ele>
        <time>2014-06-02T18:27:10Z</time>
      </trkpt>
      <trkpt lat="59.9535123" lon="17.7243358">
        <ele>65.5071</ele>
        <time>2014-06-02T18:27:11Z</time>
      </trkpt>
      <trkpt lat="59.953484" lon="17.724359">
        <ele>64.5457</ele>
        <time>2014-06-02T18:27:12Z</time>
      </trkpt>
      <trkpt lat="59.9534527" lon="17.7243674">
        <ele>62.1423</ele>
        <time>2014-06-02T18:27:13Z</time>
      </trkpt>
      <trkpt lat="59.9534272" lon="17.7243792">
        <ele>60.7003</ele>
        <time>2014-06-02T18:27:14Z</time>
      </trkpt>
      <trkpt lat="59.9534037" lon="17.7244062">
        <ele>60.2197</ele>
        <time>2014-06-02T18:27:15Z</time>
      </trkpt>
      <trkpt lat="59.9533832" lon="17.7244274">
        <ele>59.7391</ele>
        <time>2014-06-02T18:27:16Z</time>
      </trkpt>
      <trkpt lat="59.9533661" lon="17.7244709">
        <ele>60.2197</ele>
        <time>2014-06-02T18:27:17Z</time>
      </trkpt>
      <trkpt lat="59.9533474" lon="17.7245144">
        <ele>61.181</ele>
        <time>2014-06-02T18:27:18Z</time>
      </trkpt>
      <trkpt lat="59.9533286" lon="17.7245475">
        <ele>60.2197</ele>
        <time>2014-06-02T18:27:19Z</time>
      </trkpt>
      <trkpt lat="59.953308" lon="17.7245974">
        <ele>60.2197</ele>
        <time>2014-06-02T18:27:20Z</time>
      </trkpt>
      <trkpt lat="59.9532848" lon="17.7246429">
        <ele>59.7391</ele>
        <time>2014-06-02T18:27:21Z</time>
      </trkpt>
      <trkpt lat="59.9532628" lon="17.7246771">
        <ele>58.7777</ele>
        <time>2014-06-02T18:27:22Z</time>
      </trkpt>
      <trkpt lat="59.9532428" lon="17.7247191">
        <ele>58.2971</ele>
        <time>2014-06-02T18:27:23Z</time>
      </trkpt>
      <trkpt lat="59.9532213" lon="17.7247583">
        <ele>58.2971</ele>
        <time>2014-06-02T18:27:24Z</time>
      </trkpt>
      <trkpt lat="59.9532004" lon="17.7247863">
        <ele>57.8165</ele>
        <time>2014-06-02T18:27:25Z</time>
      </trkpt>
      <trkpt lat="59.953178" lon="17.7248134">
        <ele>57.8165</ele>
        <time>2014-06-02T18:27:26Z</time>
      </trkpt>
      <trkpt lat="59.9531615" lon="17.7248433">
        <ele>57.3358</ele>
        <time>2014-06-02T18:27:27Z</time>
      </trkpt>
      <trkpt lat="59.9531438" lon="17.7248721">
        <ele>57.3358</ele>
        <time>2014-06-02T18:27:28Z</time>
      </trkpt>
      <trkpt lat="59.953119" lon="17.7248993">
        <ele>56.8551</ele>
        <time>2014-06-02T18:27:29Z</time>
      </trkpt>
      <trkpt lat="59.9530942" lon="17.7248993">
        <ele>54.4518</ele>
        <time>2014-06-02T18:27:30Z</time>
      </trkpt>
      <trkpt lat="59.9530749" lon="17.7249013">
        <ele>53.0098</ele>
        <time>2014-06-02T18:27:31Z</time>
      </trkpt>
      <trkpt lat="59.953054" lon="17.7249438">
        <ele>53.4905</ele>
        <time>2014-06-02T18:27:32Z</time>
      </trkpt>
      <trkpt lat="59.9530308" lon="17.724983">
        <ele>53.0098</ele>
        <time>2014-06-02T18:27:33Z</time>
      </trkpt>
      <trkpt lat="59.9530124" lon="17.7250118">
        <ele>52.5292</ele>
        <time>2014-06-02T18:27:34Z</time>
      </trkpt>
      <trkpt lat="59.952988" lon="17.7250364">
        <ele>52.0486</ele>
        <time>2014-06-02T18:27:35Z</time>
      </trkpt>
      <trkpt lat="59.9529662" lon="17.725051">
        <ele>51.5679</ele>
        <time>2014-06-02T18:27:36Z</time>
      </trkpt>
      <trkpt lat="59.9529484" lon="17.7250769">
        <ele>51.0872</ele>
        <time>2014-06-02T18:27:37Z</time>
      </trkpt>
      <trkpt lat="59.95293" lon="17.7251057">
        <ele>51.0872</ele>
        <time>2014-06-02T18:27:38Z</time>
      </trkpt>
      <trkpt lat="59.9529128" lon="17.725139">
        <ele>51.0872</ele>
        <time>2014-06-02T18:27:39Z</time>
      </trkpt>
      <trkpt lat="59.9528885" lon="17.7251655">
        <ele>50.126</ele>
        <time>2014-06-02T18:27:40Z</time>
      </trkpt>
      <trkpt lat="59.9528625" lon="17.7252012">
        <ele>50.126</ele>
        <time>2014-06-02T18:27:41Z</time>
      </trkpt>
      <trkpt lat="59.9528432" lon="17.7252282">
        <ele>49.6453</ele>
        <time>2014-06-02T18:27:42Z</time>
      </trkpt>
      <trkpt lat="59.9528272" lon="17.7252705">
        <ele>49.6453</ele>
        <time>2014-06-02T18:27:43Z</time>
      </trkpt>
      <trkpt lat="59.9528086" lon="17.7253074">
        <ele>49.6453</ele>
        <time>2014-06-02T18:27:44Z</time>
      </trkpt>
      <trkpt lat="59.9527869" lon="17.7253345">
        <ele>48.684</ele>
        <time>2014-06-02T18:27:45Z</time>
      </trkpt>
      <trkpt lat="59.9527645" lon="17.72537">
        <ele>48.684</ele>
        <time>2014-06-02T18:27:46Z</time>
      </trkpt>
      <trkpt lat="59.9527417" lon="17.7254022">
        <ele>48.684</ele>
        <time>2014-06-02T18:27:47Z</time>
      </trkpt>
      <trkpt lat="59.9527186" lon="17.7254373">
        <ele>48.2034</ele>
        <time>2014-06-02T18:27:48Z</time>
      </trkpt>
      <trkpt lat="59.9526967" lon="17.7254749">
        <ele>48.2034</ele>
        <time>2014-06-02T18:27:49Z</time>
      </trkpt>
      <trkpt lat="59.9526808" lon="17.725523">
        <ele>49.1646</ele>
        <time>2014-06-02T18:27:50Z</time>
      </trkpt>
      <trkpt lat="59.9526603" lon="17.7255557">
        <ele>49.1646</ele>
        <time>2014-06-02T18:27:51Z</time>
      </trkpt>
      <trkpt lat="59.9526391" lon="17.7255908">
        <ele>49.1646</ele>
        <time>2014-06-02T18:27:52Z</time>
      </trkpt>
      <trkpt lat="59.9526215" lon="17.7256206">
        <ele>48.684</ele>
        <time>2014-06-02T18:27:53Z</time>
      </trkpt>
      <trkpt lat="59.952604" lon="17.7256509">
        <ele>48.2034</ele>
        <time>2014-06-02T18:27:54Z</time>
      </trkpt>
      <trkpt lat="59.9525855" lon="17.7256755">
        <ele>47.2418</ele>
        <time>2014-06-02T18:27:55Z</time>
      </trkpt>
      <trkpt lat="59.9525674" lon="17.7257063">
        <ele>47.2418</ele>
        <time>2014-06-02T18:27:56Z</time>
      </trkpt>
      <trkpt lat="59.9525495" lon="17.7257414">
        <ele>46.2806</ele>
        <time>2014-06-02T18:27:57Z</time>
      </trkpt>
      <trkpt lat="59.9525344" lon="17.7257773">
        <ele>46.2806</ele>
        <time>2014-06-02T18:27:58Z</time>
      </trkpt>
      <trkpt lat="59.9525171" lon="17.7258221">
        <ele>46.2806</ele>
        <time>2014-06-02T18:27:59Z</time>
      </trkpt>
      <trkpt lat="59.9524944" lon="17.72586">
        <ele>46.2806</ele>
        <time>2014-06-02T18:28:00Z</time>
      </trkpt>
      <trkpt lat="59.9524709" lon="17.7258941">
        <ele>45.7999</ele>
        <time>2014-06-02T18:28:01Z</time>
      </trkpt>
      <trkpt lat="59.9524477" lon="17.7259227">
        <ele>45.7999</ele>
        <time>2014-06-02T18:28:02Z</time>
      </trkpt>
      <trkpt lat="59.9524242" lon="17.7259477">
        <ele>45.3192</ele>
        <time>2014-06-02T18:28:03Z</time>
      </trkpt>
      <trkpt lat="59.9524051" lon="17.7259845">
        <ele>45.3192</ele>
        <time>2014-06-02T18:28:04Z</time>
      </trkpt>
      <trkpt lat="59.952387" lon="17.7260208">
        <ele>44.8386</ele>
        <time>2014-06-02T18:28:05Z</time>
      </trkpt>
      <trkpt lat="59.9523704" lon="17.7260556">
        <ele>45.3192</ele>
        <time>2014-06-02T18:28:06Z</time>
      </trkpt>
      <trkpt lat="59.9523513" lon="17.7260889">
        <ele>45.3192</ele>
        <time>2014-06-02T18:28:07Z</time>
      </trkpt>
      <trkpt lat="59.9523337" lon="17.7261285">
        <ele>45.3192</ele>
        <time>2014-06-02T18:28:08Z</time>
      </trkpt>
      <trkpt lat="59.9523186" lon="17.7261673">
        <ele>45.7999</ele>
        <time>2014-06-02T18:28:09Z</time>
      </trkpt>
      <trkpt lat="59.9523047" lon="17.7261964">
        <ele>46.2806</ele>
        <time>2014-06-02T18:28:10Z</time>
      </trkpt>
      <trkpt lat="59.9522894" lon="17.7262362">
        <ele>47.2418</ele>
        <time>2014-06-02T18:28:11Z</time>
      </trkpt>
      <trkpt lat="59.952271" lon="17.7262709">
        <ele>47.2418</ele>
        <time>2014-06-02T18:28:12Z</time>
      </trkpt>
      <trkpt lat="59.9522544" lon="17.7262953">
        <ele>46.7612</ele>
        <time>2014-06-02T18:28:13Z</time>
      </trkpt>
      <trkpt lat="59.9522382" lon="17.7263249">
        <ele>46.2806</ele>
        <time>2014-06-02T18:28:14Z</time>
      </trkpt>
      <trkpt lat="59.9522209" lon="17.7263517">
        <ele>46.2806</ele>
        <time>2014-06-02T18:28:15Z</time>
      </trkpt>
      <trkpt lat="59.9522095" lon="17.7263774">
        <ele>45.7999</ele>
        <time>2014-06-02T18:28:16Z</time>
      </trkpt>
      <trkpt lat="59.9521974" lon="17.7264049">
        <ele>45.7999</ele>
        <time>2014-06-02T18:28:17Z</time>
      </trkpt>
      <trkpt lat="59.9521817" lon="17.7264342">
        <ele>45.3192</ele>
        <time>2014-06-02T18:28:18Z</time>
      </trkpt>
      <trkpt lat="59.9521663" lon="17.7264719">
        <ele>45.3192</ele>
        <time>2014-06-02T18:28:19Z</time>
      </trkpt>
      <trkpt lat="59.9521524" lon="17.7265222">
        <ele>45.7999</ele>
        <time>2014-06-02T18:28:20Z</time>
      </trkpt>
      <trkpt lat="59.9521403" lon="17.7265714">
        <ele>45.7999</ele>
        <time>2014-06-02T18:28:21Z</time>
      </trkpt>
      <trkpt lat="59.9521263" lon="17.7266216">
        <ele>45.7999</ele>
        <time>2014-06-02T18:28:22Z</time>
      </trkpt>
      <trkpt lat="59.9521109" lon="17.726661">
        <ele>45.3192</ele>
        <time>2014-06-02T18:28:23Z</time>
      </trkpt>
      <trkpt lat="59.9520943" lon="17.7266958">
        <ele>44.8386</ele>
        <time>2014-06-02T18:28:24Z</time>
      </trkpt>
      <trkpt lat="59.9520803" lon="17.7267325">
        <ele>43.8773</ele>
        <time>2014-06-02T18:28:25Z</time>
      </trkpt>
      <trkpt lat="59.9520727" lon="17.7267708">
        <ele>43.8773</ele>
        <time>2014-06-02T18:28:26Z</time>
      </trkpt>
      <trkpt lat="59.9520648" lon="17.726803">
        <ele>42.916</ele>
        <time>2014-06-02T18:28:27Z</time>
      </trkpt>
      <trkpt lat="59.9520565" lon="17.7268426">
        <ele>43.3966</ele>
        <time>2014-06-02T18:28:28Z</time>
      </trkpt>
      <trkpt lat="59.9520482" lon="17.7268673">
        <ele>42.4354</ele>
        <time>2014-06-02T18:28:29Z</time>
      </trkpt>
      <trkpt lat="59.9520419" lon="17.7269039">
        <ele>42.4354</ele>
        <time>2014-06-02T18:28:30Z</time>
      </trkpt>
      <trkpt lat="59.9520332" lon="17.72695">
        <ele>41.9547</ele>
        <time>2014-06-02T18:28:31Z</time>
      </trkpt>
      <trkpt lat="59.9520248" lon="17.7269946">
        <ele>41.474</ele>
        <time>2014-06-02T18:28:32Z</time>
      </trkpt>
      <trkpt lat="59.952017" lon="17.7270334">
        <ele>40.9934</ele>
        <time>2014-06-02T18:28:33Z</time>
      </trkpt>
      <trkpt lat="59.9520099" lon="17.7270718">
        <ele>40.9934</ele>
        <time>2014-06-02T18:28:34Z</time>
      </trkpt>
      <trkpt lat="59.9520026" lon="17.7271153">
        <ele>40.5128</ele>
        <time>2014-06-02T18:28:35Z</time>
      </trkpt>
      <trkpt lat="59.9519939" lon="17.7271609">
        <ele>40.5128</ele>
        <time>2014-06-02T18:28:36Z</time>
      </trkpt>
      <trkpt lat="59.9519857" lon="17.7272044">
        <ele>40.0321</ele>
        <time>2014-06-02T18:28:37Z</time>
      </trkpt>
      <trkpt lat="59.9519825" lon="17.7272705">
        <ele>40.9934</ele>
        <time>2014-06-02T18:28:38Z</time>
      </trkpt>
      <trkpt lat="59.9519786" lon="17.7273184">
        <ele>40.9934</ele>
        <time>2014-06-02T18:28:39Z</time>
      </trkpt>
      <trkpt lat="59.9519752" lon="17.7273663">
        <ele>40.9934</ele>
        <time>2014-06-02T18:28:40Z</time>
      </trkpt>
      <trkpt lat="59.9519705" lon="17.7274199">
        <ele>41.9547</ele>
        <time>2014-06-02T18:28:41Z</time>
      </trkpt>
      <trkpt lat="59.9519643" lon="17.7274619">
        <ele>41.9547</ele>
        <time>2014-06-02T18:28:42Z</time>
      </trkpt>
      <trkpt lat="59.9519572" lon="17.7275034">
        <ele>41.474</ele>
        <time>2014-06-02T18:28:43Z</time>
      </trkpt>
      <trkpt lat="59.9519466" lon="17.7275447">
        <ele>41.474</ele>
        <time>2014-06-02T18:28:44Z</time>
      </trkpt>
      <trkpt lat="59.9519379" lon="17.7276079">
        <ele>42.4354</ele>
        <time>2014-06-02T18:28:45Z</time>
      </trkpt>
      <trkpt lat="59.9519264" lon="17.7276654">
        <ele>42.916</ele>
        <time>2014-06-02T18:28:46Z</time>
      </trkpt>
      <trkpt lat="59.9519095" lon="17.7277115">
        <ele>42.4354</ele>
        <time>2014-06-02T18:28:47Z</time>
      </trkpt>
      <trkpt lat="59.9518866" lon="17.7277523">
        <ele>41.9547</ele>
        <time>2014-06-02T18:28:48Z</time>
      </trkpt>
      <trkpt lat="59.9518606" lon="17.7277921">
        <ele>41.9547</ele>
        <time>2014-06-02T18:28:49Z</time>
      </trkpt>
      <trkpt lat="59.9518359" lon="17.7278268">
        <ele>41.9547</ele>
        <time>2014-06-02T18:28:50Z</time>
      </trkpt>
      <trkpt lat="59.9518089" lon="17.7278472">
        <ele>41.474</ele>
        <time>2014-06-02T18:28:51Z</time>
      </trkpt>
      <trkpt lat="59.9517846" lon="17.7278623">
        <ele>41.474</ele>
        <time>2014-06-02T18:28:52Z</time>
      </trkpt>
      <trkpt lat="59.9517645" lon="17.7278717">
        <ele>40.9934</ele>
        <time>2014-06-02T18:28:53Z</time>
      </trkpt>
      <trkpt lat="59.9517424" lon="17.7278768">
        <ele>40.9934</ele>
        <time>2014-06-02T18:28:54Z</time>
      </trkpt>
      <trkpt lat="59.9517205" lon="17.7278803">
        <ele>41.474</ele>
        <time>2014-06-02T18:28:55Z</time>
      </trkpt>
      <trkpt lat="59.9516971" lon="17.7278798">
        <ele>40.9934</ele>
        <time>2014-06-02T18:28:56Z</time>
      </trkpt>
      <trkpt lat="59.9516701" lon="17.7278783">
        <ele>41.474</ele>
        <time>2014-06-02T18:28:57Z</time>
      </trkpt>
      <trkpt lat="59.9516463" lon="17.7278807">
        <ele>41.9547</ele>
        <time>2014-06-02T18:28:58Z</time>
      </trkpt>
      <trkpt lat="59.9516213" lon="17.7278779">
        <ele>42.4354</ele>
        <time>2014-06-02T18:28:59Z</time>
      </trkpt>
      <trkpt lat="59.9515935" lon="17.7278633">
        <ele>41.9547</ele>
        <time>2014-06-02T18:29:00Z</time>
      </trkpt>
      <trkpt lat="59.9515723" lon="17.7278456">
        <ele>41.474</ele>
        <time>2014-06-02T18:29:01Z</time>
      </trkpt>
      <trkpt lat="59.9515573" lon="17.7278279">
        <ele>40.9934</ele>
        <time>2014-06-02T18:29:02Z</time>
      </trkpt>
      <trkpt lat="59.9515448" lon="17.7278032">
        <ele>41.474</ele>
        <time>2014-06-02T18:29:03Z</time>
      </trkpt>
      <trkpt lat="59.9515293" lon="17.7277696">
        <ele>41.474</ele>
        <time>2014-06-02T18:29:04Z</time>
      </trkpt>
      <trkpt lat="59.9515163" lon="17.7277264">
        <ele>40.5128</ele>
        <time>2014-06-02T18:29:05Z</time>
      </trkpt>
      <trkpt lat="59.9515029" lon="17.7276841">
        <ele>40.5128</ele>
        <time>2014-06-02T18:29:06Z</time>
      </trkpt>
      <trkpt lat="59.9514862" lon="17.7276452">
        <ele>39.5513</ele>
        <time>2014-06-02T18:29:07Z</time>
      </trkpt>
      <trkpt lat="59.9514676" lon="17.7275961">
        <ele>39.5513</ele>
        <time>2014-06-02T18:29:08Z</time>
      </trkpt>
      <trkpt lat="59.9514484" lon="17.7275426">
        <ele>39.0707</ele>
        <time>2014-06-02T18:29:09Z</time>
      </trkpt>
      <trkpt lat="59.9514282" lon="17.7274903">
        <ele>39.0707</ele>
        <time>2014-06-02T18:29:10Z</time>
      </trkpt>
      <trkpt lat="59.9514047" lon="17.7274335">
        <ele>39.0707</ele>
        <time>2014-06-02T18:29:11Z</time>
      </trkpt>
      <trkpt lat="59.9513954" lon="17.7273892">
        <ele>39.5513</ele>
        <time>2014-06-02T18:29:12Z</time>
      </trkpt>
      <trkpt lat="59.951397" lon="17.7273384">
        <ele>39.5513</ele>
        <time>2014-06-02T18:29:13Z</time>
      </trkpt>
      <trkpt lat="59.9513969" lon="17.7272837">
        <ele>39.0707</ele>
        <time>2014-06-02T18:29:14Z</time>
      </trkpt>
      <trkpt lat="59.9513975" lon="17.727236">
        <ele>39.0707</ele>
        <time>2014-06-02T18:29:15Z</time>
      </trkpt>
      <trkpt lat="59.951399" lon="17.7271877">
        <ele>38.5901</ele>
        <time>2014-06-02T18:29:16Z</time>
      </trkpt>
      <trkpt lat="59.9514008" lon="17.727136">
        <ele>38.5901</ele>
        <time>2014-06-02T18:29:17Z</time>
      </trkpt>
      <trkpt lat="59.9513998" lon="17.7270858">
        <ele>38.1094</ele>
        <time>2014-06-02T18:29:18Z</time>
      </trkpt>
      <trkpt lat="59.9513961" lon="17.7270361">
        <ele>38.1094</ele>
        <time>2014-06-02T18:29:19Z</time>
      </trkpt>
      <trkpt lat="59.9513883" lon="17.7269873">
        <ele>38.1094</ele>
        <time>2014-06-02T18:29:20Z</time>
      </trkpt>
      <trkpt lat="59.9513784" lon="17.7269429">
        <ele>37.6287</ele>
        <time>2014-06-02T18:29:21Z</time>
      </trkpt>
      <trkpt lat="59.951369" lon="17.7268997">
        <ele>37.6287</ele>
        <time>2014-06-02T18:29:22Z</time>
      </trkpt>
      <trkpt lat="59.9513634" lon="17.7268602">
        <ele>37.6287</ele>
        <time>2014-06-02T18:29:23Z</time>
      </trkpt>
      <trkpt lat="59.9513623" lon="17.7268261">
        <ele>38.1094</ele>
        <time>2014-06-02T18:29:24Z</time>
      </trkpt>
      <trkpt lat="59.9513582" lon="17.7267868">
        <ele>37.6287</ele>
        <time>2014-06-02T18:29:25Z</time>
      </trkpt>
      <trkpt lat="59.9513575" lon="17.726735">
        <ele>37.6287</ele>
        <time>2014-06-02T18:29:26Z</time>
      </trkpt>
      <trkpt lat="59.9513578" lon="17.726687">
        <ele>38.1094</ele>
        <time>2014-06-02T18:29:27Z</time>
      </trkpt>
      <trkpt lat="59.9513603" lon="17.7266444">
        <ele>38.1094</ele>
        <time>2014-06-02T18:29:28Z</time>
      </trkpt>
      <trkpt lat="59.9513682" lon="17.7266015">
        <ele>38.1094</ele>
        <time>2014-06-02T18:29:29Z</time>
      </trkpt>
      <trkpt lat="59.9513791" lon="17.7265641">
        <ele>38.5901</ele>
        <time>2014-06-02T18:29:30Z</time>
      </trkpt>
      <trkpt lat="59.9513924" lon="17.72653">
        <ele>37.6287</ele>
        <time>2014-06-02T18:29:31Z</time>
      </trkpt>
      <trkpt lat="59.9514093" lon="17.7264937">
        <ele>37.1481</ele>
        <time>2014-06-02T18:29:32Z</time>
      </trkpt>
      <trkpt lat="59.9514286" lon="17.7264563">
        <ele>37.1481</ele>
        <time>2014-06-02T18:29:33Z</time>
      </trkpt>
      <trkpt lat="59.9514487" lon="17.7264165">
        <ele>37.1481</ele>
        <time>2014-06-02T18:29:34Z</time>
      </trkpt>
      <trkpt lat="59.9514656" lon="17.7263808">
        <ele>37.1481</ele>
        <time>2014-06-02T18:29:35Z</time>
      </trkpt>
      <trkpt lat="59.9514775" lon="17.7263481">
        <ele>37.1481</ele>
        <time>2014-06-02T18:29:36Z</time>
      </trkpt>
      <trkpt lat="59.9514914" lon="17.7263098">
        <ele>37.1481</ele>
        <time>2014-06-02T18:29:37Z</time>
      </trkpt>
      <trkpt lat="59.9515112" lon="17.7262725">
        <ele>37.1481</ele>
        <time>2014-06-02T18:29:38Z</time>
      </trkpt>
      <trkpt lat="59.9515292" lon="17.7262351">
        <ele>36.6675</ele>
        <time>2014-06-02T18:29:39Z</time>
      </trkpt>
      <trkpt lat="59.9515479" lon="17.7261965">
        <ele>36.6675</ele>
        <time>2014-06-02T18:29:40Z</time>
      </trkpt>
      <trkpt lat="59.9515692" lon="17.726161">
        <ele>36.6675</ele>
        <time>2014-06-02T18:29:41Z</time>
      </trkpt>
      <trkpt lat="59.9515904" lon="17.726128">
        <ele>36.6675</ele>
        <time>2014-06-02T18:29:42Z</time>
      </trkpt>
      <trkpt lat="59.95161" lon="17.7260854">
        <ele>36.6675</ele>
        <time>2014-06-02T18:29:43Z</time>
      </trkpt>
      <trkpt lat="59.9516328" lon="17.7260415">
        <ele>36.6675</ele>
        <time>2014-06-02T18:29:44Z</time>
      </trkpt>
      <trkpt lat="59.9516552" lon="17.7260118">
        <ele>36.1868</ele>
        <time>2014-06-02T18:29:45Z</time>
      </trkpt>
      <trkpt lat="59.9516717" lon="17.7259825">
        <ele>35.7061</ele>
        <time>2014-06-02T18:29:46Z</time>
      </trkpt>
      <trkpt lat="59.9516927" lon="17.7259522">
        <ele>35.7061</ele>
        <time>2014-06-02T18:29:47Z</time>
      </trkpt>
      <trkpt lat="59.9517177" lon="17.7259227">
        <ele>35.7061</ele>
        <time>2014-06-02T18:29:48Z</time>
      </trkpt>
      <trkpt lat="59.9517386" lon="17.7258931">
        <ele>35.2255</ele>
        <time>2014-06-02T18:29:49Z</time>
      </trkpt>
      <trkpt lat="59.9517614" lon="17.7258682">
        <ele>35.2255</ele>
        <time>2014-06-02T18:29:50Z</time>
      </trkpt>
      <trkpt lat="59.9517875" lon="17.7258487">
        <ele>34.7449</ele>
        <time>2014-06-02T18:29:51Z</time>
      </trkpt>
      <trkpt lat="59.9518115" lon="17.7258254">
        <ele>34.7449</ele>
        <time>2014-06-02T18:29:52Z</time>
      </trkpt>
      <trkpt lat="59.9518333" lon="17.7257945">
        <ele>34.7449</ele>
        <time>2014-06-02T18:29:53Z</time>
      </trkpt>
      <trkpt lat="59.9518533" lon="17.7257519">
        <ele>34.7449</ele>
        <time>2014-06-02T18:29:54Z</time>
      </trkpt>
      <trkpt lat="59.9518701" lon="17.7257057">
        <ele>34.2642</ele>
        <time>2014-06-02T18:29:55Z</time>
      </trkpt>
      <trkpt lat="59.9518927" lon="17.7256653">
        <ele>34.7449</ele>
        <time>2014-06-02T18:29:56Z</time>
      </trkpt>
      <trkpt lat="59.9519165" lon="17.7256362">
        <ele>34.2642</ele>
        <time>2014-06-02T18:29:57Z</time>
      </trkpt>
      <trkpt lat="59.9519384" lon="17.725603">
        <ele>34.2642</ele>
        <time>2014-06-02T18:29:58Z</time>
      </trkpt>
      <trkpt lat="59.95196" lon="17.7255648">
        <ele>34.2642</ele>
        <time>2014-06-02T18:29:59Z</time>
      </trkpt>
      <trkpt lat="59.9519792" lon="17.7255269">
        <ele>34.2642</ele>
        <time>2014-06-02T18:30:00Z</time>
      </trkpt>
      <trkpt lat="59.9519988" lon="17.7254876">
        <ele>34.2642</ele>
        <time>2014-06-02T18:30:01Z</time>
      </trkpt>
      <trkpt lat="59.9520209" lon="17.7254489">
        <ele>34.2642</ele>
        <time>2014-06-02T18:30:02Z</time>
      </trkpt>
      <trkpt lat="59.9520413" lon="17.7254116">
        <ele>34.7449</ele>
        <time>2014-06-02T18:30:03Z</time>
      </trkpt>
      <trkpt lat="59.9520613" lon="17.7253668">
        <ele>34.7449</ele>
        <time>2014-06-02T18:30:04Z</time>
      </trkpt>
      <trkpt lat="59.9520763" lon="17.7253226">
        <ele>35.2255</ele>
        <time>2014-06-02T18:30:05Z</time>
      </trkpt>
      <trkpt lat="59.9520913" lon="17.7252799">
        <ele>35.2255</ele>
        <time>2014-06-02T18:30:06Z</time>
      </trkpt>
      <trkpt lat="59.9521057" lon="17.7252317">
        <ele>34.7449</ele>
        <time>2014-06-02T18:30:07Z</time>
      </trkpt>
      <trkpt lat="59.9521218" lon="17.7251846">
        <ele>35.2255</ele>
        <time>2014-06-02T18:30:08Z</time>
      </trkpt>
      <trkpt lat="59.9521395" lon="17.7251467">
        <ele>35.2255</ele>
        <time>2014-06-02T18:30:09Z</time>
      </trkpt>
      <trkpt lat="59.9521594" lon="17.725118">
        <ele>35.7061</ele>
        <time>2014-06-02T18:30:10Z</time>
      </trkpt>
      <trkpt lat="59.9521782" lon="17.7250857">
        <ele>35.7061</ele>
        <time>2014-06-02T18:30:11Z</time>
      </trkpt>
      <trkpt lat="59.9521994" lon="17.7250458">
        <ele>36.1868</ele>
        <time>2014-06-02T18:30:12Z</time>
      </trkpt>
      <trkpt lat="59.9522206" lon="17.7250044">
        <ele>36.6675</ele>
        <time>2014-06-02T18:30:13Z</time>
      </trkpt>
      <trkpt lat="59.9522394" lon="17.7249738">
        <ele>36.6675</ele>
        <time>2014-06-02T18:30:14Z</time>
      </trkpt>
      <trkpt lat="59.952256" lon="17.7249459">
        <ele>36.6675</ele>
        <time>2014-06-02T18:30:15Z</time>
      </trkpt>
      <trkpt lat="59.9522761" lon="17.7249133">
        <ele>36.1868</ele>
        <time>2014-06-02T18:30:16Z</time>
      </trkpt>
      <trkpt lat="59.9522975" lon="17.724876">
        <ele>36.1868</ele>
        <time>2014-06-02T18:30:17Z</time>
      </trkpt>
      <trkpt lat="59.952318" lon="17.7248367">
        <ele>36.6675</ele>
        <time>2014-06-02T18:30:18Z</time>
      </trkpt>
      <trkpt lat="59.9523352" lon="17.7247982">
        <ele>37.1481</ele>
        <time>2014-06-02T18:30:19Z</time>
      </trkpt>
      <trkpt lat="59.952357" lon="17.7247576">
        <ele>37.1481</ele>
        <time>2014-06-02T18:30:20Z</time>
      </trkpt>
      <trkpt lat="59.9523782" lon="17.724719">
        <ele>37.1481</ele>
        <time>2014-06-02T18:30:21Z</time>
      </trkpt>
      <trkpt lat="59.9523993" lon="17.7246905">
        <ele>37.1481</ele>
        <time>2014-06-02T18:30:22Z</time>
      </trkpt>
      <trkpt lat="59.9524172" lon="17.7246611">
        <ele>37.1481</ele>
        <time>2014-06-02T18:30:23Z</time>
      </trkpt>
      <trkpt lat="59.952434" lon="17.7246221">
        <ele>37.6287</ele>
        <time>2014-06-02T18:30:24Z</time>
      </trkpt>
      <trkpt lat="59.9524497" lon="17.7245823">
        <ele>37.6287</ele>
        <time>2014-06-02T18:30:25Z</time>
      </trkpt>
      <trkpt lat="59.9524633" lon="17.7245475">
        <ele>38.1094</ele>
        <time>2014-06-02T18:30:26Z</time>
      </trkpt>
      <trkpt lat="59.9524731" lon="17.7245145">
        <ele>38.5901</ele>
        <time>2014-06-02T18:30:27Z</time>
      </trkpt>
      <trkpt lat="59.9524801" lon="17.7244724">
        <ele>38.5901</ele>
        <time>2014-06-02T18:30:28Z</time>
      </trkpt>
      <trkpt lat="59.9524881" lon="17.7244271">
        <ele>38.5901</ele>
        <time>2014-06-02T18:30:29Z</time>
      </trkpt>
      <trkpt lat="59.9525015" lon="17.7243844">
        <ele>38.1094</ele>
        <time>2014-06-02T18:30:30Z</time>
      </trkpt>
      <trkpt lat="59.9525186" lon="17.7243386">
        <ele>38.1094</ele>
        <time>2014-06-02T18:30:31Z</time>
      </trkpt>
      <trkpt lat="59.9525397" lon="17.7242998">
        <ele>39.0707</ele>
        <time>2014-06-02T18:30:32Z</time>
      </trkpt>
      <trkpt lat="59.9525585" lon="17.724259">
        <ele>40.0321</ele>
        <time>2014-06-02T18:30:33Z</time>
      </trkpt>
      <trkpt lat="59.9525752" lon="17.7242155">
        <ele>40.5128</ele>
        <time>2014-06-02T18:30:34Z</time>
      </trkpt>
      <trkpt lat="59.9525848" lon="17.7241686">
        <ele>40.5128</ele>
        <time>2014-06-02T18:30:35Z</time>
      </trkpt>
      <trkpt lat="59.9525917" lon="17.7241202">
        <ele>40.9934</ele>
        <time>2014-06-02T18:30:36Z</time>
      </trkpt>
      <trkpt lat="59.9526006" lon="17.7240747">
        <ele>41.9547</ele>
        <time>2014-06-02T18:30:37Z</time>
      </trkpt>
      <trkpt lat="59.9526092" lon="17.7240299">
        <ele>41.9547</ele>
        <time>2014-06-02T18:30:38Z</time>
      </trkpt>
      <trkpt lat="59.9526189" lon="17.723984">
        <ele>42.4354</ele>
        <time>2014-06-02T18:30:39Z</time>
      </trkpt>
      <trkpt lat="59.9526274" lon="17.7239364">
        <ele>42.916</ele>
        <time>2014-06-02T18:30:40Z</time>
      </trkpt>
      <trkpt lat="59.952632" lon="17.7238828">
        <ele>42.916</ele>
        <time>2014-06-02T18:30:41Z</time>
      </trkpt>
      <trkpt lat="59.9526319" lon="17.7238343">
        <ele>43.3966</ele>
        <time>2014-06-02T18:30:42Z</time>
      </trkpt>
      <trkpt lat="59.9526308" lon="17.7237901">
        <ele>43.8773</ele>
        <time>2014-06-02T18:30:43Z</time>
      </trkpt>
      <trkpt lat="59.9526304" lon="17.7237441">
        <ele>43.8773</ele>
        <time>2014-06-02T18:30:44Z</time>
      </trkpt>
      <trkpt lat="59.9526289" lon="17.7237001">
        <ele>43.8773</ele>
        <time>2014-06-02T18:30:45Z</time>
      </trkpt>
      <trkpt lat="59.9526243" lon="17.7236595">
        <ele>43.8773</ele>
        <time>2014-06-02T18:30:46Z</time>
      </trkpt>
      <trkpt lat="59.9526192" lon="17.7236167">
        <ele>43.8773</ele>
        <time>2014-06-02T18:30:47Z</time>
      </trkpt>
      <trkpt lat="59.9526091" lon="17.7235678">
        <ele>44.358</ele>
        <time>2014-06-02T18:30:48Z</time>
      </trkpt>
      <trkpt lat="59.9525971" lon="17.7235265">
        <ele>44.358</ele>
        <time>2014-06-02T18:30:49Z</time>
      </trkpt>
      <trkpt lat="59.952587" lon="17.7234867">
        <ele>44.8386</ele>
        <time>2014-06-02T18:30:50Z</time>
      </trkpt>
      <trkpt lat="59.9525811" lon="17.7234421">
        <ele>44.8386</ele>
        <time>2014-06-02T18:30:51Z</time>
      </trkpt>
      <trkpt lat="59.952571" lon="17.7233985">
        <ele>45.3192</ele>
        <time>2014-06-02T18:30:52Z</time>
      </trkpt>
      <trkpt lat="59.9525624" lon="17.7233633">
        <ele>45.3192</ele>
        <time>2014-06-02T18:30:53Z</time>
      </trkpt>
      <trkpt lat="59.952558" lon="17.7233209">
        <ele>45.7999</ele>
        <time>2014-06-02T18:30:54Z</time>
      </trkpt>
      <trkpt lat="59.9525512" lon="17.7232773">
        <ele>46.2806</ele>
        <time>2014-06-02T18:30:55Z</time>
      </trkpt>
      <trkpt lat="59.9525404" lon="17.7232303">
        <ele>46.2806</ele>
        <time>2014-06-02T18:30:56Z</time>
      </trkpt>
      <trkpt lat="59.9525278" lon="17.7231696">
        <ele>46.7612</ele>
        <time>2014-06-02T18:30:57Z</time>
      </trkpt>
      <trkpt lat="59.9525195" lon="17.7231067">
        <ele>46.7612</ele>
        <time>2014-06-02T18:30:58Z</time>
      </trkpt>
      <trkpt lat="59.9525144" lon="17.7230516">
        <ele>46.7612</ele>
        <time>2014-06-02T18:30:59Z</time>
      </trkpt>
      <trkpt lat="59.9525088" lon="17.7230048">
        <ele>46.7612</ele>
        <time>2014-06-02T18:31:00Z</time>
      </trkpt>
      <trkpt lat="59.9525004" lon="17.722952">
        <ele>46.7612</ele>
        <time>2014-06-02T18:31:01Z</time>
      </trkpt>
      <trkpt lat="59.9524901" lon="17.7228966">
        <ele>47.2418</ele>
        <time>2014-06-02T18:31:02Z</time>
      </trkpt>
      <trkpt lat="59.952484" lon="17.7228391">
        <ele>47.2418</ele>
        <time>2014-06-02T18:31:03Z</time>
      </trkpt>
      <trkpt lat="59.9524792" lon="17.7227854">
        <ele>47.2418</ele>
        <time>2014-06-02T18:31:04Z</time>
      </trkpt>
      <trkpt lat="59.9524751" lon="17.7227314">
        <ele>47.2418</ele>
        <time>2014-06-02T18:31:05Z</time>
      </trkpt>
      <trkpt lat="59.9524703" lon="17.7226791">
        <ele>47.2418</ele>
        <time>2014-06-02T18:31:06Z</time>
      </trkpt>
      <trkpt lat="59.9524685" lon="17.7226351">
        <ele>47.2418</ele>
        <time>2014-06-02T18:31:07Z</time>
      </trkpt>
      <trkpt lat="59.9524642" lon="17.7225904">
        <ele>48.2034</ele>
        <time>2014-06-02T18:31:08Z</time>
      </trkpt>
      <trkpt lat="59.9524626" lon="17.7225444">
        <ele>48.2034</ele>
        <time>2014-06-02T18:31:09Z</time>
      </trkpt>
      <trkpt lat="59.9524642" lon="17.7224981">
        <ele>48.2034</ele>
        <time>2014-06-02T18:31:10Z</time>
      </trkpt>
      <trkpt lat="59.9524685" lon="17.7224563">
        <ele>47.7225</ele>
        <time>2014-06-02T18:31:11Z</time>
      </trkpt>
      <trkpt lat="59.9524723" lon="17.7224087">
        <ele>47.7225</ele>
        <time>2014-06-02T18:31:12Z</time>
      </trkpt>
      <trkpt lat="59.9524751" lon="17.7223535">
        <ele>47.7225</ele>
        <time>2014-06-02T18:31:13Z</time>
      </trkpt>
      <trkpt lat="59.9524809" lon="17.7222983">
        <ele>47.7225</ele>
        <time>2014-06-02T18:31:14Z</time>
      </trkpt>
      <trkpt lat="59.9524859" lon="17.7222446">
        <ele>47.2418</ele>
        <time>2014-06-02T18:31:15Z</time>
      </trkpt>
      <trkpt lat="59.9524886" lon="17.7221966">
        <ele>46.7612</ele>
        <time>2014-06-02T18:31:16Z</time>
      </trkpt>
      <trkpt lat="59.9524901" lon="17.722144">
        <ele>46.7612</ele>
        <time>2014-06-02T18:31:17Z</time>
      </trkpt>
      <trkpt lat="59.9524901" lon="17.7220919">
        <ele>46.2806</ele>
        <time>2014-06-02T18:31:18Z</time>
      </trkpt>
      <trkpt lat="59.9524897" lon="17.7220423">
        <ele>46.2806</ele>
        <time>2014-06-02T18:31:19Z</time>
      </trkpt>
      <trkpt lat="59.9524869" lon="17.7219972">
        <ele>46.2806</ele>
        <time>2014-06-02T18:31:20Z</time>
      </trkpt>
      <trkpt lat="59.9524863" lon="17.7219492">
        <ele>46.7612</ele>
        <time>2014-06-02T18:31:21Z</time>
      </trkpt>
      <trkpt lat="59.952488" lon="17.7219011">
        <ele>46.7612</ele>
        <time>2014-06-02T18:31:22Z</time>
      </trkpt>
      <trkpt lat="59.9524895" lon="17.7218592">
        <ele>46.7612</ele>
        <time>2014-06-02T18:31:23Z</time>
      </trkpt>
      <trkpt lat="59.9524935" lon="17.7218153">
        <ele>46.2806</ele>
        <time>2014-06-02T18:31:24Z</time>
      </trkpt>
      <trkpt lat="59.9525" lon="17.7217615">
        <ele>46.2806</ele>
        <time>2014-06-02T18:31:25Z</time>
      </trkpt>
      <trkpt lat="59.9524957" lon="17.7217154">
        <ele>45.7999</ele>
        <time>2014-06-02T18:31:26Z</time>
      </trkpt>
      <trkpt lat="59.9524911" lon="17.7216687">
        <ele>45.3192</ele>
        <time>2014-06-02T18:31:27Z</time>
      </trkpt>
      <trkpt lat="59.9524879" lon="17.7216152">
        <ele>44.8386</ele>
        <time>2014-06-02T18:31:28Z</time>
      </trkpt>
      <trkpt lat="59.9524823" lon="17.7215682">
        <ele>44.8386</ele>
        <time>2014-06-02T18:31:29Z</time>
      </trkpt>
      <trkpt lat="59.9524828" lon="17.7215109">
        <ele>44.8386</ele>
        <time>2014-06-02T18:31:30Z</time>
      </trkpt>
      <trkpt lat="59.9524849" lon="17.7214477">
        <ele>44.358</ele>
        <time>2014-06-02T18:31:31Z</time>
      </trkpt>
      <trkpt lat="59.9524842" lon="17.7213898">
        <ele>44.358</ele>
        <time>2014-06-02T18:31:32Z</time>
      </trkpt>
      <trkpt lat="59.9524833" lon="17.7213421">
        <ele>44.358</ele>
        <time>2014-06-02T18:31:33Z</time>
      </trkpt>
      <trkpt lat="59.9524829" lon="17.7212959">
        <ele>44.8386</ele>
        <time>2014-06-02T18:31:34Z</time>
      </trkpt>
      <trkpt lat="59.9524845" lon="17.7212474">
        <ele>44.8386</ele>
        <time>2014-06-02T18:31:35Z</time>
      </trkpt>
      <trkpt lat="59.9524967" lon="17.7211919">
        <ele>44.8386</ele>
        <time>2014-06-02T18:31:36Z</time>
      </trkpt>
      <trkpt lat="59.9525078" lon="17.7211478">
        <ele>44.358</ele>
        <time>2014-06-02T18:31:37Z</time>
      </trkpt>
      <trkpt lat="59.9525117" lon="17.7211051">
        <ele>44.358</ele>
        <time>2014-06-02T18:31:38Z</time>
      </trkpt>
      <trkpt lat="59.9525101" lon="17.7210593">
        <ele>44.358</ele>
        <time>2014-06-02T18:31:39Z</time>
      </trkpt>
      <trkpt lat="59.9525082" lon="17.7210218">
        <ele>44.8386</ele>
        <time>2014-06-02T18:31:40Z</time>
      </trkpt>
      <trkpt lat="59.9525083" lon="17.7209759">
        <ele>44.8386</ele>
        <time>2014-06-02T18:31:41Z</time>
      </trkpt>
      <trkpt lat="59.9525086" lon="17.7209224">
        <ele>44.8386</ele>
        <time>2014-06-02T18:31:42Z</time>
      </trkpt>
      <trkpt lat="59.952507" lon="17.7208608">
        <ele>44.358</ele>
        <time>2014-06-02T18:31:43Z</time>
      </trkpt>
      <trkpt lat="59.9525067" lon="17.7207992">
        <ele>44.358</ele>
        <time>2014-06-02T18:31:44Z</time>
      </trkpt>
      <trkpt lat="59.9525051" lon="17.720739">
        <ele>44.358</ele>
        <time>2014-06-02T18:31:45Z</time>
      </trkpt>
      <trkpt lat="59.9525029" lon="17.7206722">
        <ele>43.8773</ele>
        <time>2014-06-02T18:31:46Z</time>
      </trkpt>
      <trkpt lat="59.9525072" lon="17.7206079">
        <ele>43.8773</ele>
        <time>2014-06-02T18:31:47Z</time>
      </trkpt>
      <trkpt lat="59.9525129" lon="17.7205555">
        <ele>42.916</ele>
        <time>2014-06-02T18:31:48Z</time>
      </trkpt>
      <trkpt lat="59.9525168" lon="17.7205094">
        <ele>42.916</ele>
        <time>2014-06-02T18:31:49Z</time>
      </trkpt>
      <trkpt lat="59.9525222" lon="17.7204587">
        <ele>42.4354</ele>
        <time>2014-06-02T18:31:50Z</time>
      </trkpt>
      <trkpt lat="59.9525226" lon="17.7204089">
        <ele>42.916</ele>
        <time>2014-06-02T18:31:51Z</time>
      </trkpt>
      <trkpt lat="59.9525221" lon="17.7203559">
        <ele>42.916</ele>
        <time>2014-06-02T18:31:52Z</time>
      </trkpt>
      <trkpt lat="59.9525215" lon="17.7203084">
        <ele>42.916</ele>
        <time>2014-06-02T18:31:53Z</time>
      </trkpt>
      <trkpt lat="59.9525189" lon="17.7202697">
        <ele>43.3966</ele>
        <time>2014-06-02T18:31:54Z</time>
      </trkpt>
      <trkpt lat="59.9525155" lon="17.7202304">
        <ele>42.916</ele>
        <time>2014-06-02T18:31:55Z</time>
      </trkpt>
      <trkpt lat="59.9525107" lon="17.7201874">
        <ele>43.3966</ele>
        <time>2014-06-02T18:31:56Z</time>
      </trkpt>
      <trkpt lat="59.9525061" lon="17.7201387">
        <ele>43.3966</ele>
        <time>2014-06-02T18:31:57Z</time>
      </trkpt>
      <trkpt lat="59.9525094" lon="17.7200895">
        <ele>43.3966</ele>
        <time>2014-06-02T18:31:58Z</time>
      </trkpt>
      <trkpt lat="59.9525098" lon="17.7200376">
        <ele>43.3966</ele>
        <time>2014-06-02T18:31:59Z</time>
      </trkpt>
      <trkpt lat="59.9525005" lon="17.719981">
        <ele>43.3966</ele>
        <time>2014-06-02T18:32:00Z</time>
      </trkpt>
      <trkpt lat="59.9524904" lon="17.7199207">
        <ele>42.916</ele>
        <time>2014-06-02T18:32:01Z</time>
      </trkpt>
      <trkpt lat="59.9524822" lon="17.7198595">
        <ele>42.4354</ele>
        <time>2014-06-02T18:32:02Z</time>
      </trkpt>
      <trkpt lat="59.9524746" lon="17.7198037">
        <ele>43.3966</ele>
        <time>2014-06-02T18:32:03Z</time>
      </trkpt>
      <trkpt lat="59.9524571" lon="17.7197595">
        <ele>44.358</ele>
        <time>2014-06-02T18:32:04Z</time>
      </trkpt>
      <trkpt lat="59.952441" lon="17.719714">
        <ele>45.3192</ele>
        <time>2014-06-02T18:32:05Z</time>
      </trkpt>
      <trkpt lat="59.952433" lon="17.719663">
        <ele>46.7612</ele>
        <time>2014-06-02T18:32:06Z</time>
      </trkpt>
      <trkpt lat="59.9524264" lon="17.7196139">
        <ele>46.7612</ele>
        <time>2014-06-02T18:32:07Z</time>
      </trkpt>
      <trkpt lat="59.9524207" lon="17.7195595">
        <ele>46.7612</ele>
        <time>2014-06-02T18:32:08Z</time>
      </trkpt>
      <trkpt lat="59.9524103" lon="17.7195031">
        <ele>47.2418</ele>
        <time>2014-06-02T18:32:09Z</time>
      </trkpt>
      <trkpt lat="59.9524066" lon="17.7194498">
        <ele>48.2034</ele>
        <time>2014-06-02T18:32:10Z</time>
      </trkpt>
      <trkpt lat="59.9524042" lon="17.7193996">
        <ele>48.684</ele>
        <time>2014-06-02T18:32:11Z</time>
      </trkpt>
      <trkpt lat="59.9524052" lon="17.7193553">
        <ele>48.2034</ele>
        <time>2014-06-02T18:32:12Z</time>
      </trkpt>
      <trkpt lat="59.9524015" lon="17.7193061">
        <ele>47.7225</ele>
        <time>2014-06-02T18:32:13Z</time>
      </trkpt>
      <trkpt lat="59.9523979" lon="17.7192514">
        <ele>48.2034</ele>
        <time>2014-06-02T18:32:14Z</time>
      </trkpt>
      <trkpt lat="59.9523959" lon="17.7192017">
        <ele>48.684</ele>
        <time>2014-06-02T18:32:15Z</time>
      </trkpt>
      <trkpt lat="59.9523923" lon="17.7191556">
        <ele>48.684</ele>
        <time>2014-06-02T18:32:16Z</time>
      </trkpt>
      <trkpt lat="59.9523894" lon="17.7191015">
        <ele>48.684</ele>
        <time>2014-06-02T18:32:17Z</time>
      </trkpt>
      <trkpt lat="59.952389" lon="17.7190546">
        <ele>48.684</ele>
        <time>2014-06-02T18:32:18Z</time>
      </trkpt>
      <trkpt lat="59.9523947" lon="17.7190212">
        <ele>48.684</ele>
        <time>2014-06-02T18:32:19Z</time>
      </trkpt>
      <trkpt lat="59.9524051" lon="17.7189846">
        <ele>48.2034</ele>
        <time>2014-06-02T18:32:20Z</time>
      </trkpt>
      <trkpt lat="59.9524109" lon="17.7189457">
        <ele>48.684</ele>
        <time>2014-06-02T18:32:21Z</time>
      </trkpt>
      <trkpt lat="59.9524186" lon="17.7189058">
        <ele>48.2034</ele>
        <time>2014-06-02T18:32:22Z</time>
      </trkpt>
      <trkpt lat="59.9524254" lon="17.7188602">
        <ele>47.7225</ele>
        <time>2014-06-02T18:32:23Z</time>
      </trkpt>
      <trkpt lat="59.9524284" lon="17.7188186">
        <ele>47.7225</ele>
        <time>2014-06-02T18:32:24Z</time>
      </trkpt>
      <trkpt lat="59.9524358" lon="17.7187749">
        <ele>47.2418</ele>
        <time>2014-06-02T18:32:25Z</time>
      </trkpt>
      <trkpt lat="59.9524461" lon="17.7187282">
        <ele>47.7225</ele>
        <time>2014-06-02T18:32:26Z</time>
      </trkpt>
      <trkpt lat="59.9524588" lon="17.7186838">
        <ele>47.7225</ele>
        <time>2014-06-02T18:32:27Z</time>
      </trkpt>
      <trkpt lat="59.9524685" lon="17.7186415">
        <ele>47.7225</ele>
        <time>2014-06-02T18:32:28Z</time>
      </trkpt>
      <trkpt lat="59.9524777" lon="17.7186048">
        <ele>48.2034</ele>
        <time>2014-06-02T18:32:29Z</time>
      </trkpt>
      <trkpt lat="59.9524878" lon="17.7185686">
        <ele>48.2034</ele>
        <time>2014-06-02T18:32:30Z</time>
      </trkpt>
      <trkpt lat="59.9524958" lon="17.7185333">
        <ele>48.2034</ele>
        <time>2014-06-02T18:32:31Z</time>
      </trkpt>
      <trkpt lat="59.9525039" lon="17.7184924">
        <ele>48.684</ele>
        <time>2014-06-02T18:32:32Z</time>
      </trkpt>
      <trkpt lat="59.9525114" lon="17.7184469">
        <ele>49.1646</ele>
        <time>2014-06-02T18:32:33Z</time>
      </trkpt>
      <trkpt lat="59.9525177" lon="17.7184039">
        <ele>49.1646</ele>
        <time>2014-06-02T18:32:34Z</time>
      </trkpt>
      <trkpt lat="59.9525283" lon="17.7183574">
        <ele>49.1646</ele>
        <time>2014-06-02T18:32:35Z</time>
      </trkpt>
      <trkpt lat="59.9525382" lon="17.7183085">
        <ele>49.1646</ele>
        <time>2014-06-02T18:32:36Z</time>
      </trkpt>
      <trkpt lat="59.9525477" lon="17.7182563">
        <ele>49.1646</ele>
        <time>2014-06-02T18:32:37Z</time>
      </trkpt>
      <trkpt lat="59.95256" lon="17.7182117">
        <ele>49.6453</ele>
        <time>2014-06-02T18:32:38Z</time>
      </trkpt>
      <trkpt lat="59.9525724" lon="17.7181666">
        <ele>49.6453</ele>
        <time>2014-06-02T18:32:39Z</time>
      </trkpt>
      <trkpt lat="59.9525823" lon="17.7181259">
        <ele>50.126</ele>
        <time>2014-06-02T18:32:40Z</time>
      </trkpt>
      <trkpt lat="59.9525935" lon="17.7180808">
        <ele>50.126</ele>
        <time>2014-06-02T18:32:41Z</time>
      </trkpt>
      <trkpt lat="59.9526061" lon="17.7180346">
        <ele>50.126</ele>
        <time>2014-06-02T18:32:42Z</time>
      </trkpt>
      <trkpt lat="59.9526179" lon="17.7179874">
        <ele>50.126</ele>
        <time>2014-06-02T18:32:43Z</time>
      </trkpt>
      <trkpt lat="59.9526305" lon="17.7179382">
        <ele>50.126</ele>
        <time>2014-06-02T18:32:44Z</time>
      </trkpt>
      <trkpt lat="59.952644" lon="17.7178841">
        <ele>50.126</ele>
        <time>2014-06-02T18:32:45Z</time>
      </trkpt>
      <trkpt lat="59.9526606" lon="17.7178282">
        <ele>50.6066</ele>
        <time>2014-06-02T18:32:46Z</time>
      </trkpt>
      <trkpt lat="59.9526795" lon="17.7177869">
        <ele>50.6066</ele>
        <time>2014-06-02T18:32:47Z</time>
      </trkpt>
      <trkpt lat="59.9526927" lon="17.7177572">
        <ele>50.6066</ele>
        <time>2014-06-02T18:32:48Z</time>
      </trkpt>
      <trkpt lat="59.9527055" lon="17.7177269">
        <ele>50.6066</ele>
        <time>2014-06-02T18:32:49Z</time>
      </trkpt>
      <trkpt lat="59.9527174" lon="17.7176958">
        <ele>50.126</ele>
        <time>2014-06-02T18:32:50Z</time>
      </trkpt>
      <trkpt lat="59.9527331" lon="17.7176513">
        <ele>50.126</ele>
        <time>2014-06-02T18:32:51Z</time>
      </trkpt>
      <trkpt lat="59.9527484" lon="17.7176053">
        <ele>49.6453</ele>
        <time>2014-06-02T18:32:52Z</time>
      </trkpt>
      <trkpt lat="59.9527636" lon="17.7175704">
        <ele>50.126</ele>
        <time>2014-06-02T18:32:53Z</time>
      </trkpt>
      <trkpt lat="59.952777" lon="17.7175317">
        <ele>50.126</ele>
        <time>2014-06-02T18:32:54Z</time>
      </trkpt>
      <trkpt lat="59.9527843" lon="17.7174829">
        <ele>50.126</ele>
        <time>2014-06-02T18:32:55Z</time>
      </trkpt>
      <trkpt lat="59.9527953" lon="17.7174301">
        <ele>51.0872</ele>
        <time>2014-06-02T18:32:56Z</time>
      </trkpt>
      <trkpt lat="59.9528118" lon="17.7173957">
        <ele>51.5679</ele>
        <time>2014-06-02T18:32:57Z</time>
      </trkpt>
      <trkpt lat="59.9528249" lon="17.7173656">
        <ele>51.0872</ele>
        <time>2014-06-02T18:32:58Z</time>
      </trkpt>
      <trkpt lat="59.9528346" lon="17.7173223">
        <ele>51.0872</ele>
        <time>2014-06-02T18:32:59Z</time>
      </trkpt>
      <trkpt lat="59.9528482" lon="17.7172801">
        <ele>51.5679</ele>
        <time>2014-06-02T18:33:00Z</time>
      </trkpt>
      <trkpt lat="59.95286" lon="17.7172387">
        <ele>51.0872</ele>
        <time>2014-06-02T18:33:01Z</time>
      </trkpt>
      <trkpt lat="59.9528712" lon="17.717198">
        <ele>51.0872</ele>
        <time>2014-06-02T18:33:02Z</time>
      </trkpt>
      <trkpt lat="59.9528863" lon="17.7171548">
        <ele>51.5679</ele>
        <time>2014-06-02T18:33:03Z</time>
      </trkpt>
      <trkpt lat="59.9529019" lon="17.7171057">
        <ele>51.5679</ele>
        <time>2014-06-02T18:33:04Z</time>
      </trkpt>
      <trkpt lat="59.9529149" lon="17.7170549">
        <ele>51.5679</ele>
        <time>2014-06-02T18:33:05Z</time>
      </trkpt>
      <trkpt lat="59.9529236" lon="17.7170089">
        <ele>51.0872</ele>
        <time>2014-06-02T18:33:06Z</time>
      </trkpt>
      <trkpt lat="59.952931" lon="17.7169575">
        <ele>51.0872</ele>
        <time>2014-06-02T18:33:07Z</time>
      </trkpt>
      <trkpt lat="59.95293" lon="17.7169037">
        <ele>51.0872</ele>
        <time>2014-06-02T18:33:08Z</time>
      </trkpt>
      <trkpt lat="59.9529298" lon="17.7168509">
        <ele>51.5679</ele>
        <time>2014-06-02T18:33:09Z</time>
      </trkpt>
      <trkpt lat="59.9529316" lon="17.7167922">
        <ele>51.0872</ele>
        <time>2014-06-02T18:33:10Z</time>
      </trkpt>
      <trkpt lat="59.9529318" lon="17.7167333">
        <ele>50.6066</ele>
        <time>2014-06-02T18:33:11Z</time>
      </trkpt>
      <trkpt lat="59.9529352" lon="17.7166772">
        <ele>50.126</ele>
        <time>2014-06-02T18:33:12Z</time>
      </trkpt>
      <trkpt lat="59.9529377" lon="17.7166236">
        <ele>49.6453</ele>
        <time>2014-06-02T18:33:13Z</time>
      </trkpt>
      <trkpt lat="59.9529388" lon="17.7165777">
        <ele>49.6453</ele>
        <time>2014-06-02T18:33:14Z</time>
      </trkpt>
      <trkpt lat="59.9529466" lon="17.7165356">
        <ele>49.6453</ele>
        <time>2014-06-02T18:33:15Z</time>
      </trkpt>
      <trkpt lat="59.9529512" lon="17.716496">
        <ele>49.6453</ele>
        <time>2014-06-02T18:33:16Z</time>
      </trkpt>
      <trkpt lat="59.9529525" lon="17.7164491">
        <ele>48.684</ele>
        <time>2014-06-02T18:33:17Z</time>
      </trkpt>
      <trkpt lat="59.9529532" lon="17.716404">
        <ele>48.684</ele>
        <time>2014-06-02T18:33:18Z</time>
      </trkpt>
      <trkpt lat="59.9529623" lon="17.7163562">
        <ele>48.684</ele>
        <time>2014-06-02T18:33:19Z</time>
      </trkpt>
      <trkpt lat="59.9529742" lon="17.7163148">
        <ele>48.2034</ele>
        <time>2014-06-02T18:33:20Z</time>
      </trkpt>
      <trkpt lat="59.9529838" lon="17.7162867">
        <ele>47.7225</ele>
        <time>2014-06-02T18:33:21Z</time>
      </trkpt>
      <trkpt lat="59.9529926" lon="17.7162424">
        <ele>47.7225</ele>
        <time>2014-06-02T18:33:22Z</time>
      </trkpt>
      <trkpt lat="59.9530012" lon="17.7161884">
        <ele>47.2418</ele>
        <time>2014-06-02T18:33:23Z</time>
      </trkpt>
      <trkpt lat="59.9530159" lon="17.7161326">
        <ele>47.2418</ele>
        <time>2014-06-02T18:33:24Z</time>
      </trkpt>
      <trkpt lat="59.9530317" lon="17.7160719">
        <ele>46.7612</ele>
        <time>2014-06-02T18:33:25Z</time>
      </trkpt>
      <trkpt lat="59.9530419" lon="17.7160105">
        <ele>46.7612</ele>
        <time>2014-06-02T18:33:26Z</time>
      </trkpt>
      <trkpt lat="59.9530506" lon="17.7159543">
        <ele>46.2806</ele>
        <time>2014-06-02T18:33:27Z</time>
      </trkpt>
      <trkpt lat="59.9530505" lon="17.7159013">
        <ele>45.7999</ele>
        <time>2014-06-02T18:33:28Z</time>
      </trkpt>
      <trkpt lat="59.9530532" lon="17.7158455">
        <ele>45.7999</ele>
        <time>2014-06-02T18:33:29Z</time>
      </trkpt>
      <trkpt lat="59.9530671" lon="17.715802">
        <ele>45.7999</ele>
        <time>2014-06-02T18:33:30Z</time>
      </trkpt>
      <trkpt lat="59.9530837" lon="17.7157631">
        <ele>46.2806</ele>
        <time>2014-06-02T18:33:31Z</time>
      </trkpt>
      <trkpt lat="59.9530994" lon="17.7157357">
        <ele>45.7999</ele>
        <time>2014-06-02T18:33:32Z</time>
      </trkpt>
      <trkpt lat="59.9531232" lon="17.7157202">
        <ele>45.3192</ele>
        <time>2014-06-02T18:33:33Z</time>
      </trkpt>
      <trkpt lat="59.9531454" lon="17.7156959">
        <ele>44.8386</ele>
        <time>2014-06-02T18:33:34Z</time>
      </trkpt>
      <trkpt lat="59.9531626" lon="17.7156621">
        <ele>44.358</ele>
        <time>2014-06-02T18:33:35Z</time>
      </trkpt>
      <trkpt lat="59.9531818" lon="17.715631">
        <ele>43.8773</ele>
        <time>2014-06-02T18:33:36Z</time>
      </trkpt>
      <trkpt lat="59.9532006" lon="17.7156031">
        <ele>44.358</ele>
        <time>2014-06-02T18:33:37Z</time>
      </trkpt>
      <trkpt lat="59.9532205" lon="17.7155712">
        <ele>44.358</ele>
        <time>2014-06-02T18:33:38Z</time>
      </trkpt>
      <trkpt lat="59.9532453" lon="17.7155332">
        <ele>44.358</ele>
        <time>2014-06-02T18:33:39Z</time>
      </trkpt>
      <trkpt lat="59.95327" lon="17.7154957">
        <ele>44.358</ele>
        <time>2014-06-02T18:33:40Z</time>
      </trkpt>
      <trkpt lat="59.9532882" lon="17.7154611">
        <ele>43.8773</ele>
        <time>2014-06-02T18:33:41Z</time>
      </trkpt>
      <trkpt lat="59.9533109" lon="17.7154286">
        <ele>43.3966</ele>
        <time>2014-06-02T18:33:42Z</time>
      </trkpt>
      <trkpt lat="59.9533332" lon="17.7153959">
        <ele>43.3966</ele>
        <time>2014-06-02T18:33:43Z</time>
      </trkpt>
      <trkpt lat="59.9533519" lon="17.7153568">
        <ele>42.916</ele>
        <time>2014-06-02T18:33:44Z</time>
      </trkpt>
      <trkpt lat="59.953369" lon="17.7153174">
        <ele>42.4354</ele>
        <time>2014-06-02T18:33:45Z</time>
      </trkpt>
      <trkpt lat="59.953389" lon="17.7152782">
        <ele>42.4354</ele>
        <time>2014-06-02T18:33:46Z</time>
      </trkpt>
      <trkpt lat="59.9534128" lon="17.7152511">
        <ele>42.4354</ele>
        <time>2014-06-02T18:33:47Z</time>
      </trkpt>
      <trkpt lat="59.9534348" lon="17.7152247">
        <ele>42.4354</ele>
        <time>2014-06-02T18:33:48Z</time>
      </trkpt>
      <trkpt lat="59.9534566" lon="17.7151912">
        <ele>42.4354</ele>
        <time>2014-06-02T18:33:49Z</time>
      </trkpt>
      <trkpt lat="59.9534815" lon="17.7151646">
        <ele>42.916</ele>
        <time>2014-06-02T18:33:50Z</time>
      </trkpt>
      <trkpt lat="59.9535049" lon="17.7151475">
        <ele>42.916</ele>
        <time>2014-06-02T18:33:51Z</time>
      </trkpt>
      <trkpt lat="59.9535293" lon="17.7151151">
        <ele>43.3966</ele>
        <time>2014-06-02T18:33:52Z</time>
      </trkpt>
      <trkpt lat="59.9535531" lon="17.7150756">
        <ele>44.358</ele>
        <time>2014-06-02T18:33:53Z</time>
      </trkpt>
      <trkpt lat="59.9535767" lon="17.7150454">
        <ele>44.8386</ele>
        <time>2014-06-02T18:33:54Z</time>
      </trkpt>
      <trkpt lat="59.9536039" lon="17.7150202">
        <ele>45.3192</ele>
        <time>2014-06-02T18:33:55Z</time>
      </trkpt>
      <trkpt lat="59.9536311" lon="17.714998">
        <ele>45.7999</ele>
        <time>2014-06-02T18:33:56Z</time>
      </trkpt>
      <trkpt lat="59.953659" lon="17.7149726">
        <ele>45.7999</ele>
        <time>2014-06-02T18:33:57Z</time>
      </trkpt>
      <trkpt lat="59.9536821" lon="17.7149496">
        <ele>45.7999</ele>
        <time>2014-06-02T18:33:58Z</time>
      </trkpt>
      <trkpt lat="59.9537028" lon="17.7149284">
        <ele>45.7999</ele>
        <time>2014-06-02T18:33:59Z</time>
      </trkpt>
      <trkpt lat="59.9537269" lon="17.7149053">
        <ele>46.2806</ele>
        <time>2014-06-02T18:34:00Z</time>
      </trkpt>
      <trkpt lat="59.9537542" lon="17.7148885">
        <ele>46.2806</ele>
        <time>2014-06-02T18:34:01Z</time>
      </trkpt>
      <trkpt lat="59.9537814" lon="17.7148622">
        <ele>46.2806</ele>
        <time>2014-06-02T18:34:02Z</time>
      </trkpt>
      <trkpt lat="59.9538136" lon="17.7148386">
        <ele>47.2418</ele>
        <time>2014-06-02T18:34:03Z</time>
      </trkpt>
      <trkpt lat="59.9538376" lon="17.7148315">
        <ele>47.2418</ele>
        <time>2014-06-02T18:34:04Z</time>
      </trkpt>
      <trkpt lat="59.953867" lon="17.7148074">
        <ele>48.2034</ele>
        <time>2014-06-02T18:34:05Z</time>
      </trkpt>
      <trkpt lat="59.9538985" lon="17.7147956">
        <ele>48.2034</ele>
        <time>2014-06-02T18:34:06Z</time>
      </trkpt>
      <trkpt lat="59.9539306" lon="17.7147864">
        <ele>48.684</ele>
        <time>2014-06-02T18:34:07Z</time>
      </trkpt>
      <trkpt lat="59.9539555" lon="17.7147788">
        <ele>49.1646</ele>
        <time>2014-06-02T18:34:08Z</time>
      </trkpt>
      <trkpt lat="59.9539794" lon="17.7147756">
        <ele>49.1646</ele>
        <time>2014-06-02T18:34:09Z</time>
      </trkpt>
      <trkpt lat="59.9540048" lon="17.7147763">
        <ele>49.6453</ele>
        <time>2014-06-02T18:34:10Z</time>
      </trkpt>
      <trkpt lat="59.9540281" lon="17.7147875">
        <ele>49.1646</ele>
        <time>2014-06-02T18:34:11Z</time>
      </trkpt>
      <trkpt lat="59.9540491" lon="17.714781">
        <ele>49.6453</ele>
        <time>2014-06-02T18:34:12Z</time>
      </trkpt>
      <trkpt lat="59.954069" lon="17.7147645">
        <ele>50.6066</ele>
        <time>2014-06-02T18:34:13Z</time>
      </trkpt>
      <trkpt lat="59.9540928" lon="17.7147557">
        <ele>51.0872</ele>
        <time>2014-06-02T18:34:14Z</time>
      </trkpt>
      <trkpt lat="59.954122" lon="17.7147509">
        <ele>51.5679</ele>
        <time>2014-06-02T18:34:15Z</time>
      </trkpt>
      <trkpt lat="59.9541519" lon="17.7147357">
        <ele>51.5679</ele>
        <time>2014-06-02T18:34:16Z</time>
      </trkpt>
      <trkpt lat="59.9541813" lon="17.7147262">
        <ele>51.5679</ele>
        <time>2014-06-02T18:34:17Z</time>
      </trkpt>
      <trkpt lat="59.9542113" lon="17.7147287">
        <ele>51.5679</ele>
        <time>2014-06-02T18:34:18Z</time>
      </trkpt>
      <trkpt lat="59.9542363" lon="17.7147301">
        <ele>51.5679</ele>
        <time>2014-06-02T18:34:19Z</time>
      </trkpt>
      <trkpt lat="59.9542646" lon="17.7147312">
        <ele>51.5679</ele>
        <time>2014-06-02T18:34:20Z</time>
      </trkpt>
      <trkpt lat="59.9542942" lon="17.7147348">
        <ele>51.5679</ele>
        <time>2014-06-02T18:34:21Z</time>
      </trkpt>
      <trkpt lat="59.9543201" lon="17.7147333">
        <ele>51.0872</ele>
        <time>2014-06-02T18:34:22Z</time>
      </trkpt>
      <trkpt lat="59.9543459" lon="17.7147327">
        <ele>51.5679</ele>
        <time>2014-06-02T18:34:23Z</time>
      </trkpt>
      <trkpt lat="59.9543746" lon="17.7147227">
        <ele>51.5679</ele>
        <time>2014-06-02T18:34:24Z</time>
      </trkpt>
      <trkpt lat="59.9544037" lon="17.714722">
        <ele>51.5679</ele>
        <time>2014-06-02T18:34:25Z</time>
      </trkpt>
      <trkpt lat="59.954431" lon="17.714725">
        <ele>50.6066</ele>
        <time>2014-06-02T18:34:26Z</time>
      </trkpt>
      <trkpt lat="59.9544596" lon="17.7147282">
        <ele>49.6453</ele>
        <time>2014-06-02T18:34:27Z</time>
      </trkpt>
      <trkpt lat="59.9544891" lon="17.7147305">
        <ele>49.1646</ele>
        <time>2014-06-02T18:34:28Z</time>
      </trkpt>
      <trkpt lat="59.9545171" lon="17.7147313">
        <ele>48.684</ele>
        <time>2014-06-02T18:34:29Z</time>
      </trkpt>
      <trkpt lat="59.9545469" lon="17.7147308">
        <ele>48.684</ele>
        <time>2014-06-02T18:34:30Z</time>
      </trkpt>
      <trkpt lat="59.954577" lon="17.7147286">
        <ele>48.2034</ele>
        <time>2014-06-02T18:34:31Z</time>
      </trkpt>
      <trkpt lat="59.9546104" lon="17.7147331">
        <ele>48.2034</ele>
        <time>2014-06-02T18:34:32Z</time>
      </trkpt>
      <trkpt lat="59.9546409" lon="17.7147338">
        <ele>47.7225</ele>
        <time>2014-06-02T18:34:33Z</time>
      </trkpt>
      <trkpt lat="59.9546695" lon="17.7147324">
        <ele>47.2418</ele>
        <time>2014-06-02T18:34:34Z</time>
      </trkpt>
      <trkpt lat="59.9546977" lon="17.7147359">
        <ele>46.7612</ele>
        <time>2014-06-02T18:34:35Z</time>
      </trkpt>
      <trkpt lat="59.9547273" lon="17.7147381">
        <ele>46.2806</ele>
        <time>2014-06-02T18:34:36Z</time>
      </trkpt>
      <trkpt lat="59.954762" lon="17.7147379">
        <ele>46.2806</ele>
        <time>2014-06-02T18:34:37Z</time>
      </trkpt>
      <trkpt lat="59.9547972" lon="17.7147362">
        <ele>46.2806</ele>
        <time>2014-06-02T18:34:38Z</time>
      </trkpt>
      <trkpt lat="59.9548269" lon="17.714728">
        <ele>46.2806</ele>
        <time>2014-06-02T18:34:39Z</time>
      </trkpt>
      <trkpt lat="59.9548538" lon="17.7147082">
        <ele>45.7999</ele>
        <time>2014-06-02T18:34:40Z</time>
      </trkpt>
      <trkpt lat="59.9548801" lon="17.7146753">
        <ele>45.3192</ele>
        <time>2014-06-02T18:34:41Z</time>
      </trkpt>
      <trkpt lat="59.954904" lon="17.7146381">
        <ele>44.8386</ele>
        <time>2014-06-02T18:34:42Z</time>
      </trkpt>
      <trkpt lat="59.9549284" lon="17.7145995">
        <ele>44.358</ele>
        <time>2014-06-02T18:34:43Z</time>
      </trkpt>
      <trkpt lat="59.9549522" lon="17.7145572">
        <ele>43.8773</ele>
        <time>2014-06-02T18:34:44Z</time>
      </trkpt>
      <trkpt lat="59.9549748" lon="17.7145168">
        <ele>43.8773</ele>
        <time>2014-06-02T18:34:45Z</time>
      </trkpt>
      <trkpt lat="59.9549953" lon="17.7144836">
        <ele>42.916</ele>
        <time>2014-06-02T18:34:46Z</time>
      </trkpt>
      <trkpt lat="59.9550183" lon="17.7144479">
        <ele>42.4354</ele>
        <time>2014-06-02T18:34:47Z</time>
      </trkpt>
      <trkpt lat="59.9550402" lon="17.7144158">
        <ele>41.9547</ele>
        <time>2014-06-02T18:34:48Z</time>
      </trkpt>
      <trkpt lat="59.9550631" lon="17.7143904">
        <ele>41.474</ele>
        <time>2014-06-02T18:34:49Z</time>
      </trkpt>
      <trkpt lat="59.9550904" lon="17.7143697">
        <ele>41.474</ele>
        <time>2014-06-02T18:34:50Z</time>
      </trkpt>
      <trkpt lat="59.9551138" lon="17.7143589">
        <ele>40.5128</ele>
        <time>2014-06-02T18:34:51Z</time>
      </trkpt>
      <trkpt lat="59.9551331" lon="17.7143349">
        <ele>40.5128</ele>
        <time>2014-06-02T18:34:52Z</time>
      </trkpt>
      <trkpt lat="59.9551447" lon="17.7142926">
        <ele>39.5513</ele>
        <time>2014-06-02T18:34:53Z</time>
      </trkpt>
      <trkpt lat="59.955162" lon="17.7142437">
        <ele>39.0707</ele>
        <time>2014-06-02T18:34:54Z</time>
      </trkpt>
      <trkpt lat="59.9551817" lon="17.7141975">
        <ele>39.0707</ele>
        <time>2014-06-02T18:34:55Z</time>
      </trkpt>
      <trkpt lat="59.955202" lon="17.7141568">
        <ele>38.5901</ele>
        <time>2014-06-02T18:34:56Z</time>
      </trkpt>
      <trkpt lat="59.9552288" lon="17.7141387">
        <ele>38.5901</ele>
        <time>2014-06-02T18:34:57Z</time>
      </trkpt>
      <trkpt lat="59.9552614" lon="17.7141443">
        <ele>38.5901</ele>
        <time>2014-06-02T18:34:58Z</time>
      </trkpt>
      <trkpt lat="59.9552887" lon="17.7141568">
        <ele>38.1094</ele>
        <time>2014-06-02T18:34:59Z</time>
      </trkpt>
      <trkpt lat="59.9552982" lon="17.7141921">
        <ele>38.1094</ele>
        <time>2014-06-02T18:35:00Z</time>
      </trkpt>
      <trkpt lat="59.95531" lon="17.7142268">
        <ele>38.1094</ele>
        <time>2014-06-02T18:35:01Z</time>
      </trkpt>
      <trkpt lat="59.9553204" lon="17.7142728">
        <ele>38.1094</ele>
        <time>2014-06-02T18:35:02Z</time>
      </trkpt>
      <trkpt lat="59.9553253" lon="17.7143303">
        <ele>38.1094</ele>
        <time>2014-06-02T18:35:03Z</time>
      </trkpt>
      <trkpt lat="59.9553293" lon="17.7143962">
        <ele>38.5901</ele>
        <time>2014-06-02T18:35:04Z</time>
      </trkpt>
      <trkpt lat="59.9553386" lon="17.7144613">
        <ele>38.5901</ele>
        <time>2014-06-02T18:35:05Z</time>
      </trkpt>
      <trkpt lat="59.9553511" lon="17.7145167">
        <ele>39.0707</ele>
        <time>2014-06-02T18:35:06Z</time>
      </trkpt>
      <trkpt lat="59.9553613" lon="17.7145743">
        <ele>39.0707</ele>
        <time>2014-06-02T18:35:07Z</time>
      </trkpt>
      <trkpt lat="59.9553702" lon="17.7146391">
        <ele>40.5128</ele>
        <time>2014-06-02T18:35:08Z</time>
      </trkpt>
      <trkpt lat="59.9553779" lon="17.714701">
        <ele>40.5128</ele>
        <time>2014-06-02T18:35:09Z</time>
      </trkpt>
      <trkpt lat="59.9553909" lon="17.7147635">
        <ele>40.9934</ele>
        <time>2014-06-02T18:35:10Z</time>
      </trkpt>
      <trkpt lat="59.9554011" lon="17.7148277">
        <ele>40.9934</ele>
        <time>2014-06-02T18:35:11Z</time>
      </trkpt>
      <trkpt lat="59.9554108" lon="17.714896">
        <ele>40.9934</ele>
        <time>2014-06-02T18:35:12Z</time>
      </trkpt>
      <trkpt lat="59.9554226" lon="17.7149587">
        <ele>41.474</ele>
        <time>2014-06-02T18:35:13Z</time>
      </trkpt>
    </trkseg>
  </trk>
</gpx>